Wetterdaten: Donnerstag, 20.07.2017
Datum Zeit Temp. A. Pool Temp. Feuchte A. Luftdruck Regen Wind Richtung Richtung Sonnenschein ET UV Solar Taupunkt Windchill Windben Empfang
20.07.2017 00:00 18,7 C 25,6 C 74 % 1009,9 hPa 0,0 l/m 3,1 km/h (1 Bft) NO 51 0 min 0,000 mm 0,0 UV-I 0 W/m 14,0 C 18,7 C 6,4 km/h (2 Bft) 98,00 %
20.07.2017 00:02 18,8 C 25,6 C 74 % 1010,0 hPa 0,0 l/m 1,8 km/h (1 Bft) NO 51 0 min 0,000 mm 0,0 UV-I 0 W/m 14,1 C 18,8 C 4,8 km/h (1 Bft) 97,22 %
20.07.2017 00:04 18,8 C 25,6 C 74 % 1010,0 hPa 0,0 l/m 0,1 km/h (0 Bft) NO 51 0 min 0,000 mm 0,0 UV-I 0 W/m 14,1 C 18,8 C 1,6 km/h (1 Bft) 97,87 %
20.07.2017 00:06 18,8 C 25,6 C 74 % 1009,9 hPa 0,0 l/m 0,0 km/h (0 Bft) NO 51 0 min 0,000 mm 0,0 UV-I 0 W/m 14,1 C 18,8 C 0,0 km/h (0 Bft) 95,83 %
20.07.2017 00:08 18,7 C 25,6 C 74 % 1009,9 hPa 0,0 l/m 0,0 km/h (0 Bft) NO 51 0 min 0,000 mm 0,0 UV-I 0 W/m 14,0 C 18,7 C 0,0 km/h (0 Bft) 95,74 %
20.07.2017 00:10 18,4 C 25,6 C 75 % 1009,8 hPa 0,0 l/m 0,8 km/h (0 Bft) NO 51 0 min 0,000 mm 0,0 UV-I 0 W/m 13,9 C 18,4 C 3,2 km/h (1 Bft) 97,87 %
20.07.2017 00:12 18,3 C 25,6 C 75 % 1009,9 hPa 0,0 l/m 3,9 km/h (1 Bft) NO 51 0 min 0,000 mm 0,0 UV-I 0 W/m 13,8 C 18,3 C 4,8 km/h (1 Bft) 97,87 %
20.07.2017 00:14 18,2 C 25,6 C 76 % 1009,9 hPa 0,0 l/m 3,8 km/h (1 Bft) NO 51 0 min 0,000 mm 0,0 UV-I 0 W/m 13,9 C 18,2 C 6,4 km/h (2 Bft) 95,74 %
20.07.2017 00:16 18,2 C 25,6 C 76 % 1009,9 hPa 0,0 l/m 4,1 km/h (1 Bft) NO 51 0 min 0,000 mm 0,0 UV-I 0 W/m 13,9 C 18,2 C 6,4 km/h (2 Bft) 97,87 %
20.07.2017 00:18 18,2 C 25,6 C 76 % 1010,0 hPa 0,0 l/m 3,0 km/h (1 Bft) NO 51 0 min 0,000 mm 0,0 UV-I 0 W/m 13,9 C 18,2 C 4,8 km/h (1 Bft) 95,74 %
20.07.2017 00:20 18,1 C 25,0 C 76 % 1010,0 hPa 0,0 l/m 1,9 km/h (1 Bft) NO 51 0 min 0,000 mm 0,0 UV-I 0 W/m 13,8 C 18,1 C 3,2 km/h (1 Bft) 95,74 %
20.07.2017 00:22 18,1 C 25,6 C 76 % 1010,1 hPa 0,0 l/m 0,6 km/h (0 Bft) NO 51 0 min 0,000 mm 0,0 UV-I 0 W/m 13,8 C 18,1 C 1,6 km/h (1 Bft) 97,87 %
20.07.2017 00:24 18,2 C 25,0 C 76 % 1010,1 hPa 0,0 l/m 2,8 km/h (1 Bft) NO 54 0 min 0,000 mm 0,0 UV-I 0 W/m 13,9 C 18,2 C 6,4 km/h (2 Bft) 95,74 %
20.07.2017 00:26 18,3 C 25,6 C 76 % 1010,1 hPa 0,0 l/m 0,2 km/h (0 Bft) NO 54 0 min 0,000 mm 0,0 UV-I 0 W/m 14,0 C 18,3 C 1,6 km/h (1 Bft) 97,87 %
20.07.2017 00:28 18,3 C 25,6 C 77 % 1010,1 hPa 0,0 l/m 1,6 km/h (1 Bft) NO 54 0 min 0,000 mm 0,0 UV-I 0 W/m 14,2 C 18,3 C 3,2 km/h (1 Bft) 93,75 %
20.07.2017 00:30 18,2 C 25,0 C 76 % 1010,1 hPa 0,0 l/m 4,2 km/h (1 Bft) S-SW 192 0 min 0,000 mm 0,0 UV-I 0 W/m 13,9 C 18,2 C 6,4 km/h (2 Bft) 93,62 %
20.07.2017 00:32 18,0 C 25,0 C 77 % 1010,1 hPa 0,0 l/m 3,5 km/h (1 Bft) S-SW 193 0 min 0,000 mm 0,0 UV-I 0 W/m 13,9 C 18,0 C 6,4 km/h (2 Bft) 91,49 %
20.07.2017 00:34 17,9 C 25,0 C 77 % 1010,1 hPa 0,0 l/m 4,0 km/h (1 Bft) S-SW 193 0 min 0,000 mm 0,0 UV-I 0 W/m 13,8 C 17,9 C 4,8 km/h (1 Bft) 94,00 %
20.07.2017 00:36 17,9 C 25,0 C 78 % 1010,1 hPa 0,0 l/m 2,2 km/h (1 Bft) S-SW 193 0 min 0,000 mm 0,0 UV-I 0 W/m 14,0 C 17,9 C 4,8 km/h (1 Bft) 96,00 %
20.07.2017 00:38 17,9 C 25,0 C 78 % 1010,1 hPa 0,0 l/m 1,2 km/h (1 Bft) S-SW 193 0 min 0,000 mm 0,0 UV-I 0 W/m 14,0 C 17,9 C 3,2 km/h (1 Bft) 95,74 %
20.07.2017 00:40 18,0 C 25,0 C 78 % 1010,1 hPa 0,0 l/m 0,6 km/h (0 Bft) S-SW 193 0 min 0,000 mm 0,0 UV-I 0 W/m 14,1 C 18,0 C 1,6 km/h (1 Bft) 94,44 %
20.07.2017 00:42 17,9 C 25,0 C 78 % 1010,1 hPa 0,0 l/m 1,9 km/h (1 Bft) O 82 0 min 0,000 mm 0,0 UV-I 0 W/m 14,0 C 17,9 C 4,8 km/h (1 Bft) 93,62 %
20.07.2017 00:44 17,9 C 25,0 C 78 % 1010,1 hPa 0,0 l/m 3,1 km/h (1 Bft) O 82 0 min 0,000 mm 0,0 UV-I 0 W/m 14,0 C 17,9 C 4,8 km/h (1 Bft) 93,62 %
20.07.2017 00:46 18,0 C 25,0 C 78 % 1010,1 hPa 0,0 l/m 2,0 km/h (1 Bft) O 82 0 min 0,000 mm 0,0 UV-I 0 W/m 14,1 C 18,0 C 4,8 km/h (1 Bft) 93,75 %
20.07.2017 00:48 18,1 C 25,0 C 77 % 1010,1 hPa 0,0 l/m 1,2 km/h (1 Bft) O 82 0 min 0,000 mm 0,0 UV-I 0 W/m 14,0 C 18,1 C 3,2 km/h (1 Bft) 96,00 %
20.07.2017 00:50 18,1 C 25,0 C 77 % 1010,1 hPa 0,0 l/m 0,2 km/h (0 Bft) O 82 0 min 0,000 mm 0,0 UV-I 0 W/m 14,0 C 18,1 C 1,6 km/h (1 Bft) 97,87 %
20.07.2017 00:52 18,0 C 25,0 C 77 % 1010,1 hPa 0,0 l/m 0,9 km/h (0 Bft) O 82 0 min 0,000 mm 0,0 UV-I 0 W/m 13,9 C 18,0 C 1,6 km/h (1 Bft) 93,62 %
20.07.2017 00:54 17,9 C 25,0 C 77 % 1010,1 hPa 0,0 l/m 1,0 km/h (0 Bft) O 82 0 min 0,000 mm 0,0 UV-I 0 W/m 13,8 C 17,9 C 3,2 km/h (1 Bft) 95,74 %
20.07.2017 00:56 17,8 C 25,0 C 78 % 1010,1 hPa 0,0 l/m 1,7 km/h (1 Bft) O 82 0 min 0,000 mm 0,0 UV-I 0 W/m 13,9 C 17,8 C 3,2 km/h (1 Bft) 97,87 %
20.07.2017 00:58 17,7 C 25,0 C 78 % 1010,0 hPa 0,0 l/m 2,4 km/h (1 Bft) O 82 0 min 0,000 mm 0,0 UV-I 0 W/m 13,8 C 17,7 C 4,8 km/h (1 Bft) 95,74 %
20.07.2017 01:00 17,5 C 25,0 C 79 % 1010,0 hPa 0,0 l/m 3,1 km/h (1 Bft) O 82 0 min 0,025 mm 0,0 UV-I 0 W/m 13,8 C 17,5 C 4,8 km/h (1 Bft) 97,87 %
20.07.2017 01:02 17,5 C 25,0 C 80 % 1010,0 hPa 0,0 l/m 2,9 km/h (1 Bft) O 82 0 min 0,000 mm 0,0 UV-I 0 W/m 14,0 C 17,5 C 4,8 km/h (1 Bft) 95,74 %
20.07.2017 01:04 17,6 C 25,0 C 80 % 1010,1 hPa 0,0 l/m 1,7 km/h (1 Bft) O 82 0 min 0,000 mm 0,0 UV-I 0 W/m 14,1 C 17,6 C 3,2 km/h (1 Bft) 100,00 %
20.07.2017 01:06 17,6 C 25,0 C 79 % 1010,1 hPa 0,0 l/m 1,9 km/h (1 Bft) O 82 0 min 0,000 mm 0,0 UV-I 0 W/m 13,9 C 17,6 C 3,2 km/h (1 Bft) 97,37 %
20.07.2017 01:08 17,7 C 25,0 C 80 % 1010,1 hPa 0,0 l/m 1,1 km/h (1 Bft) O 82 0 min 0,000 mm 0,0 UV-I 0 W/m 14,2 C 17,7 C 3,2 km/h (1 Bft) 93,62 %
20.07.2017 01:10 17,6 C 25,0 C 79 % 1010,2 hPa 0,0 l/m 3,2 km/h (1 Bft) S-SW 198 0 min 0,000 mm 0,0 UV-I 0 W/m 13,9 C 17,6 C 4,8 km/h (1 Bft) 98,00 %
20.07.2017 01:12 17,5 C 25,0 C 79 % 1010,2 hPa 0,0 l/m 3,6 km/h (1 Bft) S-SW 198 0 min 0,000 mm 0,0 UV-I 0 W/m 13,8 C 17,5 C 4,8 km/h (1 Bft) 97,87 %
20.07.2017 01:14 17,3 C 25,0 C 80 % 1010,2 hPa 0,0 l/m 3,7 km/h (1 Bft) S-SW 198 0 min 0,000 mm 0,0 UV-I 0 W/m 13,8 C 17,3 C 4,8 km/h (1 Bft) 97,87 %
20.07.2017 01:16 17,2 C 25,0 C 80 % 1010,2 hPa 0,0 l/m 4,9 km/h (1 Bft) S-SW 198 0 min 0,000 mm 0,0 UV-I 0 W/m 13,7 C 17,2 C 6,4 km/h (2 Bft) 98,00 %
20.07.2017 01:18 17,2 C 25,0 C 81 % 1010,1 hPa 0,0 l/m 3,0 km/h (1 Bft) S-SW 194 0 min 0,000 mm 0,0 UV-I 0 W/m 13,9 C 17,2 C 6,4 km/h (2 Bft) 93,62 %
20.07.2017 01:20 17,2 C 25,0 C 80 % 1010,0 hPa 0,0 l/m 1,2 km/h (1 Bft) S-SW 194 0 min 0,000 mm 0,0 UV-I 0 W/m 13,7 C 17,2 C 3,2 km/h (1 Bft) 95,74 %
20.07.2017 01:22 17,1 C 25,0 C 81 % 1009,9 hPa 0,0 l/m 3,5 km/h (1 Bft) S-SW 194 0 min 0,000 mm 0,0 UV-I 0 W/m 13,8 C 17,1 C 4,8 km/h (1 Bft) 97,87 %
20.07.2017 01:24 17,1 C 25,0 C 81 % 1009,8 hPa 0,0 l/m 4,1 km/h (1 Bft) O-SO 111 0 min 0,000 mm 0,0 UV-I 0 W/m 13,8 C 17,1 C 8,0 km/h (2 Bft) 97,87 %
20.07.2017 01:26 17,2 C 25,0 C 81 % 1009,7 hPa 0,0 l/m 3,4 km/h (1 Bft) O-SO 111 0 min 0,000 mm 0,0 UV-I 0 W/m 13,9 C 17,2 C 4,8 km/h (1 Bft) 95,83 %
20.07.2017 01:28 17,4 C 25,0 C 81 % 1009,8 hPa 0,0 l/m 3,3 km/h (1 Bft) O-SO 107 0 min 0,000 mm 0,0 UV-I 0 W/m 14,1 C 17,4 C 6,4 km/h (2 Bft) 97,44 %
20.07.2017 01:30 17,6 C 25,0 C 80 % 1009,7 hPa 0,0 l/m 0,8 km/h (0 Bft) O-SO 107 0 min 0,000 mm 0,0 UV-I 0 W/m 14,1 C 17,6 C 3,2 km/h (1 Bft) 97,87 %
20.07.2017 01:32 17,6 C 25,0 C 80 % 1009,7 hPa 0,0 l/m 0,3 km/h (0 Bft) O-SO 107 0 min 0,000 mm 0,0 UV-I 0 W/m 14,1 C 17,6 C 1,6 km/h (1 Bft) 95,74 %
20.07.2017 01:34 17,4 C 25,0 C 79 % 1009,6 hPa 0,0 l/m 0,0 km/h (0 Bft) O-SO 107 0 min 0,000 mm 0,0 UV-I 0 W/m 13,7 C 17,4 C 0,0 km/h (0 Bft) 93,62 %
20.07.2017 01:36 17,3 C 25,0 C 80 % 1009,6 hPa 0,0 l/m 0,4 km/h (0 Bft) O-SO 107 0 min 0,000 mm 0,0 UV-I 0 W/m 13,8 C 17,3 C 3,2 km/h (1 Bft) 95,83 %
20.07.2017 01:38 17,1 C 25,0 C 80 % 1009,5 hPa 0,0 l/m 3,0 km/h (1 Bft) O 96 0 min 0,000 mm 0,0 UV-I 0 W/m 13,6 C 17,1 C 4,8 km/h (1 Bft) 100,00 %
20.07.2017 01:40 17,1 C 25,0 C 81 % 1009,5 hPa 0,0 l/m 3,9 km/h (1 Bft) O 94 0 min 0,000 mm 0,0 UV-I 0 W/m 13,8 C 17,1 C 6,4 km/h (2 Bft) 97,87 %
20.07.2017 01:42 17,2 C 25,0 C 81 % 1009,5 hPa 0,0 l/m 4,6 km/h (1 Bft) O-NO 77 0 min 0,000 mm 0,0 UV-I 0 W/m 13,9 C 17,2 C 6,4 km/h (2 Bft) 97,87 %
20.07.2017 01:44 17,2 C 25,0 C 81 % 1009,5 hPa 0,0 l/m 1,7 km/h (1 Bft) O-NO 77 0 min 0,000 mm 0,0 UV-I 0 W/m 13,9 C 17,2 C 4,8 km/h (1 Bft) 91,49 %
20.07.2017 01:46 17,1 C 25,0 C 81 % 1009,5 hPa 0,0 l/m 0,7 km/h (0 Bft) O-NO 77 0 min 0,000 mm 0,0 UV-I 0 W/m 13,8 C 17,1 C 3,2 km/h (1 Bft) 98,11 %
20.07.2017 01:48 17,0 C 25,0 C 81 % 1009,6 hPa 0,0 l/m 3,3 km/h (1 Bft) O-NO 78 0 min 0,000 mm 0,0 UV-I 0 W/m 13,7 C 17,0 C 4,8 km/h (1 Bft) 97,87 %
20.07.2017 01:50 16,9 C 25,0 C 82 % 1009,6 hPa 0,0 l/m 4,2 km/h (1 Bft) SO 140 0 min 0,000 mm 0,0 UV-I 0 W/m 13,8 C 16,9 C 4,8 km/h (1 Bft) 97,87 %
20.07.2017 01:52 16,9 C 25,0 C 82 % 1009,6 hPa 0,0 l/m 1,4 km/h (1 Bft) SO 141 0 min 0,000 mm 0,0 UV-I 0 W/m 13,8 C 16,9 C 3,2 km/h (1 Bft) 97,37 %
20.07.2017 01:54 17,0 C 25,0 C 82 % 1009,5 hPa 0,0 l/m 3,1 km/h (1 Bft) SO 140 0 min 0,000 mm 0,0 UV-I 0 W/m 13,9 C 17,0 C 4,8 km/h (1 Bft) 97,87 %
20.07.2017 01:56 17,1 C 25,0 C 82 % 1009,4 hPa 0,0 l/m 2,5 km/h (1 Bft) SO 140 0 min 0,000 mm 0,0 UV-I 0 W/m 14,0 C 17,1 C 4,8 km/h (1 Bft) 94,00 %
20.07.2017 01:58 16,9 C 25,0 C 81 % 1009,5 hPa 0,0 l/m 1,7 km/h (1 Bft) SO 140 0 min 0,000 mm 0,0 UV-I 0 W/m 13,6 C 16,9 C 3,2 km/h (1 Bft) 97,87 %
20.07.2017 02:00 16,9 C 25,0 C 82 % 1009,5 hPa 0,0 l/m 0,5 km/h (0 Bft) SO 140 0 min 0,000 mm 0,0 UV-I 0 W/m 13,8 C 16,9 C 1,6 km/h (1 Bft) 98,00 %
20.07.2017 02:02 17,0 C 25,0 C 83 % 1009,5 hPa 0,0 l/m 0,0 km/h (0 Bft) SO 140 0 min 0,000 mm 0,0 UV-I 0 W/m 14,1 C 17,0 C 0,0 km/h (0 Bft) 97,22 %
20.07.2017 02:04 17,1 C 25,0 C 82 % 1009,6 hPa 0,0 l/m 0,8 km/h (0 Bft) SO 140 0 min 0,000 mm 0,0 UV-I 0 W/m 14,0 C 17,1 C 3,2 km/h (1 Bft) 98,00 %
20.07.2017 02:06 17,0 C 25,0 C 82 % 1009,6 hPa 0,0 l/m 0,4 km/h (0 Bft) SO 140 0 min 0,000 mm 0,0 UV-I 0 W/m 13,9 C 17,0 C 3,2 km/h (1 Bft) 97,87 %
20.07.2017 02:08 16,9 C 25,0 C 82 % 1009,6 hPa 0,0 l/m 3,2 km/h (1 Bft) SO 140 0 min 0,000 mm 0,0 UV-I 0 W/m 13,8 C 16,9 C 4,8 km/h (1 Bft) 95,74 %
20.07.2017 02:10 16,9 C 25,0 C 82 % 1009,6 hPa 0,0 l/m 3,0 km/h (1 Bft) SO 140 0 min 0,000 mm 0,0 UV-I 0 W/m 13,8 C 16,9 C 4,8 km/h (1 Bft) 97,87 %
20.07.2017 02:12 16,8 C 25,0 C 82 % 1009,7 hPa 0,0 l/m 3,7 km/h (1 Bft) SO 143 0 min 0,000 mm 0,0 UV-I 0 W/m 13,7 C 16,8 C 4,8 km/h (1 Bft) 97,87 %
20.07.2017 02:14 16,8 C 25,0 C 82 % 1009,8 hPa 0,0 l/m 5,6 km/h (1 Bft) S-SW 200 0 min 0,000 mm 0,0 UV-I 0 W/m 13,7 C 16,8 C 8,0 km/h (2 Bft) 100,00 %
20.07.2017 02:16 16,8 C 25,0 C 82 % 1009,9 hPa 0,0 l/m 5,5 km/h (1 Bft) S-SW 203 0 min 0,000 mm 0,0 UV-I 0 W/m 13,7 C 16,8 C 8,0 km/h (2 Bft) 97,87 %
20.07.2017 02:18 16,8 C 25,0 C 83 % 1009,8 hPa 0,0 l/m 5,2 km/h (1 Bft) S-SW 203 0 min 0,000 mm 0,0 UV-I 0 W/m 13,9 C 16,8 C 8,0 km/h (2 Bft) 100,00 %
20.07.2017 02:20 16,8 C 25,0 C 83 % 1009,8 hPa 0,0 l/m 2,5 km/h (1 Bft) S-SW 203 0 min 0,000 mm 0,0 UV-I 0 W/m 13,9 C 16,8 C 4,8 km/h (1 Bft) 98,00 %
20.07.2017 02:22 16,8 C 25,0 C 83 % 1009,8 hPa 0,0 l/m 0,5 km/h (0 Bft) S-SW 203 0 min 0,000 mm 0,0 UV-I 0 W/m 13,9 C 16,8 C 1,6 km/h (1 Bft) 97,87 %
20.07.2017 02:24 16,8 C 25,0 C 83 % 1009,8 hPa 0,0 l/m 0,0 km/h (0 Bft) S-SW 203 0 min 0,000 mm 0,0 UV-I 0 W/m 13,9 C 16,8 C 0,0 km/h (0 Bft) 95,74 %
20.07.2017 02:26 16,7 C 25,0 C 83 % 1009,9 hPa 0,0 l/m 2,2 km/h (1 Bft) S-SW 203 0 min 0,000 mm 0,0 UV-I 0 W/m 13,8 C 16,7 C 4,8 km/h (1 Bft) 93,62 %
20.07.2017 02:28 16,8 C 25,0 C 83 % 1009,9 hPa 0,0 l/m 4,0 km/h (1 Bft) S-SW 203 0 min 0,000 mm 0,0 UV-I 0 W/m 13,9 C 16,8 C 4,8 km/h (1 Bft) 89,36 %
20.07.2017 02:30 16,8 C 25,0 C 83 % 1009,8 hPa 0,0 l/m 3,1 km/h (1 Bft) S-SW 203 0 min 0,000 mm 0,0 UV-I 0 W/m 13,9 C 16,8 C 4,8 km/h (1 Bft) 91,49 %
20.07.2017 02:32 16,9 C 25,0 C 83 % 1009,8 hPa 0,0 l/m 2,6 km/h (1 Bft) S-SW 203 0 min 0,000 mm 0,0 UV-I 0 W/m 14,0 C 16,9 C 4,8 km/h (1 Bft) 93,62 %
20.07.2017 02:34 16,8 C 25,0 C 82 % 1009,8 hPa 0,0 l/m 0,3 km/h (0 Bft) S-SW 203 0 min 0,000 mm 0,0 UV-I 0 W/m 13,7 C 16,8 C 3,2 km/h (1 Bft) 89,36 %
20.07.2017 02:36 16,8 C 25,0 C 83 % 1009,8 hPa 0,0 l/m 1,6 km/h (1 Bft) S-SW 203 0 min 0,000 mm 0,0 UV-I 0 W/m 13,9 C 16,8 C 3,2 km/h (1 Bft) 91,49 %
20.07.2017 02:38 16,7 C 25,0 C 83 % 1009,9 hPa 0,0 l/m 2,7 km/h (1 Bft) S-SW 203 0 min 0,000 mm 0,0 UV-I 0 W/m 13,8 C 16,7 C 4,8 km/h (1 Bft) 89,36 %
20.07.2017 02:40 16,8 C 25,0 C 84 % 1010,0 hPa 0,0 l/m 3,1 km/h (1 Bft) S-SW 203 0 min 0,000 mm 0,0 UV-I 0 W/m 14,1 C 16,8 C 4,8 km/h (1 Bft) 91,49 %
20.07.2017 02:42 16,7 C 25,0 C 83 % 1010,0 hPa 0,0 l/m 3,8 km/h (1 Bft) S-SW 203 0 min 0,000 mm 0,0 UV-I 0 W/m 13,8 C 16,7 C 6,4 km/h (2 Bft) 93,75 %
20.07.2017 02:44 16,7 C 25,0 C 84 % 1010,1 hPa 0,0 l/m 4,0 km/h (1 Bft) S-SW 203 0 min 0,000 mm 0,0 UV-I 0 W/m 14,0 C 16,7 C 4,8 km/h (1 Bft) 93,62 %
20.07.2017 02:46 16,7 C 25,0 C 84 % 1010,0 hPa 0,0 l/m 1,3 km/h (1 Bft) S-SW 203 0 min 0,000 mm 0,0 UV-I 0 W/m 14,0 C 16,7 C 3,2 km/h (1 Bft) 89,36 %
20.07.2017 02:48 16,6 C 25,0 C 84 % 1009,9 hPa 0,0 l/m 0,2 km/h (0 Bft) S-SW 203 0 min 0,000 mm 0,0 UV-I 0 W/m 13,9 C 16,6 C 1,6 km/h (1 Bft) 93,75 %
20.07.2017 02:50 16,6 C 25,0 C 84 % 1010,0 hPa 0,0 l/m 0,9 km/h (0 Bft) S-SW 203 0 min 0,000 mm 0,0 UV-I 0 W/m 13,9 C 16,6 C 3,2 km/h (1 Bft) 93,62 %
20.07.2017 02:52 16,6 C 25,0 C 84 % 1010,1 hPa 0,0 l/m 0,0 km/h (0 Bft) S-SW 203 0 min 0,000 mm 0,0 UV-I 0 W/m 13,9 C 16,6 C 1,6 km/h (1 Bft) 92,11 %
20.07.2017 02:54 16,5 C 25,0 C 84 % 1010,2 hPa 0,0 l/m 4,0 km/h (1 Bft) S-SW 204 0 min 0,000 mm 0,0 UV-I 0 W/m 13,8 C 16,5 C 6,4 km/h (2 Bft) 91,49 %
20.07.2017 02:56 16,5 C 25,0 C 84 % 1010,5 hPa 0,0 l/m 6,7 km/h (2 Bft) W-SW 244 0 min 0,000 mm 0,0 UV-I 0 W/m 13,8 C 16,4 C 8,0 km/h (2 Bft) 91,49 %
20.07.2017 02:58 16,3 C 25,0 C 84 % 1010,8 hPa 0,0 l/m 9,1 km/h (2 Bft) W-SW 248 0 min 0,000 mm 0,0 UV-I 0 W/m 13,6 C 14,9 C 14,5 km/h (3 Bft) 94,00 %
20.07.2017 03:00 16,3 C 25,0 C 85 % 1010,9 hPa 0,0 l/m 16,5 km/h (3 Bft) W-SW 246 0 min 0,000 mm 0,0 UV-I 0 W/m 13,8 C 12,3 C 24,1 km/h (4 Bft) 92,00 %
20.07.2017 03:02 16,4 C 25,0 C 86 % 1010,7 hPa 0,0 l/m 9,0 km/h (2 Bft) W-NW 284 0 min 0,000 mm 0,0 UV-I 0 W/m 14,1 C 15,1 C 16,1 km/h (3 Bft) 94,00 %
20.07.2017 03:04 16,5 C 25,0 C 85 % 1010,7 hPa 0,0 l/m 5,7 km/h (1 Bft) W-SW 240 0 min 0,000 mm 0,0 UV-I 0 W/m 14,0 C 16,5 C 11,3 km/h (2 Bft) 93,62 %
20.07.2017 03:06 16,6 C 25,0 C 85 % 1010,5 hPa 0,0 l/m 4,1 km/h (1 Bft) W 261 0 min 0,000 mm 0,0 UV-I 0 W/m 14,1 C 16,6 C 6,4 km/h (2 Bft) 95,74 %
20.07.2017 03:08 16,7 C 25,0 C 84 % 1010,5 hPa 0,0 l/m 1,1 km/h (1 Bft) W 271 0 min 0,000 mm 0,0 UV-I 0 W/m 14,0 C 16,7 C 3,2 km/h (1 Bft) 97,87 %
20.07.2017 03:10 16,7 C 25,0 C 84 % 1010,7 hPa 0,0 l/m 2,8 km/h (1 Bft) W-SW 257 0 min 0,000 mm 0,0 UV-I 0 W/m 14,0 C 16,7 C 4,8 km/h (1 Bft) 94,29 %
20.07.2017 03:12 16,8 C 25,0 C 84 % 1010,6 hPa 0,0 l/m 1,7 km/h (1 Bft) W-SW 240 0 min 0,000 mm 0,0 UV-I 0 W/m 14,1 C 16,8 C 4,8 km/h (1 Bft) 98,00 %
20.07.2017 03:14 16,9 C 25,0 C 83 % 1010,6 hPa 0,0 l/m 1,2 km/h (1 Bft) W-SW 240 0 min 0,000 mm 0,0 UV-I 0 W/m 14,0 C 16,9 C 3,2 km/h (1 Bft) 92,00 %
20.07.2017 03:16 16,9 C 25,0 C 83 % 1010,5 hPa 0,0 l/m 0,9 km/h (0 Bft) W-SW 240 0 min 0,000 mm 0,0 UV-I 0 W/m 14,0 C 16,9 C 3,2 km/h (1 Bft) 95,74 %
20.07.2017 03:18 16,9 C 25,0 C 83 % 1010,3 hPa 0,0 l/m 4,5 km/h (1 Bft) O 97 0 min 0,000 mm 0,0 UV-I 0 W/m 14,0 C 16,9 C 6,4 km/h (2 Bft) 96,00 %
20.07.2017 03:20 16,9 C 25,0 C 83 % 1010,2 hPa 0,0 l/m 5,9 km/h (2 Bft) O-NO 78 0 min 0,000 mm 0,0 UV-I 0 W/m 14,0 C 16,9 C 9,7 km/h (2 Bft) 95,74 %
20.07.2017 03:22 16,9 C 25,0 C 83 % 1010,4 hPa 0,0 l/m 1,8 km/h (1 Bft) O-NO 60 0 min 0,000 mm 0,0 UV-I 0 W/m 14,0 C 16,9 C 6,4 km/h (2 Bft) 93,62 %
20.07.2017 03:24 16,9 C 25,0 C 83 % 1010,3 hPa 0,0 l/m 0,0 km/h (0 Bft) O-NO 60 0 min 0,000 mm 0,0 UV-I 0 W/m 14,0 C 16,9 C 0,0 km/h (0 Bft) 93,62 %
20.07.2017 03:26 16,9 C 25,0 C 83 % 1010,2 hPa 0,0 l/m 0,0 km/h (0 Bft) O-NO 60 0 min 0,000 mm 0,0 UV-I 0 W/m 14,0 C 16,9 C 0,0 km/h (0 Bft) 97,87 %
20.07.2017 03:28 16,9 C 25,0 C 83 % 1010,2 hPa 0,0 l/m 0,0 km/h (0 Bft) O-NO 60 0 min 0,000 mm 0,0 UV-I 0 W/m 14,0 C 16,9 C 0,0 km/h (0 Bft) 93,75 %
20.07.2017 03:30 16,9 C 25,0 C 83 % 1010,2 hPa 0,0 l/m 1,6 km/h (1 Bft) O-NO 60 0 min 0,000 mm 0,0 UV-I 0 W/m 14,0 C 16,9 C 3,2 km/h (1 Bft) 97,87 %
20.07.2017 03:32 16,9 C 25,0 C 83 % 1010,2 hPa 0,0 l/m 2,0 km/h (1 Bft) O-NO 60 0 min 0,000 mm 0,0 UV-I 0 W/m 14,0 C 16,9 C 3,2 km/h (1 Bft) 97,87 %
20.07.2017 03:34 16,8 C 25,0 C 83 % 1010,3 hPa 0,0 l/m 0,3 km/h (0 Bft) O-NO 60 0 min 0,000 mm 0,0 UV-I 0 W/m 13,9 C 16,8 C 1,6 km/h (1 Bft) 97,87 %
20.07.2017 03:36 16,7 C 25,0 C 83 % 1010,4 hPa 0,0 l/m 0,0 km/h (0 Bft) O-NO 60 0 min 0,000 mm 0,0 UV-I 0 W/m 13,8 C 16,7 C 0,0 km/h (0 Bft) 97,87 %
20.07.2017 03:38 16,7 C 25,0 C 84 % 1010,4 hPa 0,0 l/m 2,5 km/h (1 Bft) O-SO 111 0 min 0,000 mm 0,0 UV-I 0 W/m 14,0 C 16,7 C 4,8 km/h (1 Bft) 97,87 %
20.07.2017 03:40 16,6 C 25,0 C 84 % 1010,4 hPa 0,0 l/m 1,8 km/h (1 Bft) S-SO 167 0 min 0,000 mm 0,0 UV-I 0 W/m 13,9 C 16,6 C 8,0 km/h (2 Bft) 91,43 %
20.07.2017 03:42 16,6 C 25,0 C 84 % 1010,5 hPa 0,0 l/m 6,4 km/h (2 Bft) S-SO 154 0 min 0,000 mm 0,0 UV-I 0 W/m 13,9 C 16,6 C 9,7 km/h (2 Bft) 100,00 %
20.07.2017 03:44 16,6 C 25,0 C 84 % 1010,7 hPa 0,0 l/m 7,6 km/h (2 Bft) SW 221 0 min 0,000 mm 0,0 UV-I 0 W/m 13,9 C 16,0 C 17,7 km/h (3 Bft) 97,87 %
20.07.2017 03:46 16,6 C 25,0 C 85 % 1010,6 hPa 0,0 l/m 10,6 km/h (2 Bft) S-SO 157 0 min 0,000 mm 0,0 UV-I 0 W/m 14,1 C 14,6 C 17,7 km/h (3 Bft) 97,87 %
20.07.2017 03:48 16,6 C 25,0 C 85 % 1010,5 hPa 0,0 l/m 5,8 km/h (2 Bft) S 181 0 min 0,000 mm 0,0 UV-I 0 W/m 14,1 C 16,6 C 11,3 km/h (2 Bft) 98,31 %
20.07.2017 03:50 16,7 C 25,0 C 85 % 1010,6 hPa 0,0 l/m 4,9 km/h (1 Bft) S 189 0 min 0,000 mm 0,0 UV-I 0 W/m 14,2 C 16,7 C 8,0 km/h (2 Bft) 97,14 %
20.07.2017 03:52 16,7 C 25,0 C 85 % 1010,6 hPa 0,0 l/m 2,9 km/h (1 Bft) S 190 0 min 0,000 mm 0,0 UV-I 0 W/m 14,2 C 16,7 C 6,4 km/h (2 Bft) 98,00 %
20.07.2017 03:54 16,8 C 25,0 C 84 % 1010,6 hPa 0,0 l/m 3,4 km/h (1 Bft) S 184 0 min 0,000 mm 0,0 UV-I 0 W/m 14,1 C 16,8 C 6,4 km/h (2 Bft) 95,74 %
20.07.2017 03:56 16,9 C 25,0 C 84 % 1010,6 hPa 0,0 l/m 2,6 km/h (1 Bft) S 184 0 min 0,000 mm 0,0 UV-I 0 W/m 14,2 C 16,9 C 4,8 km/h (1 Bft) 98,00 %
20.07.2017 03:58 16,9 C 25,0 C 84 % 1010,7 hPa 0,0 l/m 3,0 km/h (1 Bft) S 184 0 min 0,000 mm 0,0 UV-I 0 W/m 14,2 C 16,9 C 4,8 km/h (1 Bft) 97,87 %
20.07.2017 04:00 16,9 C 25,0 C 84 % 1010,7 hPa 0,0 l/m 2,9 km/h (1 Bft) S 184 0 min 0,000 mm 0,0 UV-I 0 W/m 14,2 C 16,9 C 4,8 km/h (1 Bft) 97,87 %
20.07.2017 04:02 16,9 C 25,0 C 83 % 1010,8 hPa 0,0 l/m 1,9 km/h (1 Bft) S 184 0 min 0,000 mm 0,0 UV-I 0 W/m 14,0 C 16,9 C 4,8 km/h (1 Bft) 97,22 %
20.07.2017 04:04 16,9 C 25,0 C 84 % 1010,8 hPa 0,0 l/m 2,8 km/h (1 Bft) S 184 0 min 0,000 mm 0,0 UV-I 0 W/m 14,2 C 16,9 C 4,8 km/h (1 Bft) 97,87 %
20.07.2017 04:06 16,9 C 25,0 C 83 % 1010,8 hPa 0,0 l/m 0,3 km/h (0 Bft) S 184 0 min 0,000 mm 0,0 UV-I 0 W/m 14,0 C 16,9 C 1,6 km/h (1 Bft) 97,92 %
20.07.2017 04:08 16,8 C 25,0 C 84 % 1010,7 hPa 0,0 l/m 0,1 km/h (0 Bft) S 184 0 min 0,000 mm 0,0 UV-I 0 W/m 14,1 C 16,8 C 1,6 km/h (1 Bft) 91,49 %
20.07.2017 04:10 16,8 C 25,0 C 84 % 1010,7 hPa 0,0 l/m 0,0 km/h (0 Bft) S 184 0 min 0,000 mm 0,0 UV-I 0 W/m 14,1 C 16,8 C 0,0 km/h (0 Bft) 95,74 %
20.07.2017 04:12 16,8 C 25,0 C 84 % 1010,7 hPa 0,0 l/m 0,0 km/h (0 Bft) S 184 0 min 0,000 mm 0,0 UV-I 0 W/m 14,1 C 16,8 C 0,0 km/h (0 Bft) 97,87 %
20.07.2017 04:14 16,8 C 25,0 C 84 % 1010,7 hPa 0,0 l/m 0,0 km/h (0 Bft) S 184 0 min 0,000 mm 0,0 UV-I 0 W/m 14,1 C 16,8 C 1,6 km/h (1 Bft) 97,87 %
20.07.2017 04:16 16,8 C 25,0 C 84 % 1010,7 hPa 0,0 l/m 0,2 km/h (0 Bft) S 184 0 min 0,000 mm 0,0 UV-I 0 W/m 14,1 C 16,8 C 1,6 km/h (1 Bft) 97,92 %
20.07.2017 04:18 16,8 C 25,0 C 84 % 1010,6 hPa 0,0 l/m 0,9 km/h (0 Bft) S 184 0 min 0,000 mm 0,0 UV-I 0 W/m 14,1 C 16,8 C 3,2 km/h (1 Bft) 97,37 %
20.07.2017 04:20 16,8 C 25,0 C 84 % 1010,6 hPa 0,0 l/m 3,5 km/h (1 Bft) W 271 0 min 0,000 mm 0,0 UV-I 0 W/m 14,1 C 16,8 C 4,8 km/h (1 Bft) 97,87 %
20.07.2017 04:22 16,9 C 25,0 C 84 % 1010,5 hPa 0,0 l/m 2,7 km/h (1 Bft) W 274 0 min 0,000 mm 0,0 UV-I 0 W/m 14,2 C 16,9 C 6,4 km/h (2 Bft) 95,74 %
20.07.2017 04:24 16,9 C 25,0 C 83 % 1010,5 hPa 0,0 l/m 2,2 km/h (1 Bft) W 274 0 min 0,000 mm 0,0 UV-I 0 W/m 14,0 C 16,9 C 4,8 km/h (1 Bft) 96,00 %
20.07.2017 04:26 16,9 C 25,0 C 83 % 1010,5 hPa 0,0 l/m 0,4 km/h (0 Bft) W 274 0 min 0,000 mm 0,0 UV-I 0 W/m 14,0 C 16,9 C 1,6 km/h (1 Bft) 100,00 %
20.07.2017 04:28 17,0 C 25,0 C 83 % 1010,6 hPa 0,0 l/m 0,0 km/h (0 Bft) W 274 0 min 0,000 mm 0,0 UV-I 0 W/m 14,1 C 17,0 C 0,0 km/h (0 Bft) 95,74 %
20.07.2017 04:30 17,0 C 25,0 C 83 % 1010,5 hPa 0,0 l/m 0,2 km/h (0 Bft) W-SW 255 0 min 0,000 mm 0,0 UV-I 0 W/m 14,1 C 17,0 C 1,6 km/h (1 Bft) 95,74 %
20.07.2017 04:32 16,9 C 25,0 C 83 % 1010,5 hPa 0,0 l/m 1,5 km/h (1 Bft) W-SW 255 0 min 0,000 mm 0,0 UV-I 0 W/m 14,0 C 16,9 C 3,2 km/h (1 Bft) 95,74 %
20.07.2017 04:34 16,9 C 25,0 C 83 % 1010,6 hPa 0,0 l/m 1,6 km/h (1 Bft) W-SW 242 0 min 0,000 mm 0,0 UV-I 0 W/m 14,0 C 16,9 C 4,8 km/h (1 Bft) 95,74 %
20.07.2017 04:36 16,8 C 25,0 C 83 % 1010,6 hPa 0,0 l/m 1,9 km/h (1 Bft) SW 225 0 min 0,000 mm 0,0 UV-I 0 W/m 13,9 C 16,8 C 4,8 km/h (1 Bft) 93,62 %
20.07.2017 04:38 16,8 C 25,0 C 84 % 1010,6 hPa 0,0 l/m 2,9 km/h (1 Bft) S 186 0 min 0,000 mm 0,0 UV-I 0 W/m 14,1 C 16,8 C 4,8 km/h (1 Bft) 95,74 %
20.07.2017 04:40 16,8 C 24,4 C 84 % 1010,6 hPa 0,0 l/m 2,1 km/h (1 Bft) S 186 0 min 0,000 mm 0,0 UV-I 0 W/m 14,1 C 16,8 C 4,8 km/h (1 Bft) 93,62 %
20.07.2017 04:42 16,6 C 25,0 C 83 % 1010,6 hPa 0,0 l/m 1,1 km/h (1 Bft) S 186 0 min 0,000 mm 0,0 UV-I 0 W/m 13,7 C 16,6 C 3,2 km/h (1 Bft) 94,00 %
20.07.2017 04:44 16,5 C 25,0 C 84 % 1010,5 hPa 0,0 l/m 2,6 km/h (1 Bft) S 186 0 min 0,000 mm 0,0 UV-I 0 W/m 13,8 C 16,5 C 4,8 km/h (1 Bft) 94,87 %
20.07.2017 04:46 16,4 C 25,0 C 84 % 1010,4 hPa 0,0 l/m 1,3 km/h (1 Bft) S 186 0 min 0,000 mm 0,0 UV-I 0 W/m 13,7 C 16,4 C 3,2 km/h (1 Bft) 95,74 %
20.07.2017 04:48 16,4 C 24,4 C 85 % 1010,2 hPa 0,0 l/m 3,4 km/h (1 Bft) SO 138 0 min 0,000 mm 0,0 UV-I 0 W/m 13,9 C 16,4 C 8,0 km/h (2 Bft) 95,74 %
20.07.2017 04:50 16,3 C 24,4 C 85 % 1010,3 hPa 0,0 l/m 5,0 km/h (1 Bft) SO 137 0 min 0,000 mm 0,0 UV-I 0 W/m 13,8 C 16,3 C 8,0 km/h (2 Bft) 93,62 %
20.07.2017 04:52 16,4 C 24,4 C 85 % 1010,3 hPa 0,0 l/m 0,9 km/h (0 Bft) SO 138 0 min 0,000 mm 0,0 UV-I 0 W/m 13,9 C 16,4 C 4,8 km/h (1 Bft) 95,74 %
20.07.2017 04:54 16,4 C 24,4 C 85 % 1010,3 hPa 0,0 l/m 2,1 km/h (1 Bft) SO 138 0 min 0,000 mm 0,0 UV-I 0 W/m 13,9 C 16,4 C 4,8 km/h (1 Bft) 94,00 %
20.07.2017 04:56 16,5 C 24,4 C 85 % 1010,3 hPa 0,0 l/m 2,2 km/h (1 Bft) SO 142 0 min 0,000 mm 0,0 UV-I 0 W/m 14,0 C 16,5 C 4,8 km/h (1 Bft) 95,74 %
20.07.2017 04:58 16,6 C 24,4 C 85 % 1010,4 hPa 0,0 l/m 0,3 km/h (0 Bft) SO 142 0 min 0,000 mm 0,0 UV-I 0 W/m 14,1 C 16,6 C 3,2 km/h (1 Bft) 94,00 %
20.07.2017 05:00 16,6 C 24,4 C 85 % 1010,4 hPa 0,0 l/m 2,2 km/h (1 Bft) SO 142 0 min 0,000 mm 0,0 UV-I 0 W/m 14,1 C 16,6 C 3,2 km/h (1 Bft) 95,74 %
20.07.2017 05:02 16,6 C 24,4 C 84 % 1010,4 hPa 0,0 l/m 2,6 km/h (1 Bft) S-SO 160 0 min 0,000 mm 0,0 UV-I 0 W/m 13,9 C 16,6 C 6,4 km/h (2 Bft) 95,83 %
20.07.2017 05:04 16,6 C 24,4 C 84 % 1010,3 hPa 0,0 l/m 1,0 km/h (0 Bft) S-SO 160 0 min 0,000 mm 0,0 UV-I 0 W/m 13,9 C 16,6 C 3,2 km/h (1 Bft) 87,23 %
20.07.2017 05:06 16,6 C 24,4 C 84 % 1010,3 hPa 0,0 l/m 1,7 km/h (1 Bft) S-SO 160 0 min 0,000 mm 0,0 UV-I 0 W/m 13,9 C 16,6 C 3,2 km/h (1 Bft) 93,62 %
20.07.2017 05:08 16,5 C 24,4 C 84 % 1010,2 hPa 0,0 l/m 2,5 km/h (1 Bft) S-SO 160 0 min 0,000 mm 0,0 UV-I 0 W/m 13,8 C 16,5 C 6,4 km/h (2 Bft) 97,37 %
20.07.2017 05:10 16,4 C 24,4 C 85 % 1010,2 hPa 0,0 l/m 5,2 km/h (1 Bft) S-SO 159 0 min 0,000 mm 0,0 UV-I 0 W/m 13,9 C 16,4 C 6,4 km/h (2 Bft) 95,74 %
20.07.2017 05:12 16,5 C 24,4 C 85 % 1010,2 hPa 0,0 l/m 4,7 km/h (1 Bft) S-SO 159 0 min 0,000 mm 0,0 UV-I 0 W/m 14,0 C 16,5 C 8,0 km/h (2 Bft) 97,92 %
20.07.2017 05:14 16,5 C 24,4 C 84 % 1010,2 hPa 0,0 l/m 0,1 km/h (0 Bft) S-SO 159 0 min 0,000 mm 0,0 UV-I 2 W/m 13,8 C 16,5 C 1,6 km/h (1 Bft) 97,87 %
20.07.2017 05:16 16,5 C 24,4 C 84 % 1010,2 hPa 0,0 l/m 2,6 km/h (1 Bft) S-SO 160 0 min 0,000 mm 0,0 UV-I 5 W/m 13,8 C 16,5 C 6,4 km/h (2 Bft) 97,87 %
20.07.2017 05:18 16,5 C 24,4 C 85 % 1010,3 hPa 0,0 l/m 2,8 km/h (1 Bft) S-SO 160 0 min 0,000 mm 0,0 UV-I 5 W/m 14,0 C 16,5 C 6,4 km/h (2 Bft) 90,00 %
20.07.2017 05:20 16,4 C 24,4 C 85 % 1010,4 hPa 0,0 l/m 3,0 km/h (1 Bft) S-SO 160 0 min 0,000 mm 0,0 UV-I 5 W/m 13,9 C 16,4 C 6,4 km/h (2 Bft) 95,74 %
20.07.2017 05:22 16,4 C 24,4 C 85 % 1010,5 hPa 0,0 l/m 2,1 km/h (1 Bft) S-SO 160 0 min 0,000 mm 0,0 UV-I 5 W/m 13,9 C 16,4 C 3,2 km/h (1 Bft) 95,74 %
20.07.2017 05:24 16,2 C 24,4 C 85 % 1010,4 hPa 0,0 l/m 1,4 km/h (1 Bft) S-SO 160 0 min 0,000 mm 0,0 UV-I 5 W/m 13,7 C 16,2 C 3,2 km/h (1 Bft) 95,83 %
20.07.2017 05:26 16,2 C 24,4 C 85 % 1010,4 hPa 0,0 l/m 0,4 km/h (0 Bft) S-SO 160 0 min 0,000 mm 0,0 UV-I 6 W/m 13,7 C 16,2 C 1,6 km/h (1 Bft) 93,62 %
20.07.2017 05:28 16,1 C 24,4 C 86 % 1010,5 hPa 0,0 l/m 1,9 km/h (1 Bft) S-SO 160 0 min 0,000 mm 0,0 UV-I 7 W/m 13,8 C 16,1 C 3,2 km/h (1 Bft) 97,87 %
20.07.2017 05:30 16,1 C 24,4 C 86 % 1010,5 hPa 0,0 l/m 2,2 km/h (1 Bft) S-SO 160 0 min 0,000 mm 0,0 UV-I 7 W/m 13,8 C 16,1 C 6,4 km/h (2 Bft) 97,87 %
20.07.2017 05:32 16,1 C 24,4 C 86 % 1010,5 hPa 0,0 l/m 1,6 km/h (1 Bft) S-SO 160 0 min 0,000 mm 0,0 UV-I 7 W/m 13,8 C 16,1 C 3,2 km/h (1 Bft) 95,74 %
20.07.2017 05:34 16,2 C 24,4 C 86 % 1010,5 hPa 0,0 l/m 2,1 km/h (1 Bft) S-SO 160 0 min 0,000 mm 0,0 UV-I 8 W/m 13,9 C 16,2 C 6,4 km/h (2 Bft) 97,87 %
20.07.2017 05:36 16,2 C 24,4 C 86 % 1010,5 hPa 0,0 l/m 1,7 km/h (1 Bft) S-SO 160 0 min 0,000 mm 0,0 UV-I 9 W/m 13,9 C 16,2 C 3,2 km/h (1 Bft) 95,74 %
20.07.2017 05:38 16,3 C 24,4 C 86 % 1010,6 hPa 0,0 l/m 3,4 km/h (1 Bft) S 188 2 min 0,000 mm 0,0 UV-I 11 W/m 14,0 C 16,3 C 8,0 km/h (2 Bft) 97,87 %
20.07.2017 05:40 16,4 C 24,4 C 86 % 1010,7 hPa 0,0 l/m 3,4 km/h (1 Bft) S-SW 192 0 min 0,000 mm 0,0 UV-I 12 W/m 14,1 C 16,4 C 6,4 km/h (2 Bft) 97,37 %
20.07.2017 05:42 16,4 C 24,4 C 85 % 1010,8 hPa 0,0 l/m 4,0 km/h (1 Bft) S-SW 192 0 min 0,000 mm 0,0 UV-I 13 W/m 13,9 C 16,4 C 6,4 km/h (2 Bft) 97,87 %
20.07.2017 05:44 16,4 C 24,4 C 85 % 1010,8 hPa 0,0 l/m 4,2 km/h (1 Bft) S-SW 194 0 min 0,000 mm 0,0 UV-I 14 W/m 13,9 C 16,4 C 6,4 km/h (2 Bft) 97,87 %
20.07.2017 05:46 16,3 C 24,4 C 85 % 1010,8 hPa 0,0 l/m 3,3 km/h (1 Bft) S 182 0 min 0,000 mm 0,0 UV-I 15 W/m 13,8 C 16,3 C 4,8 km/h (1 Bft) 97,87 %
20.07.2017 05:48 16,2 C 24,4 C 85 % 1010,9 hPa 0,0 l/m 3,4 km/h (1 Bft) S 178 0 min 0,000 mm 0,0 UV-I 18 W/m 13,7 C 16,2 C 6,4 km/h (2 Bft) 97,87 %
20.07.2017 05:50 16,2 C 24,4 C 86 % 1010,9 hPa 0,0 l/m 4,1 km/h (1 Bft) S 177 0 min 0,000 mm 0,0 UV-I 21 W/m 13,9 C 16,2 C 6,4 km/h (2 Bft) 95,74 %
20.07.2017 05:52 16,3 C 24,4 C 86 % 1010,9 hPa 0,0 l/m 4,1 km/h (1 Bft) S 178 0 min 0,000 mm 0,0 UV-I 23 W/m 14,0 C 16,3 C 6,4 km/h (2 Bft) 100,00 %
20.07.2017 05:54 16,4 C 24,4 C 86 % 1010,9 hPa 0,0 l/m 2,2 km/h (1 Bft) S 179 0 min 0,000 mm 0,0 UV-I 26 W/m 14,1 C 16,4 C 6,4 km/h (2 Bft) 96,00 %
20.07.2017 05:56 16,6 C 24,4 C 86 % 1010,9 hPa 0,0 l/m 1,3 km/h (1 Bft) S 179 0 min 0,000 mm 0,0 UV-I 31 W/m 14,2 C 16,6 C 4,8 km/h (1 Bft) 95,74 %
20.07.2017 05:58 16,7 C 24,4 C 85 % 1011,0 hPa 0,0 l/m 3,2 km/h (1 Bft) S 180 0 min 0,000 mm 0,0 UV-I 34 W/m 14,2 C 16,7 C 6,4 km/h (2 Bft) 97,87 %
20.07.2017 06:00 16,7 C 24,4 C 85 % 1011,0 hPa 0,0 l/m 4,3 km/h (1 Bft) S-SW 207 0 min 0,000 mm 0,0 UV-I 36 W/m 14,2 C 16,7 C 6,4 km/h (2 Bft) 100,00 %
20.07.2017 06:02 16,8 C 24,4 C 85 % 1011,0 hPa 0,0 l/m 3,5 km/h (1 Bft) S-SW 205 0 min 0,026 mm 0,0 UV-I 40 W/m 14,3 C 16,8 C 6,4 km/h (2 Bft) 92,00 %
20.07.2017 06:04 16,9 C 24,4 C 85 % 1011,0 hPa 0,0 l/m 1,2 km/h (1 Bft) S-SW 204 0 min 0,000 mm 0,0 UV-I 38 W/m 14,4 C 16,9 C 3,2 km/h (1 Bft) 100,00 %
20.07.2017 06:06 16,9 C 24,4 C 84 % 1011,1 hPa 0,0 l/m 1,2 km/h (1 Bft) S-SW 203 0 min 0,000 mm 0,0 UV-I 33 W/m 14,2 C 16,9 C 3,2 km/h (1 Bft) 97,37 %
20.07.2017 06:08 16,9 C 24,4 C 84 % 1011,1 hPa 0,0 l/m 1,8 km/h (1 Bft) S-SW 203 0 min 0,000 mm 0,0 UV-I 39 W/m 14,2 C 16,9 C 3,2 km/h (1 Bft) 95,74 %
20.07.2017 06:10 17,0 C 24,4 C 84 % 1011,1 hPa 0,0 l/m 1,5 km/h (1 Bft) S-SW 203 0 min 0,000 mm 0,0 UV-I 48 W/m 14,3 C 17,0 C 4,8 km/h (1 Bft) 96,00 %
20.07.2017 06:12 17,1 C 24,4 C 84 % 1011,1 hPa 0,0 l/m 2,2 km/h (1 Bft) S-SW 203 0 min 0,000 mm 0,0 UV-I 52 W/m 14,4 C 17,1 C 4,8 km/h (1 Bft) 95,74 %
20.07.2017 06:14 17,1 C 24,4 C 84 % 1011,2 hPa 0,0 l/m 1,7 km/h (1 Bft) S-SW 203 0 min 0,000 mm 0,0 UV-I 60 W/m 14,4 C 17,1 C 4,8 km/h (1 Bft) 93,62 %
20.07.2017 06:16 17,2 C 24,4 C 84 % 1011,2 hPa 0,0 l/m 1,2 km/h (1 Bft) S-SW 203 2 min 0,000 mm 0,0 UV-I 65 W/m 14,5 C 17,2 C 3,2 km/h (1 Bft) 93,62 %
20.07.2017 06:18 17,2 C 24,4 C 84 % 1011,2 hPa 0,0 l/m 1,0 km/h (0 Bft) S-SW 203 2 min 0,000 mm 0,0 UV-I 69 W/m 14,5 C 17,2 C 1,6 km/h (1 Bft) 96,23 %
20.07.2017 06:20 17,2 C 24,4 C 84 % 1011,2 hPa 0,0 l/m 2,4 km/h (1 Bft) S-SW 203 0 min 0,000 mm 0,0 UV-I 63 W/m 14,5 C 17,2 C 3,2 km/h (1 Bft) 95,74 %
20.07.2017 06:22 17,3 C 24,4 C 83 % 1011,2 hPa 0,0 l/m 3,0 km/h (1 Bft) S-SW 203 0 min 0,000 mm 0,0 UV-I 54 W/m 14,4 C 17,3 C 4,8 km/h (1 Bft) 94,74 %
20.07.2017 06:24 17,3 C 24,4 C 83 % 1011,2 hPa 0,0 l/m 3,1 km/h (1 Bft) S-SW 203 0 min 0,000 mm 0,0 UV-I 53 W/m 14,4 C 17,3 C 4,8 km/h (1 Bft) 100,00 %
20.07.2017 06:26 17,3 C 24,4 C 83 % 1011,2 hPa 0,0 l/m 4,3 km/h (1 Bft) S-SW 203 0 min 0,000 mm 0,0 UV-I 55 W/m 14,4 C 17,3 C 6,4 km/h (2 Bft) 95,74 %
20.07.2017 06:28 17,3 C 24,4 C 83 % 1011,3 hPa 0,0 l/m 4,2 km/h (1 Bft) S-SW 204 0 min 0,000 mm 0,0 UV-I 70 W/m 14,4 C 17,3 C 6,4 km/h (2 Bft) 95,74 %
20.07.2017 06:30 17,2 C 24,4 C 83 % 1011,3 hPa 0,0 l/m 3,6 km/h (1 Bft) S-SW 203 2 min 0,000 mm 0,0 UV-I 87 W/m 14,3 C 17,2 C 6,4 km/h (2 Bft) 95,74 %
20.07.2017 06:32 17,2 C 24,4 C 83 % 1011,2 hPa 0,0 l/m 2,0 km/h (1 Bft) S-SW 203 0 min 0,000 mm 0,0 UV-I 73 W/m 14,3 C 17,2 C 4,8 km/h (1 Bft) 89,36 %
20.07.2017 06:34 17,2 C 24,4 C 84 % 1011,2 hPa 0,0 l/m 2,1 km/h (1 Bft) S-SW 203 0 min 0,000 mm 0,0 UV-I 69 W/m 14,5 C 17,2 C 4,8 km/h (1 Bft) 91,49 %
20.07.2017 06:36 17,3 C 24,4 C 84 % 1011,2 hPa 0,0 l/m 4,4 km/h (1 Bft) S-SW 203 0 min 0,000 mm 0,0 UV-I 74 W/m 14,6 C 17,3 C 8,0 km/h (2 Bft) 89,36 %
20.07.2017 06:38 17,3 C 24,4 C 84 % 1011,2 hPa 0,0 l/m 2,1 km/h (1 Bft) S-SW 203 0 min 0,000 mm 0,0 UV-I 84 W/m 14,6 C 17,3 C 4,8 km/h (1 Bft) 91,67 %
20.07.2017 06:40 17,4 C 24,4 C 83 % 1011,3 hPa 0,0 l/m 3,8 km/h (1 Bft) S-SW 203 0 min 0,000 mm 0,0 UV-I 88 W/m 14,5 C 17,4 C 4,8 km/h (1 Bft) 93,75 %
20.07.2017 06:42 17,6 C 24,4 C 83 % 1011,2 hPa 0,0 l/m 4,0 km/h (1 Bft) S-SW 203 0 min 0,000 mm 0,0 UV-I 90 W/m 14,7 C 17,6 C 4,8 km/h (1 Bft) 93,62 %
20.07.2017 06:44 17,6 C 24,4 C 83 % 1011,2 hPa 0,0 l/m 3,8 km/h (1 Bft) S-SW 203 0 min 0,000 mm 0,0 UV-I 87 W/m 14,7 C 17,6 C 6,4 km/h (2 Bft) 93,62 %
20.07.2017 06:46 17,7 C 24,4 C 82 % 1011,2 hPa 0,0 l/m 0,6 km/h (0 Bft) S-SW 203 0 min 0,000 mm 0,0 UV-I 72 W/m 14,6 C 17,7 C 3,2 km/h (1 Bft) 91,49 %
20.07.2017 06:48 17,8 C 24,4 C 82 % 1011,2 hPa 0,0 l/m 0,6 km/h (0 Bft) S-SW 203 0 min 0,000 mm 0,0 UV-I 68 W/m 14,7 C 17,8 C 1,6 km/h (1 Bft) 93,62 %
20.07.2017 06:50 17,8 C 24,4 C 82 % 1011,1 hPa 0,0 l/m 1,0 km/h (0 Bft) S-SW 203 0 min 0,000 mm 0,0 UV-I 64 W/m 14,7 C 17,8 C 3,2 km/h (1 Bft) 95,74 %
20.07.2017 06:52 17,9 C 24,4 C 82 % 1011,1 hPa 0,0 l/m 1,0 km/h (0 Bft) S-SW 203 0 min 0,000 mm 0,0 UV-I 63 W/m 14,8 C 17,9 C 3,2 km/h (1 Bft) 91,49 %
20.07.2017 06:54 18,0 C 24,4 C 81 % 1011,2 hPa 0,0 l/m 2,0 km/h (1 Bft) S-SW 203 0 min 0,000 mm 0,0 UV-I 65 W/m 14,7 C 18,0 C 3,2 km/h (1 Bft) 93,62 %
20.07.2017 06:56 18,1 C 24,4 C 82 % 1011,1 hPa 0,0 l/m 2,0 km/h (1 Bft) S-SW 203 0 min 0,000 mm 0,0 UV-I 67 W/m 15,0 C 18,1 C 4,8 km/h (1 Bft) 95,12 %
20.07.2017 06:58 18,1 C 24,4 C 82 % 1011,1 hPa 0,0 l/m 1,8 km/h (1 Bft) S-SW 203 0 min 0,000 mm 0,0 UV-I 69 W/m 15,0 C 18,1 C 4,8 km/h (1 Bft) 89,36 %
20.07.2017 07:00 18,1 C 24,4 C 81 % 1011,1 hPa 0,0 l/m 1,6 km/h (1 Bft) S-SW 203 0 min 0,051 mm 0,0 UV-I 69 W/m 14,8 C 18,1 C 4,8 km/h (1 Bft) 91,49 %
20.07.2017 07:02 18,1 C 24,4 C 81 % 1011,1 hPa 0,0 l/m 1,8 km/h (1 Bft) S-SW 203 0 min 0,000 mm 0,0 UV-I 71 W/m 14,8 C 18,1 C 4,8 km/h (1 Bft) 96,00 %
20.07.2017 07:04 18,1 C 24,4 C 81 % 1011,1 hPa 0,0 l/m 2,9 km/h (1 Bft) S-SW 203 0 min 0,000 mm 0,0 UV-I 73 W/m 14,8 C 18,1 C 4,8 km/h (1 Bft) 93,62 %
20.07.2017 07:06 18,1 C 24,4 C 81 % 1011,1 hPa 0,0 l/m 3,4 km/h (1 Bft) S-SW 203 0 min 0,000 mm 0,0 UV-I 75 W/m 14,8 C 18,1 C 4,8 km/h (1 Bft) 91,49 %
20.07.2017 07:08 18,2 C 24,4 C 81 % 1011,1 hPa 0,0 l/m 3,1 km/h (1 Bft) S-SW 203 0 min 0,000 mm 0,0 UV-I 78 W/m 14,9 C 18,2 C 4,8 km/h (1 Bft) 89,36 %
20.07.2017 07:10 18,2 C 24,4 C 82 % 1011,1 hPa 0,0 l/m 4,3 km/h (1 Bft) S-SW 203 0 min 0,000 mm 0,0 UV-I 85 W/m 15,1 C 18,2 C 6,4 km/h (2 Bft) 97,87 %
20.07.2017 07:12 18,2 C 24,4 C 82 % 1011,1 hPa 0,0 l/m 3,4 km/h (1 Bft) S-SW 203 0 min 0,000 mm 0,0 UV-I 91 W/m 15,1 C 18,2 C 6,4 km/h (2 Bft) 89,36 %
20.07.2017 07:14 18,2 C 24,4 C 82 % 1011,1 hPa 0,0 l/m 3,0 km/h (1 Bft) S-SW 203 0 min 0,000 mm 0,0 UV-I 99 W/m 15,1 C 18,2 C 4,8 km/h (1 Bft) 93,62 %
20.07.2017 07:16 18,3 C 24,4 C 82 % 1011,2 hPa 0,0 l/m 3,8 km/h (1 Bft) S-SW 203 0 min 0,000 mm 0,0 UV-I 109 W/m 15,2 C 18,3 C 6,4 km/h (2 Bft) 92,00 %
20.07.2017 07:18 18,3 C 24,4 C 82 % 1011,2 hPa 0,0 l/m 5,0 km/h (1 Bft) S-SW 204 0 min 0,000 mm 0,0 UV-I 123 W/m 15,2 C 18,3 C 6,4 km/h (2 Bft) 97,92 %
20.07.2017 07:20 18,4 C 24,4 C 82 % 1011,2 hPa 0,0 l/m 3,7 km/h (1 Bft) S-SW 204 0 min 0,000 mm 0,0 UV-I 140 W/m 15,3 C 18,4 C 6,4 km/h (2 Bft) 94,87 %
20.07.2017 07:22 18,5 C 24,4 C 82 % 1011,3 hPa 0,0 l/m 6,4 km/h (2 Bft) S-SW 204 2 min 0,000 mm 0,0 UV-I 184 W/m 15,4 C 18,5 C 8,0 km/h (2 Bft) 95,74 %
20.07.2017 07:24 18,6 C 24,4 C 82 % 1011,3 hPa 0,0 l/m 4,8 km/h (1 Bft) S-SW 204 2 min 0,000 mm 0,0 UV-I 185 W/m 15,5 C 18,6 C 6,4 km/h (2 Bft) 95,74 %
20.07.2017 07:26 18,8 C 24,4 C 81 % 1011,3 hPa 0,0 l/m 4,1 km/h (1 Bft) S-SW 204 2 min 0,000 mm 0,0 UV-I 236 W/m 15,5 C 18,8 C 6,4 km/h (2 Bft) 100,00 %
20.07.2017 07:28 19,0 C 24,4 C 81 % 1011,3 hPa 0,0 l/m 3,6 km/h (1 Bft) S-SW 204 2 min 0,000 mm 0,0 UV-I 261 W/m 15,7 C 19,0 C 6,4 km/h (2 Bft) 97,87 %
20.07.2017 07:30 19,2 C 24,4 C 80 % 1011,3 hPa 0,0 l/m 3,6 km/h (1 Bft) S-SW 205 2 min 0,000 mm 0,0 UV-I 344 W/m 15,7 C 19,2 C 4,8 km/h (1 Bft) 95,74 %
20.07.2017 07:32 19,5 C 24,4 C 79 % 1011,3 hPa 0,0 l/m 4,8 km/h (1 Bft) W-SW 239 2 min 0,000 mm 0,0 UV-I 371 W/m 15,8 C 19,5 C 8,0 km/h (2 Bft) 97,87 %
20.07.2017 07:34 19,8 C 24,4 C 78 % 1011,3 hPa 0,0 l/m 5,9 km/h (2 Bft) S-SW 205 2 min 0,000 mm 0,0 UV-I 368 W/m 15,8 C 19,8 C 8,0 km/h (2 Bft) 97,87 %
20.07.2017 07:36 20,2 C 24,4 C 76 % 1011,4 hPa 0,0 l/m 5,9 km/h (2 Bft) S-SW 206 2 min 0,000 mm 0,0 UV-I 362 W/m 15,8 C 20,2 C 9,7 km/h (2 Bft) 95,74 %
20.07.2017 07:38 20,5 C 24,4 C 75 % 1011,4 hPa 0,0 l/m 5,7 km/h (1 Bft) SW 232 2 min 0,000 mm 0,0 UV-I 354 W/m 15,9 C 20,5 C 8,0 km/h (2 Bft) 95,74 %
20.07.2017 07:40 20,7 C 24,4 C 73 % 1011,4 hPa 0,0 l/m 5,9 km/h (2 Bft) W-SW 238 2 min 0,000 mm 0,0 UV-I 348 W/m 15,7 C 20,7 C 8,0 km/h (2 Bft) 95,74 %
20.07.2017 07:42 20,9 C 24,4 C 73 % 1011,4 hPa 0,0 l/m 4,4 km/h (1 Bft) W-SW 255 2 min 0,000 mm 0,0 UV-I 342 W/m 15,9 C 20,9 C 9,7 km/h (2 Bft) 100,00 %
20.07.2017 07:44 21,2 C 24,4 C 73 % 1011,4 hPa 0,0 l/m 3,3 km/h (1 Bft) SW 227 2 min 0,000 mm 0,0 UV-I 337 W/m 16,2 C 21,2 C 6,4 km/h (2 Bft) 100,00 %
20.07.2017 07:46 21,4 C 24,4 C 71 % 1011,4 hPa 0,0 l/m 4,8 km/h (1 Bft) W-SW 255 2 min 0,000 mm 0,0 UV-I 324 W/m 15,9 C 21,4 C 9,7 km/h (2 Bft) 95,74 %
20.07.2017 07:48 21,6 C 24,4 C 71 % 1011,4 hPa 0,0 l/m 5,2 km/h (1 Bft) SW 236 2 min 0,000 mm 0,0 UV-I 218 W/m 16,1 C 21,6 C 8,0 km/h (2 Bft) 91,49 %
20.07.2017 07:50 21,6 C 24,4 C 70 % 1011,5 hPa 0,0 l/m 3,9 km/h (1 Bft) S-SW 213 0 min 0,000 mm 0,0 UV-I 141 W/m 15,9 C 21,6 C 6,4 km/h (2 Bft) 95,74 %
20.07.2017 07:52 21,6 C 24,4 C 69 % 1011,4 hPa 0,0 l/m 6,3 km/h (2 Bft) W-SW 244 0 min 0,000 mm 0,0 UV-I 132 W/m 15,7 C 21,6 C 11,3 km/h (2 Bft) 93,62 %
20.07.2017 07:54 21,6 C 24,4 C 69 % 1011,5 hPa 0,0 l/m 6,9 km/h (2 Bft) W-SW 237 0 min 0,000 mm 0,0 UV-I 126 W/m 15,7 C 21,4 C 11,3 km/h (2 Bft) 98,00 %
20.07.2017 07:56 21,7 C 24,4 C 70 % 1011,5 hPa 0,0 l/m 5,7 km/h (1 Bft) SW 226 0 min 0,000 mm 0,0 UV-I 123 W/m 16,0 C 21,7 C 8,0 km/h (2 Bft) 97,87 %
20.07.2017 07:58 21,7 C 24,4 C 69 % 1011,5 hPa 0,0 l/m 5,7 km/h (1 Bft) SW 232 0 min 0,000 mm 0,0 UV-I 121 W/m 15,8 C 21,7 C 8,0 km/h (2 Bft) 100,00 %
20.07.2017 08:00 21,7 C 24,4 C 70 % 1011,5 hPa 0,0 l/m 4,9 km/h (1 Bft) SW 225 0 min 0,000 mm 0,0 UV-I 120 W/m 16,0 C 21,7 C 6,4 km/h (2 Bft) 94,87 %
20.07.2017 08:02 21,7 C 24,4 C 70 % 1011,5 hPa 0,0 l/m 6,4 km/h (2 Bft) W-SW 251 0 min 0,127 mm 0,0 UV-I 118 W/m 16,0 C 21,7 C 9,7 km/h (2 Bft) 100,00 %
20.07.2017 08:04 21,7 C 24,4 C 70 % 1011,5 hPa 0,0 l/m 5,1 km/h (1 Bft) W-SW 249 0 min 0,000 mm 0,0 UV-I 118 W/m 16,0 C 21,7 C 9,7 km/h (2 Bft) 97,87 %
20.07.2017 08:06 21,7 C 24,4 C 70 % 1011,6 hPa 0,0 l/m 7,7 km/h (2 Bft) W-SW 250 0 min 0,000 mm 0,0 UV-I 120 W/m 16,0 C 21,2 C 12,9 km/h (3 Bft) 97,87 %
20.07.2017 08:08 21,7 C 24,4 C 69 % 1011,5 hPa 0,0 l/m 6,6 km/h (2 Bft) S 187 0 min 0,000 mm 0,0 UV-I 123 W/m 15,8 C 21,6 C 11,3 km/h (2 Bft) 97,87 %
20.07.2017 08:10 21,6 C 24,4 C 69 % 1011,5 hPa 0,0 l/m 9,4 km/h (2 Bft) W-SW 255 0 min 0,000 mm 0,0 UV-I 128 W/m 15,7 C 20,6 C 17,7 km/h (3 Bft) 96,00 %
20.07.2017 08:12 21,7 C 24,4 C 69 % 1011,5 hPa 0,0 l/m 12,2 km/h (2 Bft) S-SW 210 0 min 0,000 mm 0,3 UV-I 137 W/m 15,8 C 19,9 C 22,5 km/h (4 Bft) 97,87 %
20.07.2017 08:14 21,7 C 24,4 C 69 % 1011,4 hPa 0,0 l/m 12,1 km/h (2 Bft) W-SW 238 0 min 0,000 mm 0,5 UV-I 146 W/m 15,8 C 20,0 C 19,3 km/h (3 Bft) 97,87 %
20.07.2017 08:16 21,7 C 24,4 C 69 % 1011,4 hPa 0,0 l/m 10,6 km/h (2 Bft) S-SW 200 0 min 0,000 mm 0,6 UV-I 155 W/m 15,8 C 20,4 C 17,7 km/h (3 Bft) 95,74 %
20.07.2017 08:18 21,7 C 24,4 C 69 % 1011,3 hPa 0,0 l/m 7,2 km/h (2 Bft) S-SW 207 0 min 0,000 mm 0,6 UV-I 165 W/m 15,8 C 21,4 C 11,3 km/h (2 Bft) 97,56 %
20.07.2017 08:20 21,8 C 24,4 C 69 % 1011,3 hPa 0,0 l/m 8,1 km/h (2 Bft) S-SW 205 0 min 0,000 mm 0,7 UV-I 173 W/m 15,9 C 21,2 C 16,1 km/h (3 Bft) 97,87 %
20.07.2017 08:22 21,8 C 24,4 C 69 % 1011,3 hPa 0,0 l/m 7,8 km/h (2 Bft) S-SW 195 0 min 0,000 mm 0,7 UV-I 183 W/m 15,9 C 21,3 C 16,1 km/h (3 Bft) 93,62 %
20.07.2017 08:24 21,8 C 24,4 C 69 % 1011,3 hPa 0,0 l/m 10,0 km/h (2 Bft) S 170 0 min 0,000 mm 0,8 UV-I 188 W/m 15,9 C 20,6 C 22,5 km/h (4 Bft) 97,87 %
20.07.2017 08:26 21,9 C 24,4 C 68 % 1011,3 hPa 0,0 l/m 10,3 km/h (2 Bft) S-SW 202 0 min 0,000 mm 0,8 UV-I 191 W/m 15,7 C 20,7 C 22,5 km/h (4 Bft) 97,87 %
20.07.2017 08:28 21,9 C 24,4 C 68 % 1011,2 hPa 0,0 l/m 11,2 km/h (2 Bft) S 182 0 min 0,000 mm 0,9 UV-I 200 W/m 15,7 C 20,4 C 16,1 km/h (3 Bft) 95,74 %
20.07.2017 08:30 22,0 C 24,4 C 67 % 1011,3 hPa 0,0 l/m 15,9 km/h (3 Bft) SW 231 0 min 0,000 mm 0,9 UV-I 209 W/m 15,6 C 19,5 C 22,5 km/h (4 Bft) 97,87 %
20.07.2017 08:32 22,1 C 24,4 C 67 % 1011,2 hPa 0,0 l/m 14,2 km/h (3 Bft) W 267 0 min 0,000 mm 0,9 UV-I 206 W/m 15,7 C 20,0 C 22,5 km/h (4 Bft) 93,62 %
20.07.2017 08:34 22,1 C 24,4 C 67 % 1011,3 hPa 0,0 l/m 18,5 km/h (3 Bft) S-SW 204 0 min 0,000 mm 1,0 UV-I 216 W/m 15,7 C 19,2 C 27,4 km/h (4 Bft) 96,00 %
20.07.2017 08:36 22,1 C 24,4 C 67 % 1011,3 hPa 0,0 l/m 20,4 km/h (4 Bft) S-SW 196 0 min 0,000 mm 1,1 UV-I 232 W/m 15,7 C 18,9 C 30,6 km/h (5 Bft) 97,44 %
20.07.2017 08:38 22,1 C 24,4 C 67 % 1011,3 hPa 0,0 l/m 17,0 km/h (3 Bft) S-SW 211 0 min 0,000 mm 1,1 UV-I 234 W/m 15,7 C 19,4 C 25,7 km/h (4 Bft) 96,00 %
20.07.2017 08:40 22,1 C 24,4 C 67 % 1011,4 hPa 0,0 l/m 10,8 km/h (2 Bft) SW 233 0 min 0,000 mm 1,1 UV-I 230 W/m 15,7 C 20,7 C 16,1 km/h (3 Bft) 95,74 %
20.07.2017 08:42 22,2 C 24,4 C 68 % 1011,4 hPa 0,0 l/m 11,9 km/h (2 Bft) SW 234 0 min 0,000 mm 1,2 UV-I 238 W/m 16,0 C 20,6 C 17,7 km/h (3 Bft) 97,87 %
20.07.2017 08:44 22,2 C 24,4 C 67 % 1011,4 hPa 0,0 l/m 13,3 km/h (3 Bft) W-SW 242 0 min 0,000 mm 1,2 UV-I 226 W/m 15,8 C 20,3 C 20,9 km/h (4 Bft) 95,74 %
20.07.2017 08:46 22,2 C 24,4 C 67 % 1011,4 hPa 0,0 l/m 10,9 km/h (2 Bft) SW 214 0 min 0,000 mm 1,2 UV-I 222 W/m 15,8 C 20,8 C 19,3 km/h (3 Bft) 93,62 %
20.07.2017 08:48 22,3 C 24,4 C 67 % 1011,4 hPa 0,0 l/m 9,6 km/h (2 Bft) SW 225 0 min 0,000 mm 1,4 UV-I 244 W/m 15,9 C 21,3 C 14,5 km/h (3 Bft) 97,87 %
20.07.2017 08:50 22,3 C 24,4 C 67 % 1011,3 hPa 0,0 l/m 9,1 km/h (2 Bft) W-SW 238 0 min 0,000 mm 1,3 UV-I 233 W/m 15,9 C 21,4 C 17,7 km/h (3 Bft) 91,49 %
20.07.2017 08:52 22,4 C 24,4 C 67 % 1011,3 hPa 0,0 l/m 11,1 km/h (2 Bft) W-SW 253 0 min 0,000 mm 1,3 UV-I 194 W/m 16,0 C 21,0 C 17,7 km/h (3 Bft) 95,74 %
20.07.2017 08:54 22,4 C 24,4 C 66 % 1011,3 hPa 0,0 l/m 16,6 km/h (3 Bft) W-SW 246 0 min 0,000 mm 1,3 UV-I 198 W/m 15,7 C 19,9 C 20,9 km/h (4 Bft) 96,00 %
20.07.2017 08:56 22,4 C 24,4 C 67 % 1011,2 hPa 0,0 l/m 14,0 km/h (3 Bft) W 267 2 min 0,000 mm 1,6 UV-I 336 W/m 16,0 C 20,4 C 19,3 km/h (3 Bft) 91,49 %
20.07.2017 08:58 22,5 C 24,4 C 66 % 1011,3 hPa 0,0 l/m 11,0 km/h (2 Bft) SW 221 2 min 0,000 mm 1,7 UV-I 559 W/m 15,8 C 21,1 C 17,7 km/h (3 Bft) 96,00 %
20.07.2017 09:00 22,7 C 24,4 C 66 % 1011,2 hPa 0,0 l/m 9,5 km/h (2 Bft) W-SW 256 2 min 0,177 mm 1,7 UV-I 555 W/m 16,0 C 21,8 C 14,5 km/h (3 Bft) 97,87 %
20.07.2017 09:02 22,9 C 24,4 C 65 % 1011,2 hPa 0,0 l/m 9,6 km/h (2 Bft) W-SW 245 2 min 0,000 mm 1,9 UV-I 528 W/m 16,0 C 21,9 C 14,5 km/h (3 Bft) 92,11 %
20.07.2017 09:04 23,2 C 24,4 C 65 % 1011,2 hPa 0,0 l/m 8,3 km/h (2 Bft) W-SW 252 2 min 0,000 mm 1,9 UV-I 539 W/m 16,2 C 22,6 C 14,5 km/h (3 Bft) 94,00 %
20.07.2017 09:06 23,4 C 24,4 C 63 % 1011,2 hPa 0,0 l/m 12,2 km/h (2 Bft) SW 227 2 min 0,000 mm 1,9 UV-I 499 W/m 15,9 C 21,9 C 17,7 km/h (3 Bft) 100,00 %
20.07.2017 09:08 23,7 C 24,4 C 62 % 1011,1 hPa 0,0 l/m 11,2 km/h (2 Bft) SW 236 2 min 0,000 mm 2,0 UV-I 537 W/m 16,0 C 22,5 C 14,5 km/h (3 Bft) 95,74 %
20.07.2017 09:10 23,8 C 24,4 C 62 % 1011,2 hPa 0,0 l/m 9,1 km/h (2 Bft) W-SW 254 2 min 0,000 mm 2,0 UV-I 541 W/m 16,1 C 23,1 C 14,5 km/h (3 Bft) 97,87 %
20.07.2017 09:12 23,9 C 24,4 C 62 % 1011,1 hPa 0,0 l/m 10,8 km/h (2 Bft) W-SW 242 2 min 0,000 mm 2,1 UV-I 544 W/m 16,2 C 22,8 C 17,7 km/h (3 Bft) 97,87 %
20.07.2017 09:14 24,1 C 24,4 C 60 % 1011,1 hPa 0,0 l/m 11,9 km/h (2 Bft) W-SW 252 2 min 0,000 mm 2,1 UV-I 552 W/m 15,8 C 22,8 C 19,3 km/h (3 Bft) 98,00 %
20.07.2017 09:16 24,2 C 24,4 C 61 % 1011,2 hPa 0,0 l/m 6,7 km/h (2 Bft) W 265 2 min 0,000 mm 2,2 UV-I 553 W/m 16,2 C 24,1 C 9,7 km/h (2 Bft) 100,00 %
20.07.2017 09:18 24,3 C 24,4 C 60 % 1011,1 hPa 0,0 l/m 9,3 km/h (2 Bft) W-SW 242 2 min 0,000 mm 2,2 UV-I 554 W/m 16,0 C 23,5 C 16,1 km/h (3 Bft) 97,87 %
20.07.2017 09:20 24,3 C 24,4 C 59 % 1011,0 hPa 0,0 l/m 8,2 km/h (2 Bft) SW 227 2 min 0,000 mm 2,2 UV-I 556 W/m 15,8 C 23,8 C 17,7 km/h (3 Bft) 97,87 %
20.07.2017 09:22 24,4 C 24,4 C 59 % 1011,0 hPa 0,0 l/m 7,6 km/h (2 Bft) W-SW 248 2 min 0,000 mm 2,3 UV-I 561 W/m 15,9 C 24,1 C 12,9 km/h (3 Bft) 100,00 %
20.07.2017 09:24 24,6 C 24,4 C 59 % 1011,0 hPa 0,0 l/m 5,9 km/h (2 Bft) W-SW 254 2 min 0,000 mm 2,3 UV-I 566 W/m 16,0 C 24,6 C 11,3 km/h (2 Bft) 100,00 %
20.07.2017 09:26 24,7 C 24,4 C 59 % 1011,0 hPa 0,0 l/m 4,9 km/h (1 Bft) SW 231 2 min 0,000 mm 2,4 UV-I 573 W/m 16,1 C 24,7 C 11,3 km/h (2 Bft) 98,00 %
20.07.2017 09:28 24,9 C 24,4 C 58 % 1011,0 hPa 0,0 l/m 5,8 km/h (2 Bft) W 261 2 min 0,000 mm 2,4 UV-I 577 W/m 16,1 C 24,9 C 12,9 km/h (3 Bft) 100,00 %
20.07.2017 09:30 25,2 C 24,4 C 57 % 1011,0 hPa 0,0 l/m 7,1 km/h (2 Bft) SW 227 2 min 0,000 mm 2,5 UV-I 581 W/m 16,1 C 25,0 C 11,3 km/h (2 Bft) 98,11 %
20.07.2017 09:32 25,2 C 24,4 C 57 % 1011,0 hPa 0,0 l/m 7,6 km/h (2 Bft) W-NW 282 2 min 0,000 mm 2,5 UV-I 591 W/m 16,1 C 24,9 C 12,9 km/h (3 Bft) 100,00 %
20.07.2017 09:34 25,2 C 24,4 C 55 % 1010,9 hPa 0,0 l/m 8,0 km/h (2 Bft) W-NW 288 2 min 0,000 mm 2,6 UV-I 601 W/m 15,5 C 24,8 C 14,5 km/h (3 Bft) 98,00 %
20.07.2017 09:36 25,3 C 24,4 C 58 % 1010,9 hPa 0,0 l/m 4,6 km/h (1 Bft) NW 304 2 min 0,000 mm 2,7 UV-I 612 W/m 16,4 C 25,3 C 9,7 km/h (2 Bft) 95,74 %
20.07.2017 09:38 25,5 C 24,4 C 54 % 1010,9 hPa 0,0 l/m 9,5 km/h (2 Bft) S-SW 204 2 min 0,000 mm 2,7 UV-I 622 W/m 15,5 C 24,8 C 14,5 km/h (3 Bft) 100,00 %
20.07.2017 09:40 25,5 C 24,4 C 54 % 1010,8 hPa 0,0 l/m 9,6 km/h (2 Bft) W-SW 240 2 min 0,000 mm 2,8 UV-I 631 W/m 15,5 C 24,8 C 14,5 km/h (3 Bft) 95,74 %
20.07.2017 09:42 25,5 C 24,4 C 54 % 1010,8 hPa 0,0 l/m 7,6 km/h (2 Bft) W 264 2 min 0,000 mm 2,8 UV-I 639 W/m 15,5 C 25,2 C 14,5 km/h (3 Bft) 100,00 %
20.07.2017 09:44 25,5 C 24,4 C 54 % 1010,8 hPa 0,0 l/m 7,0 km/h (2 Bft) W-SW 253 2 min 0,000 mm 2,9 UV-I 649 W/m 15,5 C 25,4 C 14,5 km/h (3 Bft) 95,74 %
20.07.2017 09:46 25,6 C 24,4 C 54 % 1010,8 hPa 0,0 l/m 5,2 km/h (1 Bft) W 262 2 min 0,000 mm 2,9 UV-I 651 W/m 15,6 C 25,6 C 9,7 km/h (2 Bft) 98,00 %
20.07.2017 09:48 25,7 C 24,4 C 53 % 1010,8 hPa 0,0 l/m 7,1 km/h (2 Bft) SW 233 2 min 0,000 mm 2,9 UV-I 655 W/m 15,4 C 25,5 C 14,5 km/h (3 Bft) 96,00 %
20.07.2017 09:50 25,7 C 25,0 C 53 % 1010,7 hPa 0,0 l/m 8,4 km/h (2 Bft) W-SW 254 2 min 0,000 mm 3,0 UV-I 657 W/m 15,4 C 25,3 C 14,5 km/h (3 Bft) 95,74 %
20.07.2017 09:52 25,8 C 25,0 C 53 % 1010,7 hPa 0,0 l/m 5,0 km/h (1 Bft) W 277 2 min 0,000 mm 3,1 UV-I 660 W/m 15,5 C 25,8 C 12,9 km/h (3 Bft) 97,22 %
20.07.2017 09:54 25,8 C 25,0 C 53 % 1010,7 hPa 0,0 l/m 5,1 km/h (1 Bft) W-SW 242 2 min 0,000 mm 3,1 UV-I 657 W/m 15,5 C 25,8 C 12,9 km/h (3 Bft) 96,00 %
20.07.2017 09:56 26,1 C 25,0 C 52 % 1010,7 hPa 0,0 l/m 6,2 km/h (2 Bft) SW 234 2 min 0,000 mm 3,1 UV-I 660 W/m 15,5 C 26,1 C 12,9 km/h (3 Bft) 95,74 %
20.07.2017 09:58 26,2 C 25,0 C 49 % 1010,7 hPa 0,0 l/m 9,4 km/h (2 Bft) W-SW 257 2 min 0,000 mm 3,2 UV-I 664 W/m 14,6 C 25,6 C 16,1 km/h (3 Bft) 96,00 %
20.07.2017 10:00 26,2 C 25,0 C 50 % 1010,6 hPa 0,0 l/m 9,4 km/h (2 Bft) W 277 2 min 0,000 mm 3,2 UV-I 667 W/m 14,9 C 25,6 C 16,1 km/h (3 Bft) 97,87 %
20.07.2017 10:02 26,2 C 25,0 C 49 % 1010,6 hPa 0,0 l/m 7,4 km/h (2 Bft) SW 216 2 min 0,432 mm 3,2 UV-I 662 W/m 14,6 C 26,0 C 12,9 km/h (3 Bft) 92,00 %
20.07.2017 10:04 26,4 C 25,0 C 50 % 1010,6 hPa 0,0 l/m 3,1 km/h (1 Bft) W-SW 252 2 min 0,000 mm 3,3 UV-I 663 W/m 15,1 C 26,4 C 8,0 km/h (2 Bft) 95,74 %
20.07.2017 10:06 26,6 C 25,0 C 50 % 1010,6 hPa 0,0 l/m 6,6 km/h (2 Bft) S-SW 213 2 min 0,000 mm 3,3 UV-I 662 W/m 15,3 C 26,6 C 11,3 km/h (2 Bft) 96,00 %
20.07.2017 10:08 26,8 C 25,0 C 50 % 1010,5 hPa 0,0 l/m 4,1 km/h (1 Bft) SW 225 2 min 0,000 mm 3,4 UV-I 667 W/m 15,5 C 26,8 C 8,0 km/h (2 Bft) 97,14 %
20.07.2017 10:10 26,9 C 25,0 C 49 % 1010,4 hPa 0,0 l/m 3,5 km/h (1 Bft) SO 134 2 min 0,000 mm 3,5 UV-I 670 W/m 15,3 C 26,9 C 8,0 km/h (2 Bft) 91,49 %
20.07.2017 10:12 27,0 C 25,0 C 50 % 1010,4 hPa 0,0 l/m 4,4 km/h (1 Bft) N-NW 333 2 min 0,000 mm 3,5 UV-I 675 W/m 15,7 C 27,0 C 12,9 km/h (3 Bft) 96,00 %
20.07.2017 10:14 27,0 C 25,0 C 48 % 1010,4 hPa 0,0 l/m 4,5 km/h (1 Bft) W-NW 284 2 min 0,000 mm 3,6 UV-I 682 W/m 15,0 C 27,0 C 8,0 km/h (2 Bft) 97,87 %
20.07.2017 10:16 27,0 C 25,0 C 47 % 1010,4 hPa 0,0 l/m 5,9 km/h (2 Bft) W 260 2 min 0,000 mm 3,6 UV-I 684 W/m 14,7 C 27,0 C 8,0 km/h (2 Bft) 96,00 %
20.07.2017 10:18 26,9 C 25,0 C 49 % 1010,3 hPa 0,0 l/m 1,0 km/h (0 Bft) N-NW 329 2 min 0,000 mm 3,7 UV-I 686 W/m 15,3 C 26,9 C 4,8 km/h (1 Bft) 92,00 %
20.07.2017 10:20 26,9 C 25,0 C 45 % 1010,3 hPa 0,0 l/m 9,0 km/h (2 Bft) W-SW 254 2 min 0,000 mm 3,7 UV-I 690 W/m 13,9 C 26,4 C 14,5 km/h (3 Bft) 97,87 %
20.07.2017 10:22 27,0 C 25,0 C 46 % 1010,3 hPa 0,0 l/m 6,1 km/h (2 Bft) W-NW 283 2 min 0,000 mm 3,7 UV-I 695 W/m 14,4 C 27,0 C 11,3 km/h (2 Bft) 93,62 %
20.07.2017 10:24 27,1 C 25,0 C 44 % 1010,3 hPa 0,0 l/m 1,3 km/h (1 Bft) W-NW 284 2 min 0,000 mm 3,8 UV-I 700 W/m 13,8 C 27,1 C 3,2 km/h (1 Bft) 93,62 %
20.07.2017 10:26 27,1 C 25,0 C 45 % 1010,3 hPa 0,0 l/m 0,7 km/h (0 Bft) W-NW 284 2 min 0,000 mm 3,8 UV-I 702 W/m 14,1 C 27,1 C 1,6 km/h (1 Bft) 91,49 %
20.07.2017 10:28 27,2 C 25,0 C 45 % 1010,3 hPa 0,0 l/m 5,8 km/h (2 Bft) S-SW 193 2 min 0,000 mm 3,9 UV-I 705 W/m 14,2 C 27,2 C 11,3 km/h (2 Bft) 92,11 %
20.07.2017 10:30 27,3 C 25,0 C 46 % 1010,2 hPa 0,0 l/m 5,6 km/h (1 Bft) SW 230 2 min 0,000 mm 3,9 UV-I 711 W/m 14,6 C 27,3 C 11,3 km/h (2 Bft) 93,75 %
20.07.2017 10:32 27,4 C 25,0 C 45 % 1010,2 hPa 0,0 l/m 4,0 km/h (1 Bft) W 269 2 min 0,000 mm 4,0 UV-I 716 W/m 14,4 C 27,4 C 11,3 km/h (2 Bft) 93,62 %
20.07.2017 10:34 27,4 C 25,0 C 46 % 1010,2 hPa 0,0 l/m 2,6 km/h (1 Bft) W 275 2 min 0,000 mm 4,0 UV-I 718 W/m 14,7 C 27,4 C 6,4 km/h (2 Bft) 95,83 %
20.07.2017 10:36 27,4 C 25,0 C 45 % 1010,2 hPa 0,0 l/m 3,9 km/h (1 Bft) W-SW 242 2 min 0,000 mm 4,1 UV-I 721 W/m 14,4 C 27,4 C 6,4 km/h (2 Bft) 89,36 %
20.07.2017 10:38 27,3 C 25,0 C 45 % 1010,2 hPa 0,0 l/m 2,3 km/h (1 Bft) S-SW 198 2 min 0,000 mm 4,1 UV-I 724 W/m 14,3 C 27,3 C 4,8 km/h (1 Bft) 91,49 %
20.07.2017 10:40 27,4 C 25,0 C 46 % 1010,2 hPa 0,0 l/m 2,4 km/h (1 Bft) W 269 2 min 0,000 mm 4,1 UV-I 731 W/m 14,7 C 27,4 C 6,4 km/h (2 Bft) 93,62 %
20.07.2017 10:42 27,6 C 25,0 C 45 % 1010,3 hPa 0,0 l/m 3,9 km/h (1 Bft) S-SW 213 2 min 0,000 mm 4,2 UV-I 736 W/m 14,6 C 27,6 C 9,7 km/h (2 Bft) 91,49 %
20.07.2017 10:44 27,7 C 25,0 C 46 % 1010,2 hPa 0,0 l/m 2,9 km/h (1 Bft) SW 229 2 min 0,000 mm 4,2 UV-I 744 W/m 15,0 C 27,7 C 8,0 km/h (2 Bft) 95,83 %
20.07.2017 10:46 27,9 C 25,0 C 45 % 1010,3 hPa 0,0 l/m 8,4 km/h (2 Bft) W-SW 245 2 min 0,000 mm 4,3 UV-I 749 W/m 14,8 C 27,6 C 16,1 km/h (3 Bft) 95,74 %
20.07.2017 10:48 27,9 C 25,0 C 44 % 1010,2 hPa 0,0 l/m 6,6 km/h (2 Bft) W 266 2 min 0,000 mm 4,3 UV-I 754 W/m 14,5 C 27,9 C 11,3 km/h (2 Bft) 95,74 %
20.07.2017 10:50 27,8 C 25,0 C 45 % 1010,2 hPa 0,0 l/m 6,4 km/h (2 Bft) NW 318 2 min 0,000 mm 4,4 UV-I 758 W/m 14,8 C 27,8 C 12,9 km/h (3 Bft) 95,74 %
20.07.2017 10:52 27,9 C 25,0 C 44 % 1010,2 hPa 0,0 l/m 5,7 km/h (1 Bft) SW 225 2 min 0,000 mm 4,4 UV-I 759 W/m 14,5 C 27,9 C 12,9 km/h (3 Bft) 91,49 %
20.07.2017 10:54 28,1 C 25,0 C 45 % 1010,2 hPa 0,0 l/m 8,6 km/h (2 Bft) W-SW 239 2 min 0,000 mm 4,5 UV-I 761 W/m 15,0 C 27,8 C 16,1 km/h (3 Bft) 91,49 %
20.07.2017 10:56 28,1 C 25,0 C 44 % 1010,2 hPa 0,0 l/m 6,7 km/h (2 Bft) W 278 2 min 0,000 mm 4,6 UV-I 763 W/m 14,7 C 28,1 C 14,5 km/h (3 Bft) 97,87 %
20.07.2017 10:58 28,0 C 25,0 C 44 % 1010,2 hPa 0,0 l/m 4,1 km/h (1 Bft) S 173 2 min 0,000 mm 4,6 UV-I 764 W/m 14,6 C 28,0 C 9,7 km/h (2 Bft) 97,87 %
20.07.2017 11:00 28,1 C 25,0 C 45 % 1010,2 hPa 0,0 l/m 5,6 km/h (1 Bft) S-SO 157 2 min 0,508 mm 4,6 UV-I 765 W/m 15,0 C 28,1 C 12,9 km/h (3 Bft) 98,00 %
20.07.2017 11:02 28,1 C 25,0 C 44 % 1010,2 hPa 0,0 l/m 9,5 km/h (2 Bft) S-SW 203 2 min 0,000 mm 4,7 UV-I 766 W/m 14,7 C 27,7 C 17,7 km/h (3 Bft) 93,62 %
20.07.2017 11:04 28,2 C 25,0 C 43 % 1010,2 hPa 0,0 l/m 11,7 km/h (2 Bft) S-SW 202 2 min 0,000 mm 4,7 UV-I 770 W/m 14,4 C 27,5 C 16,1 km/h (3 Bft) 97,87 %
20.07.2017 11:06 28,3 C 25,0 C 43 % 1010,3 hPa 0,0 l/m 9,3 km/h (2 Bft) S 187 2 min 0,000 mm 4,8 UV-I 772 W/m 14,5 C 27,9 C 19,3 km/h (3 Bft) 95,74 %
20.07.2017 11:08 28,2 C 25,0 C 43 % 1010,2 hPa 0,0 l/m 8,5 km/h (2 Bft) W-SW 241 2 min 0,000 mm 4,8 UV-I 773 W/m 14,4 C 27,9 C 14,5 km/h (3 Bft) 94,44 %
20.07.2017 11:10 28,2 C 25,0 C 42 % 1010,2 hPa 0,0 l/m 7,9 km/h (2 Bft) S-SW 211 2 min 0,000 mm 4,9 UV-I 776 W/m 14,0 C 28,0 C 14,5 km/h (3 Bft) 98,00 %
20.07.2017 11:12 28,3 C 25,0 C 42 % 1010,2 hPa 0,0 l/m 9,7 km/h (2 Bft) W 267 2 min 0,000 mm 4,9 UV-I 778 W/m 14,1 C 27,8 C 16,1 km/h (3 Bft) 95,74 %
20.07.2017 11:14 28,3 C 25,0 C 43 % 1010,2 hPa 0,0 l/m 9,4 km/h (2 Bft) W 265 2 min 0,000 mm 4,9 UV-I 781 W/m 14,5 C 27,9 C 14,5 km/h (3 Bft) 94,00 %
20.07.2017 11:16 28,1 C 25,0 C 43 % 1010,2 hPa 0,0 l/m 3,1 km/h (1 Bft) W-NW 282 2 min 0,000 mm 5,0 UV-I 786 W/m 14,3 C 28,1 C 12,9 km/h (3 Bft) 95,74 %
20.07.2017 11:18 28,3 C 25,0 C 44 % 1010,1 hPa 0,0 l/m 1,7 km/h (1 Bft) W-NW 282 2 min 0,000 mm 5,0 UV-I 788 W/m 14,9 C 28,3 C 4,8 km/h (1 Bft) 97,87 %
20.07.2017 11:20 28,5 C 25,0 C 43 % 1010,2 hPa 0,0 l/m 3,5 km/h (1 Bft) S-SW 204 2 min 0,000 mm 5,1 UV-I 791 W/m 14,7 C 28,5 C 8,0 km/h (2 Bft) 97,87 %
20.07.2017 11:22 28,7 C 25,0 C 43 % 1010,1 hPa 0,0 l/m 7,7 km/h (2 Bft) W 267 2 min 0,000 mm 5,1 UV-I 794 W/m 14,9 C 28,5 C 11,3 km/h (2 Bft) 97,56 %
20.07.2017 11:24 28,8 C 25,0 C 43 % 1010,1 hPa 0,0 l/m 10,0 km/h (2 Bft) SW 236 2 min 0,000 mm 5,1 UV-I 795 W/m 15,0 C 28,4 C 14,5 km/h (3 Bft) 95,74 %
20.07.2017 11:26 28,8 C 25,0 C 43 % 1010,1 hPa 0,0 l/m 8,7 km/h (2 Bft) W 264 2 min 0,000 mm 5,2 UV-I 798 W/m 15,0 C 28,5 C 17,7 km/h (3 Bft) 98,00 %
20.07.2017 11:28 28,9 C 25,0 C 42 % 1010,1 hPa 0,0 l/m 14,1 km/h (3 Bft) W-SW 258 2 min 0,000 mm 5,2 UV-I 801 W/m 14,7 C 28,1 C 19,3 km/h (3 Bft) 96,00 %
20.07.2017 11:30 28,8 C 25,0 C 41 % 1010,0 hPa 0,0 l/m 13,9 km/h (3 Bft) S-SW 211 2 min 0,000 mm 5,2 UV-I 801 W/m 14,2 C 28,0 C 20,9 km/h (4 Bft) 100,00 %
20.07.2017 11:32 28,7 C 25,0 C 40 % 1010,0 hPa 0,0 l/m 13,2 km/h (3 Bft) S-SW 202 2 min 0,000 mm 5,3 UV-I 793 W/m 13,7 C 27,9 C 17,7 km/h (3 Bft) 95,74 %
20.07.2017 11:34 28,6 C 25,0 C 42 % 1010,0 hPa 0,0 l/m 10,4 km/h (2 Bft) SW 214 2 min 0,000 mm 5,3 UV-I 794 W/m 14,4 C 28,1 C 19,3 km/h (3 Bft) 95,74 %
20.07.2017 11:36 28,6 C 25,0 C 41 % 1009,9 hPa 0,0 l/m 8,4 km/h (2 Bft) W-SW 248 2 min 0,000 mm 5,3 UV-I 806 W/m 14,0 C 28,3 C 17,7 km/h (3 Bft) 97,87 %
20.07.2017 11:38 28,6 C 25,0 C 40 % 1009,9 hPa 0,0 l/m 12,3 km/h (3 Bft) W 263 2 min 0,000 mm 5,4 UV-I 810 W/m 13,7 C 27,9 C 22,5 km/h (4 Bft) 100,00 %
20.07.2017 11:40 28,6 C 25,0 C 41 % 1009,9 hPa 0,0 l/m 9,0 km/h (2 Bft) W 268 2 min 0,000 mm 5,4 UV-I 814 W/m 14,0 C 28,3 C 19,3 km/h (3 Bft) 97,87 %
20.07.2017 11:42 28,6 C 25,0 C 41 % 1009,9 hPa 0,0 l/m 7,0 km/h (2 Bft) W-NW 284 2 min 0,000 mm 5,5 UV-I 816 W/m 14,0 C 28,5 C 14,5 km/h (3 Bft) 100,00 %
20.07.2017 11:44 28,7 C 25,0 C 40 % 1009,9 hPa 0,0 l/m 11,0 km/h (2 Bft) W-SW 253 2 min 0,000 mm 5,5 UV-I 816 W/m 13,7 C 28,1 C 19,3 km/h (3 Bft) 97,37 %
20.07.2017 11:46 28,7 C 25,0 C 40 % 1009,9 hPa 0,0 l/m 11,0 km/h (2 Bft) W-SW 254 2 min 0,000 mm 5,5 UV-I 820 W/m 13,7 C 28,1 C 19,3 km/h (3 Bft) 100,00 %
20.07.2017 11:48 28,7 C 25,0 C 41 % 1009,8 hPa 0,0 l/m 9,8 km/h (2 Bft) W-SW 241 2 min 0,000 mm 5,5 UV-I 820 W/m 14,1 C 28,3 C 17,7 km/h (3 Bft) 100,00 %
20.07.2017 11:50 28,5 C 25,0 C 41 % 1009,8 hPa 0,0 l/m 10,1 km/h (2 Bft) SW 223 2 min 0,000 mm 5,6 UV-I 823 W/m 13,9 C 28,0 C 17,7 km/h (3 Bft) 100,00 %
20.07.2017 11:52 28,6 C 25,0 C 43 % 1009,8 hPa 0,0 l/m 9,4 km/h (2 Bft) S-SW 213 2 min 0,000 mm 5,6 UV-I 827 W/m 14,8 C 28,2 C 14,5 km/h (3 Bft) 95,74 %
20.07.2017 11:54 28,9 C 25,0 C 41 % 1009,8 hPa 0,0 l/m 12,6 km/h (3 Bft) SW 224 2 min 0,000 mm 5,7 UV-I 831 W/m 14,3 C 28,2 C 20,9 km/h (4 Bft) 100,00 %
20.07.2017 11:56 28,8 C 25,0 C 40 % 1009,8 hPa 0,0 l/m 8,0 km/h (2 Bft) W 275 2 min 0,000 mm 5,7 UV-I 832 W/m 13,8 C 28,6 C 12,9 km/h (3 Bft) 97,87 %
20.07.2017 11:58 28,6 C 25,0 C 41 % 1009,8 hPa 0,0 l/m 4,9 km/h (1 Bft) W-SW 241 2 min 0,000 mm 5,7 UV-I 833 W/m 14,0 C 28,6 C 11,3 km/h (2 Bft) 97,87 %
20.07.2017 12:00 28,8 C 25,0 C 42 % 1009,8 hPa 0,0 l/m 8,4 km/h (2 Bft) S 189 2 min 0,610 mm 5,7 UV-I 832 W/m 14,6 C 28,5 C 14,5 km/h (3 Bft) 100,00 %
20.07.2017 12:02 29,2 C 25,0 C 41 % 1009,8 hPa 0,0 l/m 13,1 km/h (3 Bft) W 260 2 min 0,000 mm 5,7 UV-I 835 W/m 14,6 C 28,5 C 22,5 km/h (4 Bft) 100,00 %
20.07.2017 12:04 29,2 C 25,0 C 40 % 1009,8 hPa 0,0 l/m 12,1 km/h (2 Bft) W 277 2 min 0,000 mm 5,8 UV-I 836 W/m 14,2 C 28,6 C 19,3 km/h (3 Bft) 97,87 %
20.07.2017 12:06 29,2 C 25,0 C 42 % 1009,8 hPa 0,0 l/m 5,9 km/h (2 Bft) W 275 2 min 0,000 mm 5,8 UV-I 838 W/m 14,9 C 29,2 C 12,9 km/h (3 Bft) 91,49 %
20.07.2017 12:08 29,3 C 25,0 C 40 % 1009,7 hPa 0,0 l/m 12,9 km/h (3 Bft) SW 236 2 min 0,000 mm 5,8 UV-I 841 W/m 14,3 C 28,7 C 19,3 km/h (3 Bft) 97,87 %
20.07.2017 12:10 29,2 C 25,0 C 41 % 1009,7 hPa 0,0 l/m 6,2 km/h (2 Bft) W 269 2 min 0,000 mm 5,8 UV-I 847 W/m 14,6 C 29,2 C 19,3 km/h (3 Bft) 97,87 %
20.07.2017 12:12 29,1 C 25,0 C 40 % 1009,6 hPa 0,0 l/m 10,0 km/h (2 Bft) W-SW 255 2 min 0,000 mm 5,9 UV-I 849 W/m 14,1 C 28,7 C 24,1 km/h (4 Bft) 98,00 %
20.07.2017 12:14 28,9 C 25,0 C 43 % 1009,6 hPa 0,0 l/m 8,7 km/h (2 Bft) SW 226 2 min 0,000 mm 5,9 UV-I 851 W/m 15,0 C 28,6 C 17,7 km/h (3 Bft) 100,00 %
20.07.2017 12:16 29,1 C 25,6 C 42 % 1009,7 hPa 0,0 l/m 12,6 km/h (3 Bft) S-SW 202 2 min 0,000 mm 5,9 UV-I 857 W/m 14,9 C 28,5 C 19,3 km/h (3 Bft) 97,87 %
20.07.2017 12:18 29,2 C 25,6 C 42 % 1009,6 hPa 0,0 l/m 11,8 km/h (2 Bft) SW 217 2 min 0,000 mm 6,0 UV-I 870 W/m 14,9 C 28,6 C 20,9 km/h (4 Bft) 100,00 %
20.07.2017 12:20 29,2 C 25,6 C 42 % 1009,7 hPa 0,0 l/m 12,4 km/h (3 Bft) SW 221 2 min 0,000 mm 6,1 UV-I 920 W/m 14,9 C 28,6 C 20,9 km/h (4 Bft) 97,87 %
20.07.2017 12:22 29,1 C 25,6 C 41 % 1009,6 hPa 0,0 l/m 6,5 km/h (2 Bft) S 174 2 min 0,000 mm 5,8 UV-I 931 W/m 14,5 C 29,1 C 16,1 km/h (3 Bft) 97,87 %
20.07.2017 12:24 28,9 C 25,6 C 42 % 1009,6 hPa 0,0 l/m 8,5 km/h (2 Bft) NW 318 2 min 0,000 mm 5,5 UV-I 740 W/m 14,7 C 28,6 C 16,1 km/h (3 Bft) 97,87 %
20.07.2017 12:26 28,8 C 25,6 C 42 % 1009,5 hPa 0,0 l/m 3,9 km/h (1 Bft) S 182 2 min 0,000 mm 4,5 UV-I 641 W/m 14,6 C 28,8 C 9,7 km/h (2 Bft) 92,00 %
20.07.2017 12:28 28,7 C 25,6 C 43 % 1009,5 hPa 0,0 l/m 5,0 km/h (1 Bft) W-SW 254 2 min 0,000 mm 4,8 UV-I 481 W/m 14,9 C 28,7 C 11,3 km/h (2 Bft) 97,87 %
20.07.2017 12:30 28,5 C 25,6 C 42 % 1009,5 hPa 0,0 l/m 5,4 km/h (1 Bft) W-SW 246 2 min 0,000 mm 4,4 UV-I 540 W/m 14,3 C 28,5 C 11,3 km/h (2 Bft) 97,92 %
20.07.2017 12:32 28,6 C 25,6 C 43 % 1009,5 hPa 0,0 l/m 5,4 km/h (1 Bft) S 186 2 min 0,000 mm 4,4 UV-I 540 W/m 14,8 C 28,6 C 8,0 km/h (2 Bft) 95,74 %
20.07.2017 12:34 28,7 C 25,6 C 43 % 1009,5 hPa 0,0 l/m 4,1 km/h (1 Bft) S 182 2 min 0,000 mm 4,8 UV-I 500 W/m 14,9 C 28,7 C 11,3 km/h (2 Bft) 96,00 %
20.07.2017 12:36 29,0 C 25,6 C 43 % 1009,5 hPa 0,0 l/m 11,8 km/h (2 Bft) W 263 2 min 0,000 mm 6,1 UV-I 624 W/m 15,1 C 28,4 C 19,3 km/h (3 Bft) 97,87 %
20.07.2017 12:38 29,3 C 25,6 C 43 % 1009,4 hPa 0,0 l/m 14,7 km/h (3 Bft) SW 235 2 min 0,000 mm 6,8 UV-I 1037 W/m 15,4 C 28,5 C 19,3 km/h (3 Bft) 93,62 %
20.07.2017 12:40 29,5 C 25,6 C 41 % 1009,5 hPa 0,0 l/m 10,1 km/h (2 Bft) S-SW 192 2 min 0,000 mm 5,4 UV-I 938 W/m 14,8 C 29,1 C 14,5 km/h (3 Bft) 95,74 %
20.07.2017 12:42 29,3 C 25,6 C 42 % 1009,4 hPa 0,0 l/m 6,9 km/h (2 Bft) SW 234 2 min 0,000 mm 4,4 UV-I 488 W/m 15,0 C 29,2 C 12,9 km/h (3 Bft) 95,74 %
20.07.2017 12:44 29,3 C 25,6 C 42 % 1009,4 hPa 0,0 l/m 10,0 km/h (2 Bft) SW 219 2 min 0,000 mm 5,3 UV-I 555 W/m 15,0 C 28,9 C 14,5 km/h (3 Bft) 93,62 %
20.07.2017 12:46 29,3 C 25,6 C 40 % 1009,4 hPa 0,0 l/m 13,9 km/h (3 Bft) SW 227 2 min 0,000 mm 4,6 UV-I 573 W/m 14,3 C 28,6 C 17,7 km/h (3 Bft) 97,37 %
20.07.2017 12:48 29,3 C 25,6 C 39 % 1009,4 hPa 0,0 l/m 12,8 km/h (3 Bft) W-NW 287 2 min 0,000 mm 4,2 UV-I 539 W/m 13,9 C 28,7 C 22,5 km/h (4 Bft) 95,74 %
20.07.2017 12:50 29,3 C 25,6 C 40 % 1009,4 hPa 0,0 l/m 4,0 km/h (1 Bft) W-SW 246 2 min 0,000 mm 3,0 UV-I 510 W/m 14,3 C 29,3 C 9,7 km/h (2 Bft) 93,62 %
20.07.2017 12:52 29,2 C 25,6 C 39 % 1009,3 hPa 0,0 l/m 8,3 km/h (2 Bft) S-SW 209 2 min 0,000 mm 2,8 UV-I 507 W/m 13,8 C 29,0 C 16,1 km/h (3 Bft) 95,74 %
20.07.2017 12:54 29,3 C 25,6 C 41 % 1009,4 hPa 0,0 l/m 9,7 km/h (2 Bft) SW 235 2 min 0,000 mm 4,0 UV-I 508 W/m 14,7 C 28,9 C 16,1 km/h (3 Bft) 98,00 %
20.07.2017 12:56 29,4 C 25,6 C 40 % 1009,2 hPa 0,0 l/m 10,7 km/h (2 Bft) W-SW 243 0 min 0,000 mm 3,7 UV-I 474 W/m 14,4 C 29,0 C 17,7 km/h (3 Bft) 95,74 %
20.07.2017 12:58 29,3 C 25,6 C 40 % 1009,3 hPa 0,0 l/m 7,7 km/h (2 Bft) SW 226 2 min 0,000 mm 3,9 UV-I 508 W/m 14,3 C 29,1 C 16,1 km/h (3 Bft) 96,00 %
20.07.2017 13:00 29,4 C 25,6 C 41 % 1009,2 hPa 0,0 l/m 12,3 km/h (3 Bft) S-SW 213 2 min 0,533 mm 4,1 UV-I 537 W/m 14,7 C 28,8 C 20,9 km/h (4 Bft) 97,87 %
20.07.2017 13:02 29,4 C 25,6 C 39 % 1009,3 hPa 0,0 l/m 12,0 km/h (2 Bft) SW 231 2 min 0,000 mm 4,1 UV-I 536 W/m 14,0 C 28,9 C 16,1 km/h (3 Bft) 95,74 %
20.07.2017 13:04 29,3 C 25,6 C 39 % 1009,2 hPa 0,0 l/m 8,1 km/h (2 Bft) W-SW 245 2 min 0,000 mm 3,8 UV-I 492 W/m 13,9 C 29,1 C 12,9 km/h (3 Bft) 95,74 %
20.07.2017 13:06 29,4 C 25,6 C 40 % 1009,2 hPa 0,0 l/m 11,5 km/h (2 Bft) SW 222 2 min 0,000 mm 3,8 UV-I 486 W/m 14,4 C 28,9 C 17,7 km/h (3 Bft) 97,87 %
20.07.2017 13:08 29,4 C 25,6 C 39 % 1009,2 hPa 0,0 l/m 16,0 km/h (3 Bft) W-SW 248 2 min 0,000 mm 3,8 UV-I 497 W/m 14,0 C 28,6 C 22,5 km/h (4 Bft) 95,74 %
20.07.2017 13:10 29,4 C 25,6 C 39 % 1009,2 hPa 0,0 l/m 11,8 km/h (2 Bft) W 281 2 min 0,000 mm 3,9 UV-I 509 W/m 14,0 C 28,9 C 17,7 km/h (3 Bft) 97,44 %
20.07.2017 13:12 29,4 C 25,6 C 38 % 1009,1 hPa 0,0 l/m 11,6 km/h (2 Bft) S-SW 197 2 min 0,000 mm 4,2 UV-I 535 W/m 13,6 C 28,9 C 17,7 km/h (3 Bft) 97,87 %
20.07.2017 13:14 29,4 C 25,6 C 39 % 1009,1 hPa 0,0 l/m 11,6 km/h (2 Bft) S-SW 213 2 min 0,000 mm 4,5 UV-I 591 W/m 14,0 C 28,9 C 22,5 km/h (4 Bft) 97,87 %
20.07.2017 13:16 29,4 C 25,6 C 40 % 1009,1 hPa 0,0 l/m 13,1 km/h (3 Bft) SW 217 2 min 0,000 mm 5,5 UV-I 694 W/m 14,4 C 28,8 C 22,5 km/h (4 Bft) 97,92 %
20.07.2017 13:18 29,6 C 25,6 C 40 % 1009,1 hPa 0,0 l/m 13,2 km/h (3 Bft) S-SW 193 2 min 0,000 mm 5,5 UV-I 657 W/m 14,5 C 29,0 C 19,3 km/h (3 Bft) 100,00 %
20.07.2017 13:20 29,6 C 25,6 C 40 % 1009,1 hPa 0,0 l/m 12,2 km/h (2 Bft) S-SW 205 2 min 0,000 mm 4,9 UV-I 658 W/m 14,5 C 29,1 C 19,3 km/h (3 Bft) 97,87 %
20.07.2017 13:22 29,6 C 25,6 C 39 % 1009,2 hPa 0,0 l/m 13,7 km/h (3 Bft) SW 232 2 min 0,000 mm 4,9 UV-I 704 W/m 14,2 C 29,0 C 22,5 km/h (4 Bft) 98,00 %
20.07.2017 13:24 29,6 C 25,6 C 39 % 1009,1 hPa 0,0 l/m 10,9 km/h (2 Bft) S-SW 209 2 min 0,000 mm 4,7 UV-I 597 W/m 14,2 C 29,2 C 19,3 km/h (3 Bft) 100,00 %
20.07.2017 13:26 29,5 C 25,6 C 40 % 1009,1 hPa 0,0 l/m 8,5 km/h (2 Bft) W-SW 249 2 min 0,000 mm 5,2 UV-I 656 W/m 14,5 C 29,3 C 19,3 km/h (3 Bft) 97,87 %
20.07.2017 13:28 29,7 C 25,6 C 41 % 1009,1 hPa 0,0 l/m 9,1 km/h (2 Bft) S-SW 204 2 min 0,000 mm 5,9 UV-I 633 W/m 15,0 C 29,4 C 14,5 km/h (3 Bft) 100,00 %
20.07.2017 13:30 29,9 C 25,6 C 40 % 1009,1 hPa 0,0 l/m 8,3 km/h (2 Bft) SW 218 2 min 0,000 mm 6,5 UV-I 679 W/m 14,8 C 29,7 C 16,1 km/h (3 Bft) 100,00 %
20.07.2017 13:32 29,9 C 25,6 C 41 % 1009,0 hPa 0,0 l/m 7,2 km/h (2 Bft) S 180 2 min 0,000 mm 6,8 UV-I 905 W/m 15,2 C 29,8 C 16,1 km/h (3 Bft) 97,87 %
20.07.2017 13:34 30,3 C 25,6 C 40 % 1009,0 hPa 0,0 l/m 5,2 km/h (1 Bft) S-SO 158 2 min 0,000 mm 6,7 UV-I 1042 W/m 15,2 C 30,3 C 12,9 km/h (3 Bft) 97,87 %
20.07.2017 13:36 30,2 C 25,6 C 40 % 1009,0 hPa 0,0 l/m 5,7 km/h (1 Bft) S-SW 199 2 min 0,000 mm 6,7 UV-I 1017 W/m 15,1 C 30,2 C 12,9 km/h (3 Bft) 94,00 %
20.07.2017 13:38 30,3 C 25,6 C 40 % 1009,0 hPa 0,0 l/m 11,7 km/h (2 Bft) W-SW 242 2 min 0,000 mm 6,5 UV-I 970 W/m 15,2 C 29,9 C 20,9 km/h (4 Bft) 97,14 %
20.07.2017 13:40 30,3 C 25,6 C 41 % 1009,0 hPa 0,0 l/m 9,0 km/h (2 Bft) S-SW 198 2 min 0,000 mm 6,4 UV-I 942 W/m 15,6 C 30,1 C 16,1 km/h (3 Bft) 98,00 %
20.07.2017 13:42 30,2 C 25,6 C 40 % 1008,9 hPa 0,0 l/m 5,3 km/h (1 Bft) S 188 2 min 0,000 mm 6,2 UV-I 905 W/m 15,1 C 30,2 C 11,3 km/h (2 Bft) 95,74 %
20.07.2017 13:44 30,3 C 25,6 C 42 % 1008,9 hPa 0,0 l/m 6,1 km/h (2 Bft) SW 233 2 min 0,000 mm 6,2 UV-I 892 W/m 15,9 C 30,3 C 9,7 km/h (2 Bft) 96,00 %
20.07.2017 13:46 30,5 C 25,6 C 40 % 1008,8 hPa 0,0 l/m 3,5 km/h (1 Bft) S 173 2 min 0,000 mm 6,2 UV-I 900 W/m 15,3 C 30,5 C 9,7 km/h (2 Bft) 97,87 %
20.07.2017 13:48 30,6 C 25,6 C 39 % 1008,8 hPa 0,0 l/m 2,5 km/h (1 Bft) S-SO 148 2 min 0,000 mm 6,1 UV-I 886 W/m 15,0 C 30,6 C 8,0 km/h (2 Bft) 93,75 %
20.07.2017 13:50 30,6 C 25,6 C 40 % 1008,8 hPa 0,0 l/m 7,7 km/h (2 Bft) W-SW 242 2 min 0,000 mm 6,1 UV-I 879 W/m 15,4 C 30,5 C 17,7 km/h (3 Bft) 95,74 %
20.07.2017 13:52 30,8 C 25,6 C 39 % 1008,8 hPa 0,0 l/m 10,2 km/h (2 Bft) SW 234 2 min 0,000 mm 4,9 UV-I 875 W/m 15,2 C 30,6 C 17,7 km/h (3 Bft) 100,00 %
20.07.2017 13:54 30,9 C 25,6 C 37 % 1008,8 hPa 0,0 l/m 13,1 km/h (3 Bft) W-SW 250 2 min 0,000 mm 6,0 UV-I 874 W/m 14,5 C 30,5 C 19,3 km/h (3 Bft) 100,00 %
20.07.2017 13:56 30,8 C 25,6 C 37 % 1008,8 hPa 0,0 l/m 9,3 km/h (2 Bft) W-NW 282 2 min 0,000 mm 6,0 UV-I 878 W/m 14,4 C 30,6 C 16,1 km/h (3 Bft) 93,62 %
20.07.2017 13:58 30,8 C 25,6 C 37 % 1008,8 hPa 0,0 l/m 9,4 km/h (2 Bft) W 261 2 min 0,000 mm 6,0 UV-I 880 W/m 14,4 C 30,6 C 17,7 km/h (3 Bft) 100,00 %
20.07.2017 14:00 30,7 C 25,6 C 37 % 1008,7 hPa 0,0 l/m 7,5 km/h (2 Bft) W-SW 239 2 min 0,610 mm 6,0 UV-I 881 W/m 14,3 C 30,6 C 12,9 km/h (3 Bft) 97,87 %
20.07.2017 14:02 30,7 C 25,6 C 38 % 1008,7 hPa 0,0 l/m 10,3 km/h (2 Bft) SW 218 2 min 0,000 mm 6,1 UV-I 922 W/m 14,7 C 30,4 C 14,5 km/h (3 Bft) 93,62 %
20.07.2017 14:04 30,7 C 25,6 C 38 % 1008,6 hPa 0,0 l/m 6,4 km/h (2 Bft) SW 228 2 min 0,000 mm 5,8 UV-I 913 W/m 14,7 C 30,7 C 9,7 km/h (2 Bft) 97,87 %
20.07.2017 14:06 30,4 C 26,1 C 37 % 1008,6 hPa 0,0 l/m 1,9 km/h (1 Bft) SW 232 2 min 0,000 mm 4,8 UV-I 515 W/m 14,0 C 30,4 C 4,8 km/h (1 Bft) 97,37 %
20.07.2017 14:08 30,4 C 25,6 C 38 % 1008,5 hPa 0,0 l/m 3,7 km/h (1 Bft) W-SW 250 2 min 0,000 mm 5,4 UV-I 924 W/m 14,5 C 30,4 C 9,7 km/h (2 Bft) 92,00 %
20.07.2017 14:10 30,7 C 26,1 C 38 % 1008,5 hPa 0,0 l/m 8,5 km/h (2 Bft) W 261 2 min 0,000 mm 6,0 UV-I 914 W/m 14,7 C 30,6 C 14,5 km/h (3 Bft) 92,00 %
20.07.2017 14:12 31,1 C 26,1 C 37 % 1008,4 hPa 0,0 l/m 7,8 km/h (2 Bft) W-SW 252 2 min 0,000 mm 6,1 UV-I 946 W/m 14,7 C 31,0 C 11,3 km/h (2 Bft) 93,75 %
20.07.2017 14:14 31,3 C 26,1 C 37 % 1008,5 hPa 0,0 l/m 14,1 km/h (3 Bft) W-SW 240 2 min 0,000 mm 6,2 UV-I 959 W/m 14,8 C 31,0 C 19,3 km/h (3 Bft) 95,74 %
20.07.2017 14:16 31,2 C 26,1 C 36 % 1008,4 hPa 0,0 l/m 14,6 km/h (3 Bft) SW 234 2 min 0,000 mm 6,0 UV-I 936 W/m 14,3 C 30,8 C 20,9 km/h (4 Bft) 97,87 %
20.07.2017 14:18 31,1 C 26,1 C 37 % 1008,4 hPa 0,0 l/m 8,2 km/h (2 Bft) SW 219 2 min 0,000 mm 5,9 UV-I 903 W/m 14,7 C 31,0 C 17,7 km/h (3 Bft) 95,92 %
20.07.2017 14:20 31,2 C 26,1 C 36 % 1008,4 hPa 0,0 l/m 3,1 km/h (1 Bft) W-NW 284 2 min 0,000 mm 5,4 UV-I 715 W/m 14,3 C 31,2 C 6,4 km/h (2 Bft) 97,37 %
20.07.2017 14:22 31,0 C 26,1 C 35 % 1008,4 hPa 0,0 l/m 2,8 km/h (1 Bft) NW 309 2 min 0,000 mm 5,1 UV-I 650 W/m 13,7 C 31,0 C 8,0 km/h (2 Bft) 92,00 %
20.07.2017 14:24 31,0 C 26,1 C 36 % 1008,4 hPa 0,0 l/m 1,6 km/h (1 Bft) NW 309 2 min 0,000 mm 5,9 UV-I 746 W/m 14,2 C 31,0 C 4,8 km/h (1 Bft) 96,00 %
20.07.2017 14:26 31,2 C 26,1 C 36 % 1008,3 hPa 0,0 l/m 6,6 km/h (2 Bft) SW 227 2 min 0,000 mm 5,9 UV-I 941 W/m 14,3 C 31,2 C 11,3 km/h (2 Bft) 92,86 %
20.07.2017 14:28 31,3 C 26,1 C 36 % 1008,3 hPa 0,0 l/m 6,4 km/h (2 Bft) SW 224 2 min 0,000 mm 5,8 UV-I 928 W/m 14,4 C 31,3 C 12,9 km/h (3 Bft) 93,62 %
20.07.2017 14:30 31,6 C 26,1 C 36 % 1008,4 hPa 0,0 l/m 11,1 km/h (2 Bft) S-SW 211 2 min 0,000 mm 5,7 UV-I 896 W/m 14,7 C 31,4 C 16,1 km/h (3 Bft) 93,62 %
20.07.2017 14:32 31,7 C 26,1 C 34 % 1008,4 hPa 0,0 l/m 9,8 km/h (2 Bft) SW 215 2 min 0,000 mm 5,7 UV-I 899 W/m 13,9 C 31,6 C 17,7 km/h (3 Bft) 95,74 %
20.07.2017 14:34 31,6 C 26,1 C 34 % 1008,3 hPa 0,0 l/m 8,8 km/h (2 Bft) SW 236 2 min 0,000 mm 5,7 UV-I 895 W/m 13,8 C 31,5 C 16,1 km/h (3 Bft) 91,49 %
20.07.2017 14:36 31,4 C 26,1 C 34 % 1008,4 hPa 0,0 l/m 10,0 km/h (2 Bft) SW 222 2 min 0,000 mm 5,6 UV-I 885 W/m 13,6 C 31,2 C 16,1 km/h (3 Bft) 93,62 %
20.07.2017 14:38 31,2 C 26,1 C 33 % 1008,2 hPa 0,0 l/m 4,7 km/h (1 Bft) SO 142 2 min 0,000 mm 5,6 UV-I 894 W/m 13,0 C 31,2 C 9,7 km/h (2 Bft) 92,31 %
20.07.2017 14:40 31,1 C 26,1 C 34 % 1008,2 hPa 0,0 l/m 5,6 km/h (1 Bft) SW 218 2 min 0,000 mm 5,5 UV-I 872 W/m 13,4 C 31,1 C 11,3 km/h (2 Bft) 95,74 %
20.07.2017 14:42 31,2 C 26,1 C 35 % 1008,2 hPa 0,0 l/m 13,1 km/h (3 Bft) SW 215 2 min 0,000 mm 5,4 UV-I 857 W/m 13,9 C 30,9 C 20,9 km/h (4 Bft) 93,62 %
20.07.2017 14:44 31,3 C 26,1 C 34 % 1008,2 hPa 0,0 l/m 10,9 km/h (2 Bft) S-SO 160 2 min 0,000 mm 5,1 UV-I 792 W/m 13,5 C 31,1 C 20,9 km/h (4 Bft) 94,74 %
20.07.2017 14:46 31,0 C 26,1 C 34 % 1008,1 hPa 0,0 l/m 6,1 km/h (2 Bft) O-SO 109 2 min 0,000 mm 5,0 UV-I 805 W/m 13,3 C 31,0 C 9,7 km/h (2 Bft) 93,62 %
20.07.2017 14:48 30,9 C 26,1 C 36 % 1008,1 hPa 0,0 l/m 1,7 km/h (1 Bft) O-SO 109 2 min 0,000 mm 4,7 UV-I 746 W/m 14,1 C 30,9 C 4,8 km/h (1 Bft) 93,62 %
20.07.2017 14:50 31,0 C 26,1 C 35 % 1008,1 hPa 0,0 l/m 3,2 km/h (1 Bft) W-SW 240 2 min 0,000 mm 4,4 UV-I 671 W/m 13,7 C 31,0 C 12,9 km/h (3 Bft) 93,62 %
20.07.2017 14:52 31,1 C 26,1 C 35 % 1008,1 hPa 0,0 l/m 7,2 km/h (2 Bft) S 182 2 min 0,000 mm 4,2 UV-I 656 W/m 13,8 C 31,1 C 12,9 km/h (3 Bft) 93,62 %
20.07.2017 14:54 31,2 C 26,1 C 34 % 1008,1 hPa 0,0 l/m 9,6 km/h (2 Bft) SW 232 2 min 0,000 mm 4,3 UV-I 653 W/m 13,4 C 31,0 C 16,1 km/h (3 Bft) 95,74 %
20.07.2017 14:56 31,2 C 26,1 C 34 % 1008,0 hPa 0,0 l/m 13,5 km/h (3 Bft) S-SW 206 2 min 0,000 mm 4,3 UV-I 681 W/m 13,4 C 30,9 C 19,3 km/h (3 Bft) 95,74 %
20.07.2017 14:58 31,2 C 26,1 C 34 % 1008,0 hPa 0,0 l/m 8,1 km/h (2 Bft) S-SW 205 2 min 0,000 mm 4,4 UV-I 714 W/m 13,4 C 31,1 C 14,5 km/h (3 Bft) 96,00 %
20.07.2017 15:00 31,3 C 26,1 C 34 % 1008,0 hPa 0,0 l/m 8,4 km/h (2 Bft) S-SW 213 2 min 0,635 mm 4,4 UV-I 704 W/m 13,5 C 31,2 C 14,5 km/h (3 Bft) 97,87 %
20.07.2017 15:02 31,2 C 26,1 C 32 % 1008,0 hPa 0,0 l/m 5,1 km/h (1 Bft) SW 227 2 min 0,000 mm 4,5 UV-I 725 W/m 12,5 C 31,2 C 9,7 km/h (2 Bft) 100,00 %
20.07.2017 15:04 31,0 C 26,1 C 33 % 1008,0 hPa 0,0 l/m 1,3 km/h (1 Bft) SW 218 2 min 0,000 mm 4,7 UV-I 809 W/m 12,8 C 31,0 C 3,2 km/h (1 Bft) 98,11 %
20.07.2017 15:06 31,2 C 26,1 C 35 % 1007,9 hPa 0,0 l/m 8,0 km/h (2 Bft) S 172 2 min 0,000 mm 3,9 UV-I 804 W/m 13,9 C 31,1 C 17,7 km/h (3 Bft) 97,50 %
20.07.2017 15:08 31,3 C 26,1 C 34 % 1008,0 hPa 0,0 l/m 12,3 km/h (3 Bft) W-SW 248 2 min 0,000 mm 3,9 UV-I 790 W/m 13,5 C 31,0 C 17,7 km/h (3 Bft) 95,74 %
20.07.2017 15:10 31,2 C 26,1 C 33 % 1007,9 hPa 0,0 l/m 5,6 km/h (1 Bft) SW 220 2 min 0,000 mm 3,9 UV-I 693 W/m 13,0 C 31,2 C 11,3 km/h (2 Bft) 98,00 %
20.07.2017 15:12 31,3 C 26,1 C 36 % 1007,9 hPa 0,0 l/m 12,5 km/h (3 Bft) W-SW 242 2 min 0,000 mm 3,7 UV-I 628 W/m 14,4 C 31,0 C 22,5 km/h (4 Bft) 95,74 %
20.07.2017 15:14 31,2 C 26,1 C 34 % 1007,9 hPa 0,0 l/m 10,0 km/h (2 Bft) SW 236 2 min 0,000 mm 3,4 UV-I 482 W/m 13,4 C 31,0 C 20,9 km/h (4 Bft) 97,87 %
20.07.2017 15:16 31,1 C 26,1 C 35 % 1007,8 hPa 0,0 l/m 7,2 km/h (2 Bft) W 281 0 min 0,000 mm 2,9 UV-I 415 W/m 13,8 C 31,1 C 11,3 km/h (2 Bft) 97,87 %
20.07.2017 15:18 31,1 C 26,1 C 36 % 1007,8 hPa 0,0 l/m 10,3 km/h (2 Bft) S-SO 160 0 min 0,000 mm 2,9 UV-I 416 W/m 14,2 C 30,9 C 14,5 km/h (3 Bft) 100,00 %
20.07.2017 15:20 30,9 C 26,1 C 36 % 1007,8 hPa 0,0 l/m 6,8 km/h (2 Bft) W-SW 250 2 min 0,000 mm 3,2 UV-I 509 W/m 14,1 C 30,9 C 11,3 km/h (2 Bft) 97,87 %
20.07.2017 15:22 30,9 C 26,1 C 37 % 1007,8 hPa 0,0 l/m 6,7 km/h (2 Bft) W-SW 247 2 min 0,000 mm 3,2 UV-I 509 W/m 14,5 C 30,9 C 11,3 km/h (2 Bft) 93,62 %
20.07.2017 15:24 30,7 C 26,1 C 36 % 1007,8 hPa 0,0 l/m 5,0 km/h (1 Bft) SW 234 2 min 0,000 mm 3,2 UV-I 490 W/m 13,9 C 30,7 C 11,3 km/h (2 Bft) 100,00 %
20.07.2017 15:26 30,7 C 26,1 C 36 % 1007,8 hPa 0,0 l/m 6,4 km/h (2 Bft) SW 231 2 min 0,000 mm 3,3 UV-I 534 W/m 13,9 C 30,7 C 9,7 km/h (2 Bft) 97,87 %
20.07.2017 15:28 30,8 C 26,1 C 37 % 1007,8 hPa 0,0 l/m 6,8 km/h (2 Bft) S-SW 197 2 min 0,000 mm 3,2 UV-I 545 W/m 14,4 C 30,8 C 9,7 km/h (2 Bft) 95,74 %
20.07.2017 15:30 30,9 C 26,1 C 37 % 1007,7 hPa 0,0 l/m 6,2 km/h (2 Bft) SW 232 2 min 0,000 mm 3,0 UV-I 465 W/m 14,5 C 30,9 C 11,3 km/h (2 Bft) 97,14 %
20.07.2017 15:32 30,9 C 26,1 C 37 % 1007,7 hPa 0,0 l/m 6,5 km/h (2 Bft) SW 218 2 min 0,000 mm 3,1 UV-I 508 W/m 14,5 C 30,9 C 11,3 km/h (2 Bft) 98,00 %
20.07.2017 15:34 30,9 C 26,1 C 38 % 1007,7 hPa 0,0 l/m 3,1 km/h (1 Bft) SW 220 2 min 0,000 mm 3,3 UV-I 583 W/m 14,9 C 30,9 C 6,4 km/h (2 Bft) 100,00 %
20.07.2017 15:36 30,9 C 26,1 C 36 % 1007,6 hPa 0,0 l/m 8,9 km/h (2 Bft) SW 231 2 min 0,000 mm 3,0 UV-I 482 W/m 14,1 C 30,7 C 17,7 km/h (3 Bft) 100,00 %
20.07.2017 15:38 30,9 C 26,1 C 37 % 1007,6 hPa 0,0 l/m 8,3 km/h (2 Bft) SW 217 2 min 0,000 mm 3,2 UV-I 582 W/m 14,5 C 30,8 C 14,5 km/h (3 Bft) 97,87 %
20.07.2017 15:40 30,9 C 26,1 C 37 % 1007,5 hPa 0,0 l/m 8,5 km/h (2 Bft) W-SW 240 2 min 0,000 mm 3,3 UV-I 587 W/m 14,5 C 30,8 C 16,1 km/h (3 Bft) 97,87 %
20.07.2017 15:42 31,0 C 26,1 C 36 % 1007,5 hPa 0,0 l/m 7,6 km/h (2 Bft) SW 236 2 min 0,000 mm 3,3 UV-I 585 W/m 14,2 C 30,9 C 12,9 km/h (3 Bft) 95,83 %
20.07.2017 15:44 31,1 C 26,1 C 37 % 1007,5 hPa 0,0 l/m 2,8 km/h (1 Bft) SW 233 2 min 0,000 mm 3,8 UV-I 758 W/m 14,7 C 31,1 C 6,4 km/h (2 Bft) 100,00 %
20.07.2017 15:46 31,2 C 26,1 C 37 % 1007,5 hPa 0,0 l/m 8,1 km/h (2 Bft) W-SW 242 2 min 0,000 mm 4,0 UV-I 785 W/m 14,8 C 31,1 C 16,1 km/h (3 Bft) 95,74 %
20.07.2017 15:48 31,5 C 26,1 C 36 % 1007,5 hPa 0,0 l/m 5,0 km/h (1 Bft) W 277 2 min 0,000 mm 3,9 UV-I 750 W/m 14,6 C 31,5 C 9,7 km/h (2 Bft) 100,00 %
20.07.2017 15:50 31,7 C 26,1 C 37 % 1007,5 hPa 0,0 l/m 5,4 km/h (1 Bft) SW 236 2 min 0,000 mm 3,7 UV-I 706 W/m 15,2 C 31,7 C 9,7 km/h (2 Bft) 93,62 %
20.07.2017 15:52 31,8 C 26,1 C 35 % 1007,5 hPa 0,0 l/m 4,1 km/h (1 Bft) W-SW 238 2 min 0,000 mm 3,7 UV-I 710 W/m 14,4 C 31,8 C 8,0 km/h (2 Bft) 95,74 %
20.07.2017 15:54 31,8 C 26,1 C 36 % 1007,5 hPa 0,0 l/m 2,9 km/h (1 Bft) S 191 2 min 0,000 mm 3,5 UV-I 683 W/m 14,9 C 31,8 C 9,7 km/h (2 Bft) 97,87 %
20.07.2017 15:56 31,7 C 26,1 C 36 % 1007,4 hPa 0,0 l/m 3,7 km/h (1 Bft) S 189 2 min 0,000 mm 3,2 UV-I 558 W/m 14,8 C 31,7 C 6,4 km/h (2 Bft) 100,00 %
20.07.2017 15:58 31,5 C 26,1 C 36 % 1007,4 hPa 0,0 l/m 4,9 km/h (1 Bft) SW 229 2 min 0,000 mm 3,0 UV-I 508 W/m 14,6 C 31,5 C 8,0 km/h (2 Bft) 97,87 %
20.07.2017 16:00 31,5 C 26,1 C 36 % 1007,5 hPa 0,0 l/m 7,9 km/h (2 Bft) W-SW 243 2 min 0,482 mm 2,9 UV-I 537 W/m 14,6 C 31,4 C 12,9 km/h (3 Bft) 100,00 %
20.07.2017 16:02 31,4 C 26,1 C 37 % 1007,5 hPa 0,0 l/m 6,1 km/h (2 Bft) N-NW 340 2 min 0,000 mm 2,7 UV-I 508 W/m 14,9 C 31,4 C 12,9 km/h (3 Bft) 95,74 %
20.07.2017 16:04 31,3 C 26,1 C 36 % 1007,4 hPa 0,0 l/m 4,3 km/h (1 Bft) NW 323 2 min 0,000 mm 2,7 UV-I 425 W/m 14,4 C 31,3 C 11,3 km/h (2 Bft) 97,87 %
20.07.2017 16:06 31,3 C 26,1 C 37 % 1007,4 hPa 0,0 l/m 2,8 km/h (1 Bft) N-NO 25 2 min 0,000 mm 3,0 UV-I 524 W/m 14,8 C 31,3 C 4,8 km/h (1 Bft) 100,00 %
20.07.2017 16:08 31,5 C 26,1 C 37 % 1007,3 hPa 0,0 l/m 3,9 km/h (1 Bft) N-NO 13 2 min 0,000 mm 3,1 UV-I 597 W/m 15,0 C 31,5 C 12,9 km/h (3 Bft) 97,87 %
20.07.2017 16:10 31,7 C 26,1 C 37 % 1007,2 hPa 0,0 l/m 9,9 km/h (2 Bft) N-NO 22 2 min 0,000 mm 3,2 UV-I 648 W/m 15,2 C 31,6 C 17,7 km/h (3 Bft) 97,87 %
20.07.2017 16:12 31,8 C 26,1 C 37 % 1007,2 hPa 0,0 l/m 7,4 km/h (2 Bft) NO 34 2 min 0,000 mm 3,2 UV-I 661 W/m 15,3 C 31,8 C 12,9 km/h (3 Bft) 97,87 %
20.07.2017 16:14 31,7 C 26,1 C 35 % 1007,1 hPa 0,0 l/m 3,7 km/h (1 Bft) N-NO 20 2 min 0,000 mm 3,0 UV-I 645 W/m 14,3 C 31,7 C 8,0 km/h (2 Bft) 97,87 %
20.07.2017 16:16 31,8 C 26,1 C 36 % 1007,1 hPa 0,0 l/m 4,1 km/h (1 Bft) N-NW 336 2 min 0,000 mm 3,2 UV-I 666 W/m 14,9 C 31,8 C 8,0 km/h (2 Bft) 97,87 %
20.07.2017 16:18 31,7 C 26,1 C 36 % 1007,1 hPa 0,0 l/m 3,7 km/h (1 Bft) N-NW 327 2 min 0,000 mm 3,2 UV-I 688 W/m 14,8 C 31,7 C 11,3 km/h (2 Bft) 98,00 %
20.07.2017 16:20 31,6 C 26,1 C 35 % 1007,1 hPa 0,0 l/m 5,9 km/h (2 Bft) W-NW 284 2 min 0,000 mm 3,0 UV-I 686 W/m 14,2 C 31,6 C 14,5 km/h (3 Bft) 97,37 %
20.07.2017 16:22 31,3 C 26,1 C 35 % 1007,1 hPa 0,0 l/m 5,8 km/h (2 Bft) W-SW 250 0 min 0,000 mm 2,6 UV-I 366 W/m 14,0 C 31,3 C 9,7 km/h (2 Bft) 93,75 %
20.07.2017 16:24 31,2 C 26,1 C 37 % 1007,1 hPa 0,0 l/m 4,5 km/h (1 Bft) W 279 2 min 0,000 mm 2,7 UV-I 382 W/m 14,8 C 31,2 C 6,4 km/h (2 Bft) 98,08 %
20.07.2017 16:26 31,1 C 26,1 C 38 % 1007,1 hPa 0,0 l/m 4,9 km/h (1 Bft) S-SW 213 2 min 0,000 mm 2,9 UV-I 383 W/m 15,1 C 31,1 C 8,0 km/h (2 Bft) 95,83 %
20.07.2017 16:28 31,2 C 26,1 C 38 % 1007,1 hPa 0,0 l/m 7,0 km/h (2 Bft) SW 227 2 min 0,000 mm 2,9 UV-I 544 W/m 15,2 C 31,2 C 11,3 km/h (2 Bft) 97,87 %
20.07.2017 16:30 31,4 C 26,1 C 36 % 1007,1 hPa 0,0 l/m 4,9 km/h (1 Bft) W-NW 283 2 min 0,000 mm 2,9 UV-I 720 W/m 14,5 C 31,4 C 8,0 km/h (2 Bft) 93,62 %
20.07.2017 16:32 31,7 C 26,1 C 37 % 1007,1 hPa 0,0 l/m 4,0 km/h (1 Bft) N-NW 333 2 min 0,000 mm 2,8 UV-I 686 W/m 15,2 C 31,7 C 8,0 km/h (2 Bft) 91,49 %
20.07.2017 16:34 31,9 C 26,1 C 36 % 1007,2 hPa 0,0 l/m 4,0 km/h (1 Bft) SW 227 2 min 0,000 mm 2,8 UV-I 629 W/m 14,9 C 31,9 C 9,7 km/h (2 Bft) 94,74 %
20.07.2017 16:36 31,9 C 26,1 C 35 % 1007,1 hPa 0,0 l/m 7,9 km/h (2 Bft) S 188 2 min 0,000 mm 2,5 UV-I 558 W/m 14,5 C 31,8 C 11,3 km/h (2 Bft) 95,74 %
20.07.2017 16:38 31,7 C 26,1 C 35 % 1007,1 hPa 0,0 l/m 3,0 km/h (1 Bft) W-NW 296 2 min 0,000 mm 2,4 UV-I 566 W/m 14,3 C 31,7 C 8,0 km/h (2 Bft) 93,62 %
20.07.2017 16:40 31,6 C 26,1 C 35 % 1007,2 hPa 0,0 l/m 4,6 km/h (1 Bft) NW 324 2 min 0,000 mm 2,3 UV-I 522 W/m 14,2 C 31,6 C 9,7 km/h (2 Bft) 94,00 %
20.07.2017 16:42 31,4 C 26,1 C 36 % 1007,2 hPa 0,0 l/m 2,0 km/h (1 Bft) N 5 2 min 0,000 mm 2,3 UV-I 513 W/m 14,5 C 31,4 C 8,0 km/h (2 Bft) 95,74 %
20.07.2017 16:44 31,3 C 26,1 C 36 % 1007,2 hPa 0,0 l/m 4,4 km/h (1 Bft) W-NW 296 2 min 0,000 mm 2,3 UV-I 551 W/m 14,4 C 31,3 C 8,0 km/h (2 Bft) 98,00 %
20.07.2017 16:46 31,3 C 26,1 C 36 % 1007,2 hPa 0,0 l/m 3,0 km/h (1 Bft) W-NW 298 2 min 0,000 mm 2,3 UV-I 530 W/m 14,4 C 31,3 C 6,4 km/h (2 Bft) 97,87 %
20.07.2017 16:48 31,3 C 26,1 C 36 % 1007,1 hPa 0,0 l/m 5,4 km/h (1 Bft) NW 309 2 min 0,000 mm 2,2 UV-I 571 W/m 14,4 C 31,3 C 12,9 km/h (3 Bft) 97,87 %
20.07.2017 16:50 31,2 C 26,1 C 37 % 1007,1 hPa 0,0 l/m 4,6 km/h (1 Bft) N-NW 331 2 min 0,000 mm 2,0 UV-I 412 W/m 14,8 C 31,2 C 8,0 km/h (2 Bft) 93,62 %
20.07.2017 16:52 31,1 C 26,1 C 36 % 1007,0 hPa 0,0 l/m 3,2 km/h (1 Bft) NW 324 2 min 0,000 mm 2,0 UV-I 362 W/m 14,2 C 31,1 C 6,4 km/h (2 Bft) 95,74 %
20.07.2017 16:54 31,1 C 26,1 C 36 % 1007,0 hPa 0,0 l/m 6,5 km/h (2 Bft) NW 312 2 min 0,000 mm 1,9 UV-I 356 W/m 14,2 C 31,1 C 12,9 km/h (3 Bft) 95,74 %
20.07.2017 16:56 30,9 C 26,1 C 36 % 1007,0 hPa 0,0 l/m 5,4 km/h (1 Bft) N-NW 333 2 min 0,000 mm 1,9 UV-I 351 W/m 14,1 C 30,9 C 11,3 km/h (2 Bft) 97,87 %
20.07.2017 16:58 30,9 C 26,1 C 37 % 1007,1 hPa 0,0 l/m 5,2 km/h (1 Bft) NW 308 2 min 0,000 mm 2,0 UV-I 446 W/m 14,5 C 30,9 C 9,7 km/h (2 Bft) 95,74 %
20.07.2017 17:00 30,9 C 26,1 C 37 % 1007,1 hPa 0,0 l/m 4,5 km/h (1 Bft) W-NW 297 2 min 0,432 mm 2,1 UV-I 463 W/m 14,5 C 30,9 C 9,7 km/h (2 Bft) 93,62 %
20.07.2017 17:02 31,0 C 26,1 C 38 % 1007,0 hPa 0,0 l/m 4,4 km/h (1 Bft) NW 321 2 min 0,000 mm 2,1 UV-I 508 W/m 15,0 C 31,0 C 6,4 km/h (2 Bft) 93,62 %
20.07.2017 17:04 31,2 C 26,1 C 37 % 1007,0 hPa 0,0 l/m 3,1 km/h (1 Bft) N 355 2 min 0,000 mm 2,0 UV-I 490 W/m 14,8 C 31,2 C 4,8 km/h (1 Bft) 97,87 %
20.07.2017 17:06 31,3 C 26,1 C 37 % 1007,0 hPa 0,0 l/m 3,1 km/h (1 Bft) NW 309 2 min 0,000 mm 1,9 UV-I 502 W/m 14,8 C 31,3 C 4,8 km/h (1 Bft) 95,83 %
20.07.2017 17:08 31,3 C 26,7 C 37 % 1006,9 hPa 0,0 l/m 3,0 km/h (1 Bft) N-NO 21 2 min 0,000 mm 1,9 UV-I 505 W/m 14,8 C 31,3 C 6,4 km/h (2 Bft) 97,87 %
20.07.2017 17:10 31,7 C 26,7 C 36 % 1006,9 hPa 0,0 l/m 5,3 km/h (1 Bft) W 279 2 min 0,000 mm 1,8 UV-I 491 W/m 14,8 C 31,7 C 12,9 km/h (3 Bft) 94,74 %
20.07.2017 17:12 31,5 C 26,7 C 35 % 1006,9 hPa 0,0 l/m 6,3 km/h (2 Bft) W-SW 246 2 min 0,000 mm 1,6 UV-I 390 W/m 14,2 C 31,5 C 12,9 km/h (3 Bft) 93,62 %
20.07.2017 17:14 31,3 C 26,7 C 36 % 1006,9 hPa 0,0 l/m 4,0 km/h (1 Bft) W-SW 238 2 min 0,000 mm 1,3 UV-I 350 W/m 14,4 C 31,3 C 8,0 km/h (2 Bft) 93,62 %
20.07.2017 17:16 31,1 C 26,7 C 36 % 1007,0 hPa 0,0 l/m 2,3 km/h (1 Bft) N 5 0 min 0,000 mm 1,2 UV-I 181 W/m 14,2 C 31,1 C 8,0 km/h (2 Bft) 93,62 %
20.07.2017 17:18 30,8 C 26,7 C 37 % 1007,0 hPa 0,0 l/m 3,8 km/h (1 Bft) N 351 0 min 0,000 mm 1,1 UV-I 167 W/m 14,4 C 30,8 C 8,0 km/h (2 Bft) 95,74 %
20.07.2017 17:20 30,7 C 26,7 C 37 % 1007,0 hPa 0,0 l/m 4,5 km/h (1 Bft) NW 317 0 min 0,000 mm 1,0 UV-I 158 W/m 14,3 C 30,7 C 12,9 km/h (3 Bft) 97,87 %
20.07.2017 17:22 30,4 C 26,7 C 37 % 1007,0 hPa 0,0 l/m 4,0 km/h (1 Bft) NW 304 0 min 0,000 mm 0,9 UV-I 152 W/m 14,0 C 30,4 C 12,9 km/h (3 Bft) 98,00 %
20.07.2017 17:24 30,3 C 26,7 C 38 % 1007,0 hPa 0,0 l/m 1,4 km/h (1 Bft) NW 304 0 min 0,000 mm 0,9 UV-I 151 W/m 14,4 C 30,3 C 3,2 km/h (1 Bft) 96,00 %
20.07.2017 17:26 30,1 C 26,7 C 38 % 1006,9 hPa 0,0 l/m 1,6 km/h (1 Bft) NW 304 0 min 0,000 mm 0,8 UV-I 151 W/m 14,2 C 30,1 C 3,2 km/h (1 Bft) 95,74 %
20.07.2017 17:28 30,1 C 26,7 C 39 % 1006,9 hPa 0,0 l/m 4,0 km/h (1 Bft) W-SW 257 0 min 0,000 mm 0,8 UV-I 150 W/m 14,6 C 30,1 C 11,3 km/h (2 Bft) 95,74 %
20.07.2017 17:30 30,0 C 26,7 C 39 % 1006,8 hPa 0,0 l/m 5,6 km/h (1 Bft) NW 309 0 min 0,000 mm 0,8 UV-I 150 W/m 14,5 C 30,0 C 12,9 km/h (3 Bft) 97,87 %
20.07.2017 17:32 29,8 C 26,1 C 39 % 1006,9 hPa 0,0 l/m 4,3 km/h (1 Bft) NW 311 0 min 0,000 mm 0,7 UV-I 149 W/m 14,3 C 29,8 C 12,9 km/h (3 Bft) 92,11 %
20.07.2017 17:34 29,7 C 26,7 C 40 % 1006,9 hPa 0,0 l/m 4,3 km/h (1 Bft) N-NW 329 0 min 0,000 mm 0,7 UV-I 146 W/m 14,6 C 29,7 C 8,0 km/h (2 Bft) 96,00 %
20.07.2017 17:36 29,7 C 26,7 C 40 % 1007,0 hPa 0,0 l/m 1,8 km/h (1 Bft) NW 320 0 min 0,000 mm 0,7 UV-I 140 W/m 14,6 C 29,7 C 4,8 km/h (1 Bft) 92,00 %
20.07.2017 17:38 29,6 C 26,1 C 40 % 1007,1 hPa 0,0 l/m 2,5 km/h (1 Bft) NW 319 0 min 0,000 mm 0,6 UV-I 132 W/m 14,5 C 29,6 C 4,8 km/h (1 Bft) 97,87 %
20.07.2017 17:40 29,6 C 26,1 C 41 % 1007,0 hPa 0,0 l/m 3,3 km/h (1 Bft) N-NW 341 0 min 0,000 mm 0,6 UV-I 125 W/m 14,9 C 29,6 C 6,4 km/h (2 Bft) 96,00 %
20.07.2017 17:42 29,6 C 26,1 C 41 % 1007,1 hPa 0,0 l/m 2,7 km/h (1 Bft) N-NW 336 0 min 0,000 mm 0,5 UV-I 120 W/m 14,9 C 29,6 C 6,4 km/h (2 Bft) 97,44 %
20.07.2017 17:44 29,5 C 26,1 C 41 % 1007,1 hPa 0,0 l/m 3,0 km/h (1 Bft) N-NW 336 0 min 0,000 mm 0,5 UV-I 112 W/m 14,8 C 29,5 C 8,0 km/h (2 Bft) 95,74 %
20.07.2017 17:46 29,5 C 26,1 C 41 % 1007,1 hPa 0,0 l/m 1,8 km/h (1 Bft) N-NW 336 0 min 0,000 mm 0,0 UV-I 98 W/m 14,8 C 29,5 C 4,8 km/h (1 Bft) 97,87 %
20.07.2017 17:48 29,4 C 26,1 C 41 % 1007,2 hPa 0,0 l/m 0,5 km/h (0 Bft) N-NW 336 0 min 0,000 mm 0,0 UV-I 82 W/m 14,7 C 29,4 C 1,6 km/h (1 Bft) 93,62 %
20.07.2017 17:50 29,4 C 26,1 C 42 % 1007,2 hPa 0,0 l/m 0,5 km/h (0 Bft) N-NW 336 0 min 0,000 mm 0,0 UV-I 65 W/m 15,1 C 29,4 C 1,6 km/h (1 Bft) 95,74 %
20.07.2017 17:52 29,4 C 26,1 C 40 % 1007,3 hPa 0,0 l/m 4,1 km/h (1 Bft) NW 313 0 min 0,000 mm 0,0 UV-I 50 W/m 14,4 C 29,4 C 9,7 km/h (2 Bft) 97,87 %
20.07.2017 17:54 29,3 C 26,1 C 41 % 1007,3 hPa 0,0 l/m 3,7 km/h (1 Bft) W-NW 290 0 min 0,000 mm 0,0 UV-I 41 W/m 14,7 C 29,3 C 6,4 km/h (2 Bft) 97,87 %
20.07.2017 17:56 29,3 C 26,1 C 41 % 1007,3 hPa 0,0 l/m 1,6 km/h (1 Bft) W-NW 287 0 min 0,000 mm 0,0 UV-I 36 W/m 14,7 C 29,3 C 4,8 km/h (1 Bft) 98,00 %
20.07.2017 17:59 29,1 C 26,1 C 42 % 1007,3 hPa 0,0 l/m 1,8 km/h (1 Bft) N-NO 23 0 min 0,000 mm 0,0 UV-I 32 W/m 14,9 C 29,1 C 4,8 km/h (1 Bft) 98,57 %
20.07.2017 18:00 29,1 C 26,1 C 42 % 1007,3 hPa 0,0 l/m 3,3 km/h (1 Bft) W 271 0 min 0,178 mm 0,0 UV-I 30 W/m 14,9 C 29,1 C 4,8 km/h (1 Bft) 100,00 %
20.07.2017 18:02 29,0 C 26,1 C 42 % 1007,5 hPa 0,0 l/m 0,3 km/h (0 Bft) W 271 0 min 0,000 mm 0,0 UV-I 27 W/m 14,8 C 29,0 C 1,6 km/h (1 Bft) 95,74 %
20.07.2017 18:04 28,9 C 26,1 C 43 % 1007,6 hPa 0,0 l/m 2,4 km/h (1 Bft) W 271 0 min 0,000 mm 0,0 UV-I 22 W/m 15,0 C 28,9 C 3,2 km/h (1 Bft) 93,88 %
20.07.2017 18:06 28,9 C 26,1 C 44 % 1007,7 hPa 0,0 l/m 3,5 km/h (1 Bft) W 271 0 min 0,000 mm 0,0 UV-I 19 W/m 15,4 C 28,9 C 4,8 km/h (1 Bft) 96,00 %
20.07.2017 18:08 28,8 C 26,1 C 43 % 1007,8 hPa 0,0 l/m 4,0 km/h (1 Bft) W 265 0 min 0,000 mm 0,0 UV-I 16 W/m 15,0 C 28,8 C 9,7 km/h (2 Bft) 95,74 %
20.07.2017 18:10 28,8 C 26,1 C 43 % 1007,9 hPa 0,0 l/m 7,5 km/h (2 Bft) W 264 0 min 0,000 mm 0,0 UV-I 14 W/m 15,0 C 28,7 C 12,9 km/h (3 Bft) 91,49 %
20.07.2017 18:12 28,7 C 26,1 C 43 % 1008,6 hPa 0,0 l/m 11,6 km/h (2 Bft) W-SW 240 0 min 0,000 mm 0,0 UV-I 10 W/m 14,9 C 28,1 C 17,7 km/h (3 Bft) 93,62 %
20.07.2017 18:14 28,7 C 26,1 C 46 % 1009,2 hPa 0,0 l/m 35,8 km/h (5 Bft) SW 236 0 min 0,000 mm 0,0 UV-I 8 W/m 15,9 C 26,7 C 77,2 km/h (9 Bft) 96,00 %
20.07.2017 18:16 27,6 C 26,1 C 49 % 1009,2 hPa 0,0 l/m 37,0 km/h (5 Bft) SW 225 0 min 0,000 mm 0,0 UV-I 6 W/m 15,9 C 25,1 C 56,3 km/h (7 Bft) 95,74 %
20.07.2017 18:18 26,2 C 26,1 C 54 % 1009,2 hPa 0,0 l/m 25,6 km/h (4 Bft) W-SW 243 0 min 0,000 mm 0,0 UV-I 5 W/m 16,1 C 23,7 C 43,5 km/h (6 Bft) 95,74 %
20.07.2017 18:20 25,0 C 26,1 C 58 % 1009,2 hPa 0,0 l/m 30,8 km/h (5 Bft) S 191 0 min 0,000 mm 0,0 UV-I 3 W/m 16,1 C 21,7 C 59,5 km/h (7 Bft) 87,23 %
20.07.2017 18:22 24,1 C 26,1 C 60 % 1009,3 hPa 0,0 l/m 36,4 km/h (5 Bft) W-SW 240 0 min 0,000 mm 0,0 UV-I 5 W/m 15,8 C 20,0 C 59,5 km/h (7 Bft) 94,44 %
20.07.2017 18:24 23,2 C 26,1 C 64 % 1009,1 hPa 0,0 l/m 40,8 km/h (6 Bft) SW 225 0 min 0,000 mm 0,0 UV-I 5 W/m 16,0 C 18,4 C 62,8 km/h (8 Bft) 95,74 %
20.07.2017 18:26 22,4 C 26,1 C 67 % 1009,5 hPa 0,0 l/m 41,4 km/h (6 Bft) W-SW 250 0 min 0,000 mm 0,0 UV-I 5 W/m 16,0 C 17,2 C 69,2 km/h (8 Bft) 97,87 %
20.07.2017 18:28 21,7 C 26,1 C 72 % 1009,8 hPa 0,6 l/m 33,9 km/h (5 Bft) SW 236 0 min 0,000 mm 0,0 UV-I 4 W/m 16,4 C 16,7 C 51,5 km/h (7 Bft) 97,87 %
20.07.2017 18:30 21,0 C 26,1 C 74 % 1010,0 hPa 0,4 l/m 38,6 km/h (5 Bft) W 275 0 min 0,000 mm 0,0 UV-I 0 W/m 16,2 C 15,3 C 59,5 km/h (7 Bft) 95,74 %
20.07.2017 18:32 20,3 C 26,1 C 76 % 1010,1 hPa 2,2 l/m 46,2 km/h (6 Bft) W-SW 242 0 min 0,000 mm 0,0 UV-I 0 W/m 15,9 C 13,7 C 62,8 km/h (8 Bft) 96,00 %
20.07.2017 18:34 19,6 C 26,1 C 79 % 1010,2 hPa 4,4 l/m 35,6 km/h (5 Bft) W 263 0 min 0,000 mm 0,0 UV-I 0 W/m 15,9 C 13,5 C 56,3 km/h (7 Bft) 96,00 %
20.07.2017 18:36 19,0 C 26,1 C 81 % 1010,2 hPa 1,4 l/m 33,5 km/h (5 Bft) W-SW 242 0 min 0,000 mm 0,0 UV-I 0 W/m 15,7 C 12,9 C 48,3 km/h (6 Bft) 98,00 %
20.07.2017 18:38 18,6 C 26,1 C 82 % 1010,2 hPa 1,6 l/m 35,9 km/h (5 Bft) W-SW 238 0 min 0,000 mm 0,0 UV-I 0 W/m 15,5 C 12,0 C 53,1 km/h (7 Bft) 97,87 %
20.07.2017 18:40 18,3 C 26,1 C 84 % 1010,2 hPa 2,2 l/m 33,3 km/h (5 Bft) W-SW 252 0 min 0,000 mm 0,0 UV-I 0 W/m 15,5 C 11,9 C 48,3 km/h (6 Bft) 97,87 %
20.07.2017 18:43 17,9 C 26,1 C 86 % 1010,5 hPa 3,8 l/m 31,8 km/h (5 Bft) S-SW 212 0 min 0,000 mm 0,0 UV-I 0 W/m 15,5 C 11,5 C 48,3 km/h (6 Bft) 100,00 %
20.07.2017 18:44 17,9 C 26,1 C 87 % 1010,5 hPa 1,2 l/m 32,6 km/h (5 Bft) SW 234 0 min 0,000 mm 0,0 UV-I 0 W/m 15,7 C 11,4 C 43,5 km/h (6 Bft) 100,00 %
20.07.2017 18:46 17,8 C 26,1 C 88 % 1010,7 hPa 2,0 l/m 30,2 km/h (5 Bft) SW 223 0 min 0,000 mm 0,0 UV-I 0 W/m 15,8 C 11,6 C 43,5 km/h (6 Bft) 98,00 %
20.07.2017 18:48 17,7 C 26,1 C 89 % 1010,7 hPa 3,4 l/m 28,0 km/h (4 Bft) W-SW 255 0 min 0,000 mm 0,0 UV-I 0 W/m 15,9 C 11,8 C 41,8 km/h (6 Bft) 98,00 %
20.07.2017 18:50 17,6 C 26,1 C 89 % 1010,7 hPa 1,8 l/m 33,8 km/h (5 Bft) SW 227 0 min 0,000 mm 0,0 UV-I 0 W/m 15,8 C 10,8 C 49,9 km/h (6 Bft) 100,00 %
20.07.2017 18:52 17,5 C 26,1 C 90 % 1010,8 hPa 1,2 l/m 31,2 km/h (5 Bft) SW 220 0 min 0,000 mm 0,0 UV-I 0 W/m 15,8 C 11,0 C 49,9 km/h (6 Bft) 94,87 %
20.07.2017 18:54 17,4 C 26,1 C 90 % 1011,0 hPa 1,2 l/m 30,7 km/h (5 Bft) S 184 0 min 0,000 mm 0,0 UV-I 4 W/m 15,7 C 11,0 C 48,3 km/h (6 Bft) 100,00 %
20.07.2017 18:56 17,4 C 26,1 C 91 % 1011,2 hPa 0,6 l/m 24,6 km/h (4 Bft) W-SW 245 0 min 0,000 mm 0,0 UV-I 3 W/m 15,9 C 11,9 C 35,4 km/h (5 Bft) 95,83 %
20.07.2017 18:58 17,3 C 26,1 C 91 % 1011,3 hPa 0,8 l/m 30,3 km/h (5 Bft) W-SW 241 0 min 0,000 mm 0,0 UV-I 5 W/m 15,8 C 10,9 C 45,1 km/h (6 Bft) 98,00 %
20.07.2017 19:00 17,3 C 26,1 C 91 % 1011,4 hPa 0,4 l/m 26,8 km/h (4 Bft) SW 217 0 min 0,000 mm 0,0 UV-I 5 W/m 15,8 C 11,4 C 38,6 km/h (5 Bft) 97,87 %
20.07.2017 19:03 17,3 C 26,1 C 92 % 1011,7 hPa 0,4 l/m 25,2 km/h (4 Bft) W-SW 244 0 min 0,152 mm 0,0 UV-I 5 W/m 16,0 C 11,7 C 45,1 km/h (6 Bft) 97,14 %
20.07.2017 19:04 17,2 C 26,1 C 92 % 1011,7 hPa 0,2 l/m 26,0 km/h (4 Bft) SW 224 0 min 0,000 mm 0,0 UV-I 5 W/m 15,9 C 11,4 C 38,6 km/h (5 Bft) 100,00 %
20.07.2017 19:06 17,2 C 26,1 C 92 % 1011,8 hPa 0,2 l/m 25,1 km/h (4 Bft) SW 227 0 min 0,000 mm 0,0 UV-I 5 W/m 15,9 C 11,6 C 40,2 km/h (6 Bft) 96,00 %
20.07.2017 19:08 17,2 C 26,1 C 92 % 1011,8 hPa 0,2 l/m 22,2 km/h (4 Bft) W-SW 247 0 min 0,000 mm 0,0 UV-I 5 W/m 15,9 C 12,1 C 35,4 km/h (5 Bft) 97,87 %
20.07.2017 19:10 17,2 C 26,1 C 92 % 1012,3 hPa 0,4 l/m 22,8 km/h (4 Bft) SW 225 0 min 0,000 mm 0,0 UV-I 5 W/m 15,9 C 12,0 C 35,4 km/h (5 Bft) 97,37 %
20.07.2017 19:12 17,2 C 26,1 C 92 % 1012,1 hPa 0,0 l/m 22,2 km/h (4 Bft) W-SW 249 0 min 0,000 mm 0,0 UV-I 5 W/m 15,9 C 12,1 C 32,2 km/h (5 Bft) 98,15 %
20.07.2017 19:14 17,2 C 26,1 C 92 % 1012,2 hPa 0,2 l/m 20,6 km/h (4 Bft) SW 230 0 min 0,000 mm 0,0 UV-I 5 W/m 15,9 C 12,5 C 30,6 km/h (5 Bft) 97,87 %
20.07.2017 19:16 17,2 C 26,1 C 92 % 1012,3 hPa 0,2 l/m 18,8 km/h (3 Bft) W-SW 237 0 min 0,000 mm 0,0 UV-I 5 W/m 15,9 C 12,9 C 33,8 km/h (5 Bft) 97,87 %
20.07.2017 19:18 17,1 C 26,1 C 92 % 1012,3 hPa 0,0 l/m 20,0 km/h (4 Bft) W-SW 238 0 min 0,000 mm 0,0 UV-I 5 W/m 15,8 C 12,5 C 32,2 km/h (5 Bft) 97,87 %
20.07.2017 19:20 17,1 C 26,1 C 93 % 1012,3 hPa 0,2 l/m 19,9 km/h (4 Bft) S-SW 208 0 min 0,000 mm 0,0 UV-I 5 W/m 16,0 C 12,5 C 32,2 km/h (5 Bft) 97,87 %
20.07.2017 19:22 17,1 C 26,1 C 93 % 1012,4 hPa 0,2 l/m 22,2 km/h (4 Bft) SW 229 0 min 0,000 mm 0,0 UV-I 5 W/m 16,0 C 12,0 C 33,8 km/h (5 Bft) 97,87 %
20.07.2017 19:24 17,1 C 26,1 C 93 % 1012,4 hPa 0,4 l/m 22,7 km/h (4 Bft) W 271 0 min 0,000 mm 0,0 UV-I 5 W/m 16,0 C 11,9 C 33,8 km/h (5 Bft) 100,00 %
20.07.2017 19:26 17,0 C 26,1 C 93 % 1012,5 hPa 0,2 l/m 22,3 km/h (4 Bft) SW 216 0 min 0,000 mm 0,0 UV-I 5 W/m 15,9 C 11,8 C 32,2 km/h (5 Bft) 100,00 %
20.07.2017 19:28 17,0 C 26,1 C 93 % 1012,4 hPa 0,2 l/m 20,5 km/h (4 Bft) SW 220 0 min 0,000 mm 0,0 UV-I 5 W/m 15,9 C 12,2 C 38,6 km/h (5 Bft) 100,00 %
20.07.2017 19:30 16,9 C 26,1 C 93 % 1012,5 hPa 0,2 l/m 16,8 km/h (3 Bft) W-SW 239 0 min 0,000 mm 0,0 UV-I 5 W/m 15,8 C 13,0 C 27,4 km/h (4 Bft) 100,00 %
20.07.2017 19:32 16,9 C 25,6 C 93 % 1012,5 hPa 0,4 l/m 20,3 km/h (4 Bft) W-SW 253 0 min 0,000 mm 0,0 UV-I 5 W/m 15,8 C 12,1 C 33,8 km/h (5 Bft) 93,62 %
20.07.2017 19:34 16,9 C 25,6 C 93 % 1012,6 hPa 0,4 l/m 19,1 km/h (3 Bft) SW 221 0 min 0,000 mm 0,0 UV-I 5 W/m 15,8 C 12,4 C 27,4 km/h (4 Bft) 98,00 %
20.07.2017 19:36 16,9 C 25,6 C 93 % 1012,5 hPa 0,2 l/m 20,2 km/h (4 Bft) W-SW 257 0 min 0,000 mm 0,0 UV-I 5 W/m 15,8 C 12,2 C 32,2 km/h (5 Bft) 97,44 %
20.07.2017 19:38 16,9 C 25,6 C 93 % 1012,5 hPa 0,6 l/m 17,1 km/h (3 Bft) SW 223 0 min 0,000 mm 0,0 UV-I 5 W/m 15,8 C 12,9 C 29,0 km/h (5 Bft) 98,00 %
20.07.2017 19:40 16,9 C 25,6 C 93 % 1012,5 hPa 0,4 l/m 19,4 km/h (3 Bft) W-SW 244 0 min 0,000 mm 0,0 UV-I 5 W/m 15,8 C 12,3 C 29,0 km/h (5 Bft) 98,00 %
20.07.2017 19:42 16,9 C 25,6 C 93 % 1012,5 hPa 0,2 l/m 16,1 km/h (3 Bft) W 259 0 min 0,000 mm 0,0 UV-I 5 W/m 15,8 C 13,2 C 22,5 km/h (4 Bft) 97,87 %
20.07.2017 19:44 16,9 C 25,6 C 93 % 1012,6 hPa 0,4 l/m 16,6 km/h (3 Bft) W-SW 239 0 min 0,000 mm 0,0 UV-I 5 W/m 15,8 C 13,0 C 27,4 km/h (4 Bft) 98,00 %
20.07.2017 19:46 16,8 C 25,6 C 93 % 1012,6 hPa 0,4 l/m 16,8 km/h (3 Bft) W-SW 247 0 min 0,000 mm 0,0 UV-I 5 W/m 15,7 C 12,9 C 22,5 km/h (4 Bft) 100,00 %
20.07.2017 19:48 16,8 C 25,6 C 93 % 1012,7 hPa 0,4 l/m 16,6 km/h (3 Bft) W-SW 245 0 min 0,000 mm 0,0 UV-I 5 W/m 15,7 C 12,9 C 25,7 km/h (4 Bft) 97,87 %
20.07.2017 19:50 16,8 C 25,6 C 93 % 1012,8 hPa 0,4 l/m 18,0 km/h (3 Bft) W-SW 243 0 min 0,000 mm 0,0 UV-I 5 W/m 15,7 C 12,6 C 27,4 km/h (4 Bft) 97,87 %
20.07.2017 19:52 16,8 C 25,6 C 93 % 1012,8 hPa 0,2 l/m 16,3 km/h (3 Bft) SW 221 0 min 0,000 mm 0,0 UV-I 5 W/m 15,7 C 13,0 C 24,1 km/h (4 Bft) 100,00 %
20.07.2017 19:54 16,8 C 25,6 C 94 % 1012,8 hPa 0,2 l/m 19,4 km/h (3 Bft) W 267 0 min 0,000 mm 0,0 UV-I 5 W/m 15,8 C 12,2 C 25,7 km/h (4 Bft) 93,62 %
20.07.2017 19:56 16,9 C 25,6 C 94 % 1012,8 hPa 0,4 l/m 19,4 km/h (3 Bft) SW 225 0 min 0,000 mm 0,0 UV-I 5 W/m 15,9 C 12,3 C 29,0 km/h (5 Bft) 100,00 %
20.07.2017 19:58 16,8 C 25,6 C 94 % 1012,8 hPa 0,2 l/m 21,9 km/h (4 Bft) W 262 0 min 0,000 mm 0,0 UV-I 5 W/m 15,8 C 11,7 C 32,2 km/h (5 Bft) 98,00 %
20.07.2017 20:00 16,9 C 25,6 C 94 % 1012,9 hPa 0,2 l/m 20,4 km/h (4 Bft) W-SW 253 0 min 0,000 mm 0,0 UV-I 5 W/m 15,9 C 12,1 C 29,0 km/h (5 Bft) 97,14 %
20.07.2017 20:02 16,9 C 25,6 C 94 % 1013,0 hPa 0,2 l/m 16,5 km/h (3 Bft) W-SW 244 0 min 0,026 mm 0,0 UV-I 4 W/m 15,9 C 13,1 C 22,5 km/h (4 Bft) 94,34 %
20.07.2017 20:04 16,9 C 25,6 C 94 % 1013,1 hPa 0,4 l/m 15,2 km/h (3 Bft) W-SW 254 0 min 0,000 mm 0,0 UV-I 0 W/m 15,9 C 13,4 C 20,9 km/h (4 Bft) 97,87 %
20.07.2017 20:06 16,9 C 25,6 C 94 % 1013,0 hPa 0,2 l/m 15,3 km/h (3 Bft) W-SW 255 0 min 0,000 mm 0,0 UV-I 5 W/m 15,9 C 13,4 C 24,1 km/h (4 Bft) 95,74 %
20.07.2017 20:08 16,9 C 25,6 C 94 % 1013,0 hPa 0,4 l/m 15,9 km/h (3 Bft) W-SW 252 0 min 0,000 mm 0,0 UV-I 5 W/m 15,9 C 13,2 C 24,1 km/h (4 Bft) 94,00 %
20.07.2017 20:10 16,9 C 25,6 C 94 % 1013,0 hPa 0,4 l/m 16,3 km/h (3 Bft) W 266 0 min 0,000 mm 0,0 UV-I 5 W/m 15,9 C 13,1 C 25,7 km/h (4 Bft) 98,00 %
20.07.2017 20:12 16,9 C 25,6 C 94 % 1013,0 hPa 0,8 l/m 17,3 km/h (3 Bft) W-SW 243 0 min 0,000 mm 0,0 UV-I 5 W/m 15,9 C 12,9 C 25,7 km/h (4 Bft) 95,74 %
20.07.2017 20:14 16,8 C 25,6 C 94 % 1013,0 hPa 1,0 l/m 13,7 km/h (3 Bft) W-SW 244 0 min 0,000 mm 0,0 UV-I 1 W/m 15,8 C 13,8 C 24,1 km/h (4 Bft) 97,87 %
20.07.2017 20:16 16,8 C 25,6 C 94 % 1013,1 hPa 0,8 l/m 14,0 km/h (3 Bft) W-SW 241 0 min 0,000 mm 0,0 UV-I 2 W/m 15,8 C 13,7 C 20,9 km/h (4 Bft) 95,74 %
20.07.2017 20:18 16,8 C 25,6 C 94 % 1013,0 hPa 1,4 l/m 12,2 km/h (2 Bft) W-SW 254 0 min 0,000 mm 0,0 UV-I 5 W/m 15,8 C 14,3 C 17,7 km/h (3 Bft) 95,74 %
20.07.2017 20:20 16,8 C 25,6 C 95 % 1013,1 hPa 0,8 l/m 14,9 km/h (3 Bft) SW 236 0 min 0,000 mm 0,0 UV-I 5 W/m 16,0 C 13,4 C 20,9 km/h (4 Bft) 97,44 %
20.07.2017 20:22 16,8 C 25,6 C 94 % 1013,1 hPa 0,6 l/m 15,2 km/h (3 Bft) W-SW 247 0 min 0,000 mm 0,0 UV-I 5 W/m 15,8 C 13,3 C 22,5 km/h (4 Bft) 96,00 %
20.07.2017 20:24 16,8 C 25,6 C 95 % 1013,1 hPa 0,6 l/m 15,4 km/h (3 Bft) W-SW 248 0 min 0,000 mm 0,0 UV-I 5 W/m 16,0 C 13,3 C 22,5 km/h (4 Bft) 95,74 %
20.07.2017 20:26 16,8 C 25,6 C 95 % 1013,1 hPa 0,8 l/m 17,4 km/h (3 Bft) SW 227 0 min 0,000 mm 0,0 UV-I 5 W/m 16,0 C 12,7 C 27,4 km/h (4 Bft) 91,49 %
20.07.2017 20:28 16,8 C 25,6 C 95 % 1013,1 hPa 0,4 l/m 13,4 km/h (3 Bft) W 259 0 min 0,000 mm 0,0 UV-I 5 W/m 16,0 C 13,9 C 20,9 km/h (4 Bft) 97,87 %
20.07.2017 20:30 16,8 C 25,6 C 95 % 1013,1 hPa 1,0 l/m 13,2 km/h (3 Bft) SW 230 0 min 0,000 mm 0,0 UV-I 0 W/m 16,0 C 13,9 C 20,9 km/h (4 Bft) 95,92 %
20.07.2017 20:32 16,8 C 25,6 C 95 % 1013,1 hPa 0,8 l/m 9,5 km/h (2 Bft) W-SW 251 0 min 0,000 mm 0,0 UV-I 0 W/m 16,0 C 15,3 C 16,1 km/h (3 Bft) 91,67 %
20.07.2017 20:34 16,8 C 25,6 C 95 % 1013,1 hPa 0,4 l/m 11,0 km/h (2 Bft) SW 235 0 min 0,000 mm 0,0 UV-I 0 W/m 16,0 C 14,7 C 17,7 km/h (3 Bft) 97,37 %
20.07.2017 20:36 16,8 C 25,6 C 95 % 1013,1 hPa 0,6 l/m 5,5 km/h (1 Bft) W 259 0 min 0,000 mm 0,0 UV-I 0 W/m 16,0 C 16,8 C 12,9 km/h (3 Bft) 95,16 %
20.07.2017 20:38 16,8 C 25,6 C 95 % 1013,1 hPa 0,4 l/m 8,4 km/h (2 Bft) W-SW 248 0 min 0,000 mm 0,0 UV-I 0 W/m 16,0 C 15,8 C 14,5 km/h (3 Bft) 97,87 %
20.07.2017 20:40 16,8 C 25,6 C 95 % 1013,1 hPa 0,6 l/m 10,0 km/h (2 Bft) SW 218 0 min 0,000 mm 0,0 UV-I 0 W/m 16,0 C 15,1 C 17,7 km/h (3 Bft) 95,74 %
20.07.2017 20:42 16,8 C 25,6 C 95 % 1013,1 hPa 1,0 l/m 9,2 km/h (2 Bft) SW 221 0 min 0,000 mm 0,0 UV-I 0 W/m 16,0 C 15,4 C 19,3 km/h (3 Bft) 93,75 %
20.07.2017 20:44 16,8 C 25,6 C 95 % 1013,1 hPa 0,4 l/m 12,8 km/h (3 Bft) W-SW 238 0 min 0,000 mm 0,0 UV-I 0 W/m 16,0 C 14,1 C 19,3 km/h (3 Bft) 96,00 %
20.07.2017 20:46 16,7 C 25,6 C 95 % 1013,0 hPa 0,4 l/m 9,9 km/h (2 Bft) SW 234 0 min 0,000 mm 0,0 UV-I 0 W/m 15,9 C 15,0 C 17,7 km/h (3 Bft) 97,37 %
20.07.2017 20:48 16,7 C 25,6 C 95 % 1013,1 hPa 0,4 l/m 9,3 km/h (2 Bft) SW 219 0 min 0,000 mm 0,0 UV-I 0 W/m 15,9 C 15,3 C 16,1 km/h (3 Bft) 93,62 %
20.07.2017 20:50 16,7 C 25,6 C 95 % 1013,0 hPa 0,2 l/m 11,5 km/h (2 Bft) S-SW 211 0 min 0,000 mm 0,0 UV-I 0 W/m 15,9 C 14,4 C 17,7 km/h (3 Bft) 95,92 %
20.07.2017 20:52 16,7 C 25,6 C 95 % 1013,0 hPa 0,2 l/m 9,6 km/h (2 Bft) S-SW 197 0 min 0,000 mm 0,0 UV-I 0 W/m 15,9 C 15,2 C 14,5 km/h (3 Bft) 94,00 %
20.07.2017 20:54 16,7 C 25,6 C 95 % 1013,0 hPa 0,4 l/m 9,5 km/h (2 Bft) S-SW 211 0 min 0,000 mm 0,0 UV-I 0 W/m 15,9 C 15,2 C 16,1 km/h (3 Bft) 95,74 %
20.07.2017 20:56 16,7 C 25,6 C 95 % 1013,0 hPa 0,0 l/m 9,4 km/h (2 Bft) S-SW 211 0 min 0,000 mm 0,0 UV-I 0 W/m 15,9 C 15,2 C 14,5 km/h (3 Bft) 97,92 %
20.07.2017 20:58 16,7 C 25,6 C 95 % 1013,0 hPa 0,2 l/m 5,9 km/h (2 Bft) S-SO 160 0 min 0,000 mm 0,0 UV-I 0 W/m 15,9 C 16,7 C 11,3 km/h (2 Bft) 95,74 %
20.07.2017 21:00 16,7 C 25,6 C 95 % 1013,0 hPa 0,2 l/m 5,9 km/h (2 Bft) S-SW 205 0 min 0,000 mm 0,0 UV-I 0 W/m 15,9 C 16,7 C 11,3 km/h (2 Bft) 97,87 %
20.07.2017 21:02 16,7 C 25,6 C 95 % 1013,1 hPa 0,2 l/m 9,8 km/h (2 Bft) W-SW 239 0 min 0,000 mm 0,0 UV-I 0 W/m 15,9 C 15,1 C 14,5 km/h (3 Bft) 93,62 %
20.07.2017 21:04 16,7 C 25,6 C 95 % 1013,1 hPa 0,2 l/m 8,0 km/h (2 Bft) SW 231 0 min 0,000 mm 0,0 UV-I 0 W/m 15,9 C 15,9 C 12,9 km/h (3 Bft) 97,87 %
20.07.2017 21:06 16,7 C 25,6 C 95 % 1013,1 hPa 0,0 l/m 9,5 km/h (2 Bft) SW 223 0 min 0,000 mm 0,0 UV-I 0 W/m 15,9 C 15,2 C 12,9 km/h (3 Bft) 95,74 %
20.07.2017 21:08 16,7 C 25,6 C 95 % 1013,1 hPa 0,0 l/m 7,5 km/h (2 Bft) W-SW 250 0 min 0,000 mm 0,0 UV-I 0 W/m 15,9 C 16,1 C 12,9 km/h (3 Bft) 97,87 %
20.07.2017 21:10 16,7 C 25,6 C 95 % 1013,2 hPa 0,2 l/m 8,0 km/h (2 Bft) S-SW 213 0 min 0,000 mm 0,0 UV-I 0 W/m 15,9 C 15,9 C 14,5 km/h (3 Bft) 95,74 %
20.07.2017 21:12 16,7 C 25,6 C 95 % 1013,2 hPa 0,0 l/m 9,1 km/h (2 Bft) SW 221 0 min 0,000 mm 0,0 UV-I 0 W/m 15,9 C 15,4 C 14,5 km/h (3 Bft) 97,87 %
20.07.2017 21:14 16,7 C 25,6 C 95 % 1013,3 hPa 0,2 l/m 9,0 km/h (2 Bft) S-SW 207 0 min 0,000 mm 0,0 UV-I 0 W/m 15,9 C 15,4 C 17,7 km/h (3 Bft) 97,87 %
20.07.2017 21:16 16,8 C 25,6 C 95 % 1013,4 hPa 0,0 l/m 6,1 km/h (2 Bft) SW 233 0 min 0,000 mm 0,0 UV-I 0 W/m 16,0 C 16,8 C 12,9 km/h (3 Bft) 97,87 %
20.07.2017 21:18 16,8 C 25,6 C 95 % 1013,3 hPa 0,0 l/m 9,5 km/h (2 Bft) W-SW 242 0 min 0,000 mm 0,0 UV-I 0 W/m 16,0 C 15,3 C 12,9 km/h (3 Bft) 95,74 %
20.07.2017 21:20 16,7 C 25,6 C 95 % 1013,4 hPa 0,0 l/m 7,5 km/h (2 Bft) SW 229 0 min 0,000 mm 0,0 UV-I 0 W/m 15,9 C 16,1 C 12,9 km/h (3 Bft) 93,62 %
20.07.2017 21:22 16,8 C 25,6 C 95 % 1013,4 hPa 0,0 l/m 8,0 km/h (2 Bft) SW 234 0 min 0,000 mm 0,0 UV-I 0 W/m 16,0 C 16,0 C 16,1 km/h (3 Bft) 97,37 %
20.07.2017 21:24 16,8 C 25,6 C 95 % 1013,5 hPa 0,0 l/m 5,5 km/h (1 Bft) SW 227 0 min 0,000 mm 0,0 UV-I 0 W/m 16,0 C 16,8 C 9,7 km/h (2 Bft) 98,00 %
20.07.2017 21:26 16,7 C 25,6 C 95 % 1013,4 hPa 0,0 l/m 7,3 km/h (2 Bft) SW 224 0 min 0,000 mm 0,0 UV-I 0 W/m 15,9 C 16,2 C 12,9 km/h (3 Bft) 97,87 %
20.07.2017 21:28 16,7 C 25,6 C 95 % 1013,5 hPa 0,2 l/m 7,9 km/h (2 Bft) SW 225 0 min 0,000 mm 0,0 UV-I 0 W/m 15,9 C 15,9 C 11,3 km/h (2 Bft) 97,87 %
20.07.2017 21:30 16,7 C 25,6 C 95 % 1013,5 hPa 0,0 l/m 10,5 km/h (2 Bft) SW 221 0 min 0,000 mm 0,0 UV-I 0 W/m 15,9 C 14,8 C 17,7 km/h (3 Bft) 95,74 %
20.07.2017 21:32 16,7 C 25,6 C 95 % 1013,6 hPa 0,0 l/m 7,1 km/h (2 Bft) W-SW 250 0 min 0,000 mm 0,0 UV-I 0 W/m 15,9 C 16,3 C 12,9 km/h (3 Bft) 100,00 %
20.07.2017 21:34 16,8 C 25,6 C 95 % 1013,6 hPa 0,0 l/m 8,7 km/h (2 Bft) W-SW 244 0 min 0,000 mm 0,0 UV-I 0 W/m 16,0 C 15,7 C 11,3 km/h (2 Bft) 95,08 %
20.07.2017 21:36 16,7 C 25,6 C 95 % 1013,6 hPa 0,0 l/m 7,0 km/h (2 Bft) W-SW 239 0 min 0,000 mm 0,0 UV-I 0 W/m 15,9 C 16,4 C 11,3 km/h (2 Bft) 93,62 %
20.07.2017 21:38 16,7 C 25,6 C 95 % 1013,6 hPa 0,0 l/m 5,2 km/h (1 Bft) W-SW 249 0 min 0,000 mm 0,0 UV-I 0 W/m 15,9 C 16,7 C 8,0 km/h (2 Bft) 95,83 %
20.07.2017 21:40 16,7 C 25,6 C 95 % 1013,6 hPa 0,0 l/m 5,2 km/h (1 Bft) W 263 0 min 0,000 mm 0,0 UV-I 0 W/m 15,9 C 16,7 C 9,7 km/h (2 Bft) 97,87 %
20.07.2017 21:42 16,7 C 25,0 C 95 % 1013,6 hPa 0,0 l/m 5,0 km/h (1 Bft) SW 236 0 min 0,000 mm 0,0 UV-I 0 W/m 15,9 C 16,7 C 9,7 km/h (2 Bft) 95,74 %
20.07.2017 21:44 16,7 C 25,0 C 95 % 1013,7 hPa 0,0 l/m 3,2 km/h (1 Bft) S-SW 207 0 min 0,000 mm 0,0 UV-I 0 W/m 15,9 C 16,7 C 8,0 km/h (2 Bft) 100,00 %
20.07.2017 21:46 16,7 C 25,6 C 95 % 1013,7 hPa 0,0 l/m 4,0 km/h (1 Bft) SW 227 0 min 0,000 mm 0,0 UV-I 0 W/m 15,9 C 16,7 C 8,0 km/h (2 Bft) 97,37 %
20.07.2017 21:48 16,7 C 25,6 C 95 % 1013,7 hPa 0,0 l/m 5,3 km/h (1 Bft) SW 232 0 min 0,000 mm 0,0 UV-I 0 W/m 15,9 C 16,7 C 11,3 km/h (2 Bft) 100,00 %
20.07.2017 21:50 16,7 C 25,0 C 95 % 1013,7 hPa 0,0 l/m 5,9 km/h (2 Bft) SW 236 0 min 0,000 mm 0,0 UV-I 0 W/m 15,9 C 16,7 C 9,7 km/h (2 Bft) 95,74 %
20.07.2017 21:53 16,7 C 25,0 C 95 % 1013,8 hPa 0,0 l/m 4,4 km/h (1 Bft) W-SW 246 0 min 0,000 mm 0,0 UV-I 0 W/m 15,9 C 16,7 C 8,0 km/h (2 Bft) 98,68 %
20.07.2017 21:54 16,7 C 25,0 C 95 % 1013,8 hPa 0,2 l/m 4,1 km/h (1 Bft) W-SW 245 0 min 0,000 mm 0,0 UV-I 0 W/m 15,9 C 16,7 C 6,4 km/h (2 Bft) 100,00 %
20.07.2017 21:56 16,7 C 25,0 C 95 % 1013,7 hPa 0,0 l/m 6,0 km/h (2 Bft) W-SW 249 0 min 0,000 mm 0,0 UV-I 0 W/m 15,9 C 16,7 C 11,3 km/h (2 Bft) 97,37 %
20.07.2017 21:58 16,7 C 25,0 C 95 % 1013,7 hPa 0,0 l/m 6,6 km/h (2 Bft) W-SW 244 0 min 0,000 mm 0,0 UV-I 0 W/m 15,9 C 16,6 C 12,9 km/h (3 Bft) 97,87 %
20.07.2017 22:00 16,7 C 25,0 C 95 % 1013,7 hPa 0,0 l/m 7,1 km/h (2 Bft) W-SW 252 0 min 0,000 mm 0,0 UV-I 0 W/m 15,9 C 16,3 C 11,3 km/h (2 Bft) 93,88 %
20.07.2017 22:02 16,7 C 25,0 C 95 % 1013,7 hPa 0,0 l/m 7,9 km/h (2 Bft) W-SW 249 0 min 0,000 mm 0,0 UV-I 0 W/m 15,9 C 15,9 C 12,9 km/h (3 Bft) 98,00 %
20.07.2017 22:04 16,7 C 25,0 C 95 % 1013,6 hPa 0,0 l/m 8,0 km/h (2 Bft) W 261 0 min 0,000 mm 0,0 UV-I 0 W/m 15,9 C 15,9 C 12,9 km/h (3 Bft) 97,87 %
20.07.2017 22:06 16,7 C 25,0 C 95 % 1013,7 hPa 0,0 l/m 7,7 km/h (2 Bft) SW 236 0 min 0,000 mm 0,0 UV-I 0 W/m 15,9 C 16,0 C 12,9 km/h (3 Bft) 96,00 %
20.07.2017 22:08 16,7 C 25,0 C 95 % 1013,7 hPa 0,0 l/m 6,5 km/h (2 Bft) W-SW 250 0 min 0,000 mm 0,0 UV-I 0 W/m 15,9 C 16,7 C 11,3 km/h (2 Bft) 97,87 %
20.07.2017 22:10 16,7 C 25,0 C 96 % 1013,7 hPa 0,2 l/m 7,5 km/h (2 Bft) W-SW 254 0 min 0,000 mm 0,0 UV-I 0 W/m 16,1 C 16,1 C 11,3 km/h (2 Bft) 94,74 %
20.07.2017 22:12 16,7 C 25,0 C 95 % 1013,7 hPa 0,0 l/m 5,5 km/h (1 Bft) W 263 0 min 0,000 mm 0,0 UV-I 0 W/m 15,9 C 16,7 C 8,0 km/h (2 Bft) 95,74 %
20.07.2017 22:14 16,7 C 25,0 C 96 % 1013,8 hPa 0,2 l/m 7,1 km/h (2 Bft) W 274 0 min 0,000 mm 0,0 UV-I 0 W/m 16,1 C 16,3 C 11,3 km/h (2 Bft) 95,74 %
20.07.2017 22:16 16,7 C 25,0 C 96 % 1013,7 hPa 0,0 l/m 6,8 km/h (2 Bft) W 273 0 min 0,000 mm 0,0 UV-I 0 W/m 16,1 C 16,5 C 11,3 km/h (2 Bft) 95,74 %
20.07.2017 22:18 16,7 C 25,0 C 96 % 1013,8 hPa 0,2 l/m 4,6 km/h (1 Bft) W-SW 252 0 min 0,000 mm 0,0 UV-I 0 W/m 16,1 C 16,7 C 6,4 km/h (2 Bft) 94,00 %
20.07.2017 22:20 16,7 C 25,0 C 96 % 1013,9 hPa 0,0 l/m 3,9 km/h (1 Bft) W 281 0 min 0,000 mm 0,0 UV-I 0 W/m 16,1 C 16,7 C 6,4 km/h (2 Bft) 97,96 %
20.07.2017 22:22 16,7 C 25,0 C 96 % 1013,8 hPa 0,0 l/m 6,6 km/h (2 Bft) W-SW 257 0 min 0,000 mm 0,0 UV-I 0 W/m 16,1 C 16,6 C 11,3 km/h (2 Bft) 95,74 %
20.07.2017 22:24 16,7 C 25,0 C 96 % 1013,8 hPa 0,0 l/m 3,6 km/h (1 Bft) W 274 0 min 0,000 mm 0,0 UV-I 0 W/m 16,1 C 16,7 C 6,4 km/h (2 Bft) 93,62 %
20.07.2017 22:26 16,7 C 25,0 C 96 % 1013,8 hPa 0,0 l/m 3,9 km/h (1 Bft) SW 236 0 min 0,000 mm 0,0 UV-I 0 W/m 16,1 C 16,7 C 6,4 km/h (2 Bft) 95,74 %
20.07.2017 22:28 16,7 C 25,0 C 96 % 1013,8 hPa 0,0 l/m 4,2 km/h (1 Bft) W-SW 240 0 min 0,000 mm 0,0 UV-I 0 W/m 16,1 C 16,7 C 6,4 km/h (2 Bft) 95,74 %
20.07.2017 22:30 16,7 C 25,0 C 96 % 1013,7 hPa 0,0 l/m 1,7 km/h (1 Bft) W-SW 240 0 min 0,000 mm 0,0 UV-I 0 W/m 16,1 C 16,7 C 4,8 km/h (1 Bft) 95,74 %
20.07.2017 22:32 16,7 C 25,0 C 96 % 1013,7 hPa 0,0 l/m 0,7 km/h (0 Bft) W-SW 240 0 min 0,000 mm 0,0 UV-I 0 W/m 16,1 C 16,7 C 3,2 km/h (1 Bft) 96,00 %
20.07.2017 22:34 16,7 C 25,0 C 96 % 1013,7 hPa 0,0 l/m 1,1 km/h (1 Bft) W-SW 240 0 min 0,000 mm 0,0 UV-I 0 W/m 16,1 C 16,7 C 3,2 km/h (1 Bft) 97,87 %
20.07.2017 22:36 16,7 C 25,0 C 96 % 1013,8 hPa 0,0 l/m 3,3 km/h (1 Bft) W-SW 240 0 min 0,000 mm 0,0 UV-I 0 W/m 16,1 C 16,7 C 4,8 km/h (1 Bft) 97,87 %
20.07.2017 22:38 16,7 C 25,0 C 96 % 1013,8 hPa 0,2 l/m 1,5 km/h (1 Bft) W-SW 240 0 min 0,000 mm 0,0 UV-I 0 W/m 16,1 C 16,7 C 4,8 km/h (1 Bft) 97,87 %
20.07.2017 22:40 16,7 C 25,0 C 96 % 1013,9 hPa 0,0 l/m 1,1 km/h (1 Bft) W-SW 240 0 min 0,000 mm 0,0 UV-I 0 W/m 16,1 C 16,7 C 1,6 km/h (1 Bft) 97,37 %
20.07.2017 22:42 16,7 C 25,0 C 96 % 1013,9 hPa 0,0 l/m 3,0 km/h (1 Bft) S-SW 199 0 min 0,000 mm 0,0 UV-I 0 W/m 16,1 C 16,7 C 4,8 km/h (1 Bft) 97,87 %
20.07.2017 22:44 16,7 C 25,0 C 96 % 1013,9 hPa 0,0 l/m 2,9 km/h (1 Bft) S-SW 199 0 min 0,000 mm 0,0 UV-I 0 W/m 16,1 C 16,7 C 4,8 km/h (1 Bft) 100,00 %
20.07.2017 22:46 16,7 C 25,0 C 96 % 1013,9 hPa 0,0 l/m 0,2 km/h (0 Bft) S-SW 199 0 min 0,000 mm 0,0 UV-I 0 W/m 16,1 C 16,7 C 1,6 km/h (1 Bft) 95,83 %
20.07.2017 22:48 16,7 C 25,0 C 96 % 1013,9 hPa 0,0 l/m 1,3 km/h (1 Bft) S-SW 199 0 min 0,000 mm 0,0 UV-I 0 W/m 16,1 C 16,7 C 3,2 km/h (1 Bft) 100,00 %
20.07.2017 22:50 16,7 C 25,0 C 96 % 1013,9 hPa 0,0 l/m 0,4 km/h (0 Bft) S-SW 199 0 min 0,000 mm 0,0 UV-I 0 W/m 16,1 C 16,7 C 1,6 km/h (1 Bft) 97,87 %
20.07.2017 22:52 16,7 C 25,0 C 96 % 1013,8 hPa 0,0 l/m 0,0 km/h (0 Bft) S-SW 199 0 min 0,000 mm 0,0 UV-I 0 W/m 16,1 C 16,7 C 1,6 km/h (1 Bft) 97,87 %
20.07.2017 22:54 16,7 C 25,0 C 96 % 1013,8 hPa 0,0 l/m 0,3 km/h (0 Bft) S-SW 199 0 min 0,000 mm 0,0 UV-I 0 W/m 16,1 C 16,7 C 1,6 km/h (1 Bft) 97,92 %
20.07.2017 22:56 16,7 C 25,0 C 96 % 1013,8 hPa 0,0 l/m 0,1 km/h (0 Bft) S-SW 199 0 min 0,000 mm 0,0 UV-I 0 W/m 16,1 C 16,7 C 1,6 km/h (1 Bft) 100,00 %
20.07.2017 22:58 16,7 C 25,0 C 96 % 1013,7 hPa 0,0 l/m 0,0 km/h (0 Bft) S-SW 199 0 min 0,000 mm 0,0 UV-I 0 W/m 16,1 C 16,7 C 0,0 km/h (0 Bft) 97,87 %
20.07.2017 23:00 16,7 C 25,0 C 96 % 1013,7 hPa 0,0 l/m 0,0 km/h (0 Bft) S-SW 199 0 min 0,000 mm 0,0 UV-I 0 W/m 16,1 C 16,7 C 0,0 km/h (0 Bft) 100,00 %
20.07.2017 23:02 16,7 C 25,0 C 96 % 1013,7 hPa 0,0 l/m 0,0 km/h (0 Bft) S-SW 199 0 min 0,000 mm 0,0 UV-I 0 W/m 16,1 C 16,7 C 0,0 km/h (0 Bft) 97,87 %
20.07.2017 23:04 16,7 C 25,0 C 96 % 1013,7 hPa 0,0 l/m 0,0 km/h (0 Bft) S-SW 199 0 min 0,000 mm 0,0 UV-I 0 W/m 16,1 C 16,7 C 0,0 km/h (0 Bft) 100,00 %
20.07.2017 23:06 16,6 C 25,0 C 96 % 1013,7 hPa 0,0 l/m 0,0 km/h (0 Bft) S-SW 199 0 min 0,000 mm 0,0 UV-I 0 W/m 16,0 C 16,6 C 0,0 km/h (0 Bft) 97,87 %
20.07.2017 23:08 16,7 C 25,0 C 96 % 1013,7 hPa 0,0 l/m 0,0 km/h (0 Bft) S-SW 199 0 min 0,000 mm 0,0 UV-I 0 W/m 16,1 C 16,7 C 0,0 km/h (0 Bft) 97,87 %
20.07.2017 23:10 16,7 C 25,0 C 96 % 1013,7 hPa 0,0 l/m 2,1 km/h (1 Bft) S-SW 199 0 min 0,000 mm 0,0 UV-I 0 W/m 16,1 C 16,7 C 3,2 km/h (1 Bft) 100,00 %
20.07.2017 23:12 16,7 C 25,0 C 96 % 1013,7 hPa 0,0 l/m 1,6 km/h (1 Bft) S-SW 199 0 min 0,000 mm 0,0 UV-I 0 W/m 16,1 C 16,7 C 3,2 km/h (1 Bft) 100,00 %
20.07.2017 23:14 16,7 C 25,0 C 96 % 1013,7 hPa 0,0 l/m 0,3 km/h (0 Bft) S-SW 199 0 min 0,000 mm 0,0 UV-I 0 W/m 16,1 C 16,7 C 1,6 km/h (1 Bft) 100,00 %
20.07.2017 23:16 16,7 C 25,0 C 96 % 1013,7 hPa 0,0 l/m 1,6 km/h (1 Bft) S-SW 199 0 min 0,000 mm 0,0 UV-I 0 W/m 16,1 C 16,7 C 3,2 km/h (1 Bft) 95,74 %
20.07.2017 23:18 16,7 C 25,0 C 96 % 1013,7 hPa 0,0 l/m 0,2 km/h (0 Bft) S-SW 199 0 min 0,000 mm 0,0 UV-I 0 W/m 16,1 C 16,7 C 1,6 km/h (1 Bft) 100,00 %
20.07.2017 23:20 16,7 C 25,0 C 96 % 1013,7 hPa 0,0 l/m 0,0 km/h (0 Bft) S-SW 199 0 min 0,000 mm 0,0 UV-I 0 W/m 16,1 C 16,7 C 0,0 km/h (0 Bft) 100,00 %
20.07.2017 23:22 16,7 C 25,0 C 96 % 1013,7 hPa 0,0 l/m 0,0 km/h (0 Bft) S-SW 199 0 min 0,000 mm 0,0 UV-I 0 W/m 16,1 C 16,7 C 0,0 km/h (0 Bft) 97,87 %
20.07.2017 23:24 16,7 C 25,0 C 96 % 1013,7 hPa 0,0 l/m 0,0 km/h (0 Bft) S-SW 199 0 min 0,000 mm 0,0 UV-I 0 W/m 16,1 C 16,7 C 0,0 km/h (0 Bft) 96,00 %
20.07.2017 23:26 16,7 C 25,0 C 96 % 1013,7 hPa 0,0 l/m 0,0 km/h (0 Bft) S-SW 199 0 min 0,000 mm 0,0 UV-I 0 W/m 16,1 C 16,7 C 0,0 km/h (0 Bft) 100,00 %
20.07.2017 23:28 16,7 C 25,0 C 96 % 1013,7 hPa 0,0 l/m 0,0 km/h (0 Bft) S-SW 199 0 min 0,000 mm 0,0 UV-I 0 W/m 16,1 C 16,7 C 0,0 km/h (0 Bft) 97,87 %
20.07.2017 23:30 16,7 C 25,0 C 96 % 1013,7 hPa 0,0 l/m 0,0 km/h (0 Bft) S-SW 199 0 min 0,000 mm 0,0 UV-I 0 W/m 16,1 C 16,7 C 0,0 km/h (0 Bft) 97,87 %
20.07.2017 23:32 16,7 C 25,0 C 96 % 1013,7 hPa 0,0 l/m 0,0 km/h (0 Bft) S-SW 199 0 min 0,000 mm 0,0 UV-I 0 W/m 16,1 C 16,7 C 0,0 km/h (0 Bft) 96,00 %
20.07.2017 23:34 16,7 C 25,0 C 96 % 1013,7 hPa 0,0 l/m 0,0 km/h (0 Bft) S-SW 199 0 min 0,000 mm 0,0 UV-I 0 W/m 16,1 C 16,7 C 0,0 km/h (0 Bft) 100,00 %
20.07.2017 23:36 16,7 C 25,0 C 96 % 1013,7 hPa 0,0 l/m 0,0 km/h (0 Bft) S-SW 199 0 min 0,000 mm 0,0 UV-I 0 W/m 16,1 C 16,7 C 0,0 km/h (0 Bft) 100,00 %
20.07.2017 23:38 16,7 C 25,0 C 96 % 1013,7 hPa 0,0 l/m 0,0 km/h (0 Bft) S-SW 199 0 min 0,000 mm 0,0 UV-I 0 W/m 16,1 C 16,7 C 0,0 km/h (0 Bft) 100,00 %
20.07.2017 23:40 16,7 C 25,0 C 96 % 1013,6 hPa 0,0 l/m 0,0 km/h (0 Bft) S-SW 199 0 min 0,000 mm 0,0 UV-I 0 W/m 16,1 C 16,7 C 0,0 km/h (0 Bft) 100,00 %
20.07.2017 23:42 16,7 C 25,0 C 96 % 1013,7 hPa 0,0 l/m 0,0 km/h (0 Bft) S-SW 199 0 min 0,000 mm 0,0 UV-I 0 W/m 16,1 C 16,7 C 0,0 km/h (0 Bft) 97,87 %
20.07.2017 23:44 16,7 C 25,0 C 96 % 1013,6 hPa 0,0 l/m 0,1 km/h (0 Bft) S-SW 199 0 min 0,000 mm 0,0 UV-I 0 W/m 16,1 C 16,7 C 1,6 km/h (1 Bft) 100,00 %
20.07.2017 23:46 16,7 C 25,0 C 96 % 1013,6 hPa 0,0 l/m 0,0 km/h (0 Bft) S-SW 199 0 min 0,000 mm 0,0 UV-I 0 W/m 16,1 C 16,7 C 0,0 km/h (0 Bft) 95,74 %
20.07.2017 23:48 16,7 C 25,0 C 96 % 1013,6 hPa 0,0 l/m 0,0 km/h (0 Bft) S-SW 199 0 min 0,000 mm 0,0 UV-I 0 W/m 16,1 C 16,7 C 0,0 km/h (0 Bft) 100,00 %
20.07.2017 23:50 16,7 C 25,0 C 96 % 1013,6 hPa 0,0 l/m 1,0 km/h (0 Bft) S-SW 199 0 min 0,000 mm 0,0 UV-I 0 W/m 16,1 C 16,7 C 3,2 km/h (1 Bft) 97,87 %
20.07.2017 23:52 16,7 C 25,0 C 96 % 1013,6 hPa 0,0 l/m 2,6 km/h (1 Bft) S-SW 199 0 min 0,000 mm 0,0 UV-I 0 W/m 16,1 C 16,7 C 3,2 km/h (1 Bft) 97,87 %
20.07.2017 23:54 16,7 C 25,0 C 96 % 1013,6 hPa 0,0 l/m 1,6 km/h (1 Bft) S-SW 199 0 min 0,000 mm 0,0 UV-I 0 W/m 16,1 C 16,7 C 3,2 km/h (1 Bft) 100,00 %
20.07.2017 23:56 16,7 C 25,0 C 96 % 1013,5 hPa 0,0 l/m 2,4 km/h (1 Bft) S-SW 199 0 min 0,000 mm 0,0 UV-I 0 W/m 16,1 C 16,7 C 4,8 km/h (1 Bft) 97,14 %
20.07.2017 23:58 16,7 C 25,0 C 96 % 1013,6 hPa 0,0 l/m 0,8 km/h (0 Bft) S-SW 199 0 min 0,000 mm 0,0 UV-I 0 W/m 16,1 C 16,7 C 3,2 km/h (1 Bft) 97,87 %
_ Min-Zeit 05:30 04:40 15:02 17:30 - 00:06 - - - - - - 15:02 18:50 00:06 05:04
Minimum _ 16,0 C 24,4 C 32 % 1006,8 hPa - 0,0 km/h (0 Bft) - - - - - - 12,5 C 10,8 C 0,0 km/h (0 Bft) 87,23 %
_ Max-Zeit 16:36 17:08 22:10 22:20 18:34 18:32 - - 05:38 15:00 12:38 13:34 09:36 16:34 18:14 01:04
Maximum _ 32,0 C 26,7 C 96 % 1013,9 hPa 4,4 l/m 46,2 km/h
W-SW (6 Bft)
- - 2 min 0,635 mm 6,8 UV-I 1042 W/m 16,4 C 31,9 C 77,2 km/h
W-SW (9 Bft)
100,00 %
Durchschnitt _ 22,1 C 25,2 C 68 % 1010,5 hPa #55,4 l/m 7,0 km/h (2 Bft) W-SW - #8:48 h #5,004 mm 3,7 UV-I 418 W/m 14,8 C 21,5 C 12,0 km/h (2 Bft) 96,38 %